Mountain Fork River (Oklahoma), Eagleville (07339000)

StateOklahomaLatestPoor (582 cfs)
RiverMountain Fork RiverRatingObservedEstimated
Updated2026-05-05 13:30 (1 hour ago)Flood - The river is flooding. Obstacles can be treacherous or deadly. The river should be avoided at this stage for casual trips and definitely for the inexperienced. Trips should be attempted only with protective gear and equipment.Flood(none)6184
Discharge582 cfs (median: 1130 cfs)High - The river is high and potentially dangerous, especially for the young and / or inexperienced. Normal stream obstacles are sometimes difficult to navigate. Extended distances can be attempted, but canoe travel may not be advisable.High(none)1052
Height2 feetGood - Conditions are ideal for a canoe or kayak. Boats typically will drag on fewer than one-quarter of riffles, if at all, and portages are unnecessary or rare. Normal float lengths can be attempted without a problem.Good(none)754
TrendFalling (rising over 24 hours)Low - River is low but can still be floated. Some riffles are okay but most come with significant dragging and might need a portage. Float lengths should be reduced to accommodate low flow, dragging, and portages.Low(none)708
USGSExternal icon USGS Site (External icon Duck Duck Go Maps)Poor - River is too low to float comfortably. Most or all riffles will drag or must be portaged and some obstacles (such as slick shelf rock) cause undue problems. Avoid the river at this stage for casual paddling trips.Poor(none)198

Trending Data

Plot Image

Trips for Mountain Fork River (Oklahoma), Eagleville (07339000)

DateStartEndDistanceConditionDischargeHeightFishingDetails
Click for details2003-07-06 Rereg Dam US 70 Total trip distance: 3.2 miles3.2 Good 363 None NoneNone Fillmore, Brian
Wann, Denny
Fillmore, Brian; Wann, Denny
No notes for this trip<i>No notes for this trip</i> USGS Gauge Data:
Eagleville (07339000)
Discharge: 363
Height:
<b>USGS Gauge Data:</b></br />Eagleville (07339000)<br />Discharge: 363<br />Height:
Source: FillmoreSource: Fillmore

A total of 1 rows are displayed.

Trip Summary for Mountain Fork River (Oklahoma), Eagleville (07339000)

Miles3.2
Trips1
People2
Dates1
Years1
Months1
Rows1
Sources1

Condition Descriptions

Fishing Conditions

Fish Species

Notes

Classic Trip List

The classic River Trips application is still available for use. It is updated with the new system using a data retrofit. It is no longer maintained. The original River Trips application is no longer updated (as of 1 Dec 2016) but can be checked for errors or for the condition of the data before it was converted to the new system.

Gauge Data Table

ObservationHeightDischargeMaximum
Discharge
Minimum
Discharge
Mean
Discharge
P05P10P20P25P50
(Median)
P75P80P90P95
2026-05-05 13:30 2.00 582 7850 (1973) 94 (1996) 1930 143 173 243 292 1130 2910 3360 5280 7060
2026-05-05 12:30 2.15 668 7850 (1973) 94 (1996) 1930 143 173 243 292 1130 2910 3360 5280 7060
2026-05-05 11:30 2.24 725 7850 (1973) 94 (1996) 1930 143 173 243 292 1130 2910 3360 5280 7060
2026-05-05 10:30 2.37 814 7850 (1973) 94 (1996) 1930 143 173 243 292 1130 2910 3360 5280 7060
2026-05-05 09:30 2.52 926 7850 (1973) 94 (1996) 1930 143 173 243 292 1130 2910 3360 5280 7060
2026-05-05 08:30 2.65 1030 7850 (1973) 94 (1996) 1930 143 173 243 292 1130 2910 3360 5280 7060
2026-05-05 07:30 2.83 1180 7850 (1973) 94 (1996) 1930 143 173 243 292 1130 2910 3360 5280 7060
2026-05-05 06:30 3.01 1340 7850 (1973) 94 (1996) 1930 143 173 243 292 1130 2910 3360 5280 7060
2026-05-05 05:30 3.20 1530 7850 (1973) 94 (1996) 1930 143 173 243 292 1130 2910 3360 5280 7060
2026-05-05 04:30 3.42 1750 7850 (1973) 94 (1996) 1930 143 173 243 292 1130 2910 3360 5280 7060
2026-05-05 03:30 3.64 1990 7850 (1973) 94 (1996) 1930 143 173 243 292 1130 2910 3360 5280 7060
2026-05-05 02:30 3.87 2250 7850 (1973) 94 (1996) 1930 143 173 243 292 1130 2910 3360 5280 7060
2026-05-05 01:30 4.11 2530 7850 (1973) 94 (1996) 1930 143 173 243 292 1130 2910 3360 5280 7060
2026-05-05 00:30 4.32 2780 7850 (1973) 94 (1996) 1930 143 173 243 292 1130 2910 3360 5280 7060
2026-05-04 23:30 4.40 2870 7850 (1973) 94 (1996) 1930 143 173 243 292 1130 2910 3360 5280 7060
2026-05-04 22:30 4.09 2510 8110 (1973) 101 (1998) 1900 140 199 365 412 950 3160 3410 4650 6600
2026-05-04 21:30 2.88 1220 8110 (1973) 101 (1998) 1900 140 199 365 412 950 3160 3410 4650 6600
2026-05-04 20:30 1.37 317 8110 (1973) 101 (1998) 1900 140 199 365 412 950 3160 3410 4650 6600
2026-05-04 19:30 0.85 166 8110 (1973) 101 (1998) 1900 140 199 365 412 950 3160 3410 4650 6600
2026-05-04 18:30 0.81 156 8110 (1973) 101 (1998) 1900 140 199 365 412 950 3160 3410 4650 6600
2026-05-04 17:30 0.82 158 8110 (1973) 101 (1998) 1900 140 199 365 412 950 3160 3410 4650 6600
2026-05-04 16:30 0.81 156 8110 (1973) 101 (1998) 1900 140 199 365 412 950 3160 3410 4650 6600
2026-05-04 15:30 0.81 156 8110 (1973) 101 (1998) 1900 140 199 365 412 950 3160 3410 4650 6600
2026-05-04 14:30 0.81 156 8110 (1973) 101 (1998) 1900 140 199 365 412 950 3160 3410 4650 6600
2026-05-04 13:30 0.83 161 8110 (1973) 101 (1998) 1900 140 199 365 412 950 3160 3410 4650 6600
2026-05-04 12:30 0.87 171 8110 (1973) 101 (1998) 1900 140 199 365 412 950 3160 3410 4650 6600
2026-05-04 11:30 0.83 161 8110 (1973) 101 (1998) 1900 140 199 365 412 950 3160 3410 4650 6600
2026-05-04 10:30 0.87 171 8110 (1973) 101 (1998) 1900 140 199 365 412 950 3160 3410 4650 6600
2026-05-04 09:30 0.87 171 8110 (1973) 101 (1998) 1900 140 199 365 412 950 3160 3410 4650 6600
2026-05-04 08:30 0.87 171 8110 (1973) 101 (1998) 1900 140 199 365 412 950 3160 3410 4650 6600
2026-05-04 07:30 0.87 171 8110 (1973) 101 (1998) 1900 140 199 365 412 950 3160 3410 4650 6600
2026-05-04 06:30 0.87 171 8110 (1973) 101 (1998) 1900 140 199 365 412 950 3160 3410 4650 6600
2026-05-04 05:30 0.87 171 8110 (1973) 101 (1998) 1900 140 199 365 412 950 3160 3410 4650 6600
2026-05-04 04:30 0.87 171 8110 (1973) 101 (1998) 1900 140 199 365 412 950 3160 3410 4650 6600
2026-05-04 03:30 0.87 171 8110 (1973) 101 (1998) 1900 140 199 365 412 950 3160 3410 4650 6600
2026-05-04 02:30 0.87 171 8110 (1973) 101 (1998) 1900 140 199 365 412 950 3160 3410 4650 6600
2026-05-04 01:30 0.87 171 8110 (1973) 101 (1998) 1900 140 199 365 412 950 3160 3410 4650 6600
2026-05-04 00:30 0.87 171 8110 (1973) 101 (1998) 1900 140 199 365 412 950 3160 3410 4650 6600
2026-05-03 23:30 0.87 171 8110 (1973) 101 (1998) 1900 140 199 365 412 950 3160 3410 4650 6600
2026-05-03 22:30 0.87 171 8200 (1973) 98 (1996) 1860 127 195 315 469 1230 2540 3320 4730 6170
2026-05-03 21:30 0.86 168 8200 (1973) 98 (1996) 1860 127 195 315 469 1230 2540 3320 4730 6170
2026-05-03 20:30 0.87 171 8200 (1973) 98 (1996) 1860 127 195 315 469 1230 2540 3320 4730 6170
2026-05-03 19:30 0.87 171 8200 (1973) 98 (1996) 1860 127 195 315 469 1230 2540 3320 4730 6170
2026-05-03 18:30 0.88 174 8200 (1973) 98 (1996) 1860 127 195 315 469 1230 2540 3320 4730 6170
2026-05-03 17:30 0.89 177 8200 (1973) 98 (1996) 1860 127 195 315 469 1230 2540 3320 4730 6170
2026-05-03 16:30 0.88 174 8200 (1973) 98 (1996) 1860 127 195 315 469 1230 2540 3320 4730 6170
2026-05-03 15:30 0.89 177 8200 (1973) 98 (1996) 1860 127 195 315 469 1230 2540 3320 4730 6170
2026-05-03 14:30 0.90 180 8200 (1973) 98 (1996) 1860 127 195 315 469 1230 2540 3320 4730 6170
2026-05-03 13:30 0.90 180 8200 (1973) 98 (1996) 1860 127 195 315 469 1230 2540 3320 4730 6170
2026-05-03 12:30 0.87 171 8200 (1973) 98 (1996) 1860 127 195 315 469 1230 2540 3320 4730 6170
2026-05-03 11:30 0.91 182 8200 (1973) 98 (1996) 1860 127 195 315 469 1230 2540 3320 4730 6170
2026-05-03 10:30 0.92 185 8200 (1973) 98 (1996) 1860 127 195 315 469 1230 2540 3320 4730 6170
2026-05-03 09:30 0.92 185 8200 (1973) 98 (1996) 1860 127 195 315 469 1230 2540 3320 4730 6170
2026-05-03 08:30 0.92 185 8200 (1973) 98 (1996) 1860 127 195 315 469 1230 2540 3320 4730 6170
2026-05-03 07:30 0.92 185 8200 (1973) 98 (1996) 1860 127 195 315 469 1230 2540 3320 4730 6170
2026-05-03 06:30 0.92 185 8200 (1973) 98 (1996) 1860 127 195 315 469 1230 2540 3320 4730 6170
2026-05-03 05:30 0.93 188 8200 (1973) 98 (1996) 1860 127 195 315 469 1230 2540 3320 4730 6170
2026-05-03 04:30 0.93 188 8200 (1973) 98 (1996) 1860 127 195 315 469 1230 2540 3320 4730 6170
2026-05-03 03:30 0.93 188 8200 (1973) 98 (1996) 1860 127 195 315 469 1230 2540 3320 4730 6170
2026-05-03 02:30 0.94 191 8200 (1973) 98 (1996) 1860 127 195 315 469 1230 2540 3320 4730 6170
2026-05-03 01:30 0.94 191 8200 (1973) 98 (1996) 1860 127 195 315 469 1230 2540 3320 4730 6170
2026-05-03 00:30 0.94 191 8200 (1973) 98 (1996) 1860 127 195 315 469 1230 2540 3320 4730 6170
2026-05-02 23:30 0.94 191 8200 (1973) 98 (1996) 1860 127 195 315 469 1230 2540 3320 4730 6170
2026-05-02 22:30 0.95 193 8090 (1991) 97 (1996) 1850 144 154 229 279 907 2740 3430 5510 7530
2026-05-02 21:30 0.95 193 8090 (1991) 97 (1996) 1850 144 154 229 279 907 2740 3430 5510 7530
2026-05-02 20:30 0.96 195 8090 (1991) 97 (1996) 1850 144 154 229 279 907 2740 3430 5510 7530
2026-05-02 19:30 0.96 195 8090 (1991) 97 (1996) 1850 144 154 229 279 907 2740 3430 5510 7530
2026-05-02 18:30 0.98 200 8090 (1991) 97 (1996) 1850 144 154 229 279 907 2740 3430 5510 7530
2026-05-02 17:30 0.99 202 8090 (1991) 97 (1996) 1850 144 154 229 279 907 2740 3430 5510 7530
2026-05-02 16:30 1.00 205 8090 (1991) 97 (1996) 1850 144 154 229 279 907 2740 3430 5510 7530
2026-05-02 15:30 0.97 197 8090 (1991) 97 (1996) 1850 144 154 229 279 907 2740 3430 5510 7530
2026-05-02 14:30 1.02 210 8090 (1991) 97 (1996) 1850 144 154 229 279 907 2740 3430 5510 7530
2026-05-02 13:30 1.03 213 8090 (1991) 97 (1996) 1850 144 154 229 279 907 2740 3430 5510 7530
2026-05-02 12:30 1.04 215 8090 (1991) 97 (1996) 1850 144 154 229 279 907 2740 3430 5510 7530
2026-05-02 11:30 1.07 224 8090 (1991) 97 (1996) 1850 144 154 229 279 907 2740 3430 5510 7530
2026-05-02 10:30 1.08 226 8090 (1991) 97 (1996) 1850 144 154 229 279 907 2740 3430 5510 7530
2026-05-02 09:30 1.10 232 8090 (1991) 97 (1996) 1850 144 154 229 279 907 2740 3430 5510 7530
2026-05-02 08:30 1.11 235 8090 (1991) 97 (1996) 1850 144 154 229 279 907 2740 3430 5510 7530
2026-05-02 07:30 1.13 241 8090 (1991) 97 (1996) 1850 144 154 229 279 907 2740 3430 5510 7530
2026-05-02 06:30 1.14 244 8090 (1991) 97 (1996) 1850 144 154 229 279 907 2740 3430 5510 7530
2026-05-02 05:30 1.15 247 8090 (1991) 97 (1996) 1850 144 154 229 279 907 2740 3430 5510 7530
2026-05-02 04:30 1.17 253 8090 (1991) 97 (1996) 1850 144 154 229 279 907 2740 3430 5510 7530
2026-05-02 03:30 1.19 259 8090 (1991) 97 (1996) 1850 144 154 229 279 907 2740 3430 5510 7530
2026-05-02 02:30 1.21 265 8090 (1991) 97 (1996) 1850 144 154 229 279 907 2740 3430 5510 7530
2026-05-02 01:30 1.23 271 8090 (1991) 97 (1996) 1850 144 154 229 279 907 2740 3430 5510 7530
2026-05-02 00:30 1.26 281 8090 (1991) 97 (1996) 1850 144 154 229 279 907 2740 3430 5510 7530
2026-05-01 23:30 1.28 287 8090 (1991) 97 (1996) 1850 144 154 229 279 907 2740 3430 5510 7530
2026-05-01 22:30 1.31 297 7450 (2008) 94 (2000) 1860 129 136 183 212 907 3130 3480 5710 6600
2026-05-01 21:30 1.34 307 7450 (2008) 94 (2000) 1860 129 136 183 212 907 3130 3480 5710 6600
2026-05-01 20:30 1.37 317 7450 (2008) 94 (2000) 1860 129 136 183 212 907 3130 3480 5710 6600
2026-05-01 19:30 1.41 331 7450 (2008) 94 (2000) 1860 129 136 183 212 907 3130 3480 5710 6600
2026-05-01 18:30 1.45 345 7450 (2008) 94 (2000) 1860 129 136 183 212 907 3130 3480 5710 6600
2026-05-01 17:30 1.49 360 7450 (2008) 94 (2000) 1860 129 136 183 212 907 3130 3480 5710 6600
2026-05-01 16:30 1.54 378 7450 (2008) 94 (2000) 1860 129 136 183 212 907 3130 3480 5710 6600
2026-05-01 15:30 1.60 401 7450 (2008) 94 (2000) 1860 129 136 183 212 907 3130 3480 5710 6600
2026-05-01 14:30 1.66 425 7450 (2008) 94 (2000) 1860 129 136 183 212 907 3130 3480 5710 6600
2026-05-01 13:30 1.70 442 7450 (2008) 94 (2000) 1860 129 136 183 212 907 3130 3480 5710 6600
2026-05-01 12:30 1.80 485 7450 (2008) 94 (2000) 1860 129 136 183 212 907 3130 3480 5710 6600
2026-05-01 11:30 1.87 518 7450 (2008) 94 (2000) 1860 129 136 183 212 907 3130 3480 5710 6600
2026-05-01 10:30 1.95 557 7450 (2008) 94 (2000) 1860 129 136 183 212 907 3130 3480 5710 6600
2026-05-01 09:30 2.04 604 7450 (2008) 94 (2000) 1860 129 136 183 212 907 3130 3480 5710 6600
2026-05-01 08:30 2.14 662 7450 (2008) 94 (2000) 1860 129 136 183 212 907 3130 3480 5710 6600
2026-05-01 07:30 2.24 725 7450 (2008) 94 (2000) 1860 129 136 183 212 907 3130 3480 5710 6600
2026-05-01 06:30 2.36 807 7450 (2008) 94 (2000) 1860 129 136 183 212 907 3130 3480 5710 6600
2026-05-01 05:30 2.49 903 7450 (2008) 94 (2000) 1860 129 136 183 212 907 3130 3480 5710 6600
2026-05-01 04:30 2.63 1020 7450 (2008) 94 (2000) 1860 129 136 183 212 907 3130 3480 5710 6600
2026-05-01 03:30 2.79 1150 7450 (2008) 94 (2000) 1860 129 136 183 212 907 3130 3480 5710 6600
2026-05-01 02:30 2.96 1300 7450 (2008) 94 (2000) 1860 129 136 183 212 907 3130 3480 5710 6600
2026-05-01 01:30 3.13 1460 7450 (2008) 94 (2000) 1860 129 136 183 212 907 3130 3480 5710 6600
2026-05-01 00:30 3.27 1600 7450 (2008) 94 (2000) 1860 129 136 183 212 907 3130 3480 5710 6600
2026-04-30 23:30 3.35 1680 7450 (2008) 94 (2000) 1860 129 136 183 212 907 3130 3480 5710 6600
2026-04-30 22:30 3.07 1400 7640 (2008) 98 (2000) 1870 139 155 248 325 1020 2870 3420 4970 6720
2026-04-30 21:30 2.16 674 7640 (2008) 98 (2000) 1870 139 155 248 325 1020 2870 3420 4970 6720
2026-04-30 20:30 1.46 349 7640 (2008) 98 (2000) 1870 139 155 248 325 1020 2870 3420 4970 6720
2026-04-30 19:30 1.46 349 7640 (2008) 98 (2000) 1870 139 155 248 325 1020 2870 3420 4970 6720
2026-04-30 18:30 1.50 363 7640 (2008) 98 (2000) 1870 139 155 248 325 1020 2870 3420 4970 6720
2026-04-30 17:30 1.54 378 7640 (2008) 98 (2000) 1870 139 155 248 325 1020 2870 3420 4970 6720
2026-04-30 16:30 1.58 393 7640 (2008) 98 (2000) 1870 139 155 248 325 1020 2870 3420 4970 6720
2026-04-30 15:30 1.63 413 7640 (2008) 98 (2000) 1870 139 155 248 325 1020 2870 3420 4970 6720
2026-04-30 14:30 1.68 433 7640 (2008) 98 (2000) 1870 139 155 248 325 1020 2870 3420 4970 6720
2026-04-30 13:30 1.74 459 7640 (2008) 98 (2000) 1870 139 155 248 325 1020 2870 3420 4970 6720
2026-04-30 12:30 1.81 490 7640 (2008) 98 (2000) 1870 139 155 248 325 1020 2870 3420 4970 6720
2026-04-30 11:30 1.87 518 7640 (2008) 98 (2000) 1870 139 155 248 325 1020 2870 3420 4970 6720
2026-04-30 10:30 1.95 557 7640 (2008) 98 (2000) 1870 139 155 248 325 1020 2870 3420 4970 6720
2026-04-30 09:30 2.01 588 7640 (2008) 98 (2000) 1870 139 155 248 325 1020 2870 3420 4970 6720
2026-04-30 08:30 2.11 644 7640 (2008) 98 (2000) 1870 139 155 248 325 1020 2870 3420 4970 6720
2026-04-30 07:30 2.20 699 7640 (2008) 98 (2000) 1870 139 155 248 325 1020 2870 3420 4970 6720
2026-04-30 06:30 2.30 765 7640 (2008) 98 (2000) 1870 139 155 248 325 1020 2870 3420 4970 6720
2026-04-30 05:30 2.41 843 7640 (2008) 98 (2000) 1870 139 155 248 325 1020 2870 3420 4970 6720
2026-04-30 04:30 2.54 942 7640 (2008) 98 (2000) 1870 139 155 248 325 1020 2870 3420 4970 6720
2026-04-30 03:30 2.69 1060 7640 (2008) 98 (2000) 1870 139 155 248 325 1020 2870 3420 4970 6720
2026-04-30 02:30 2.83 1180 7640 (2008) 98 (2000) 1870 139 155 248 325 1020 2870 3420 4970 6720
2026-04-30 01:30 2.98 1310 7640 (2008) 98 (2000) 1870 139 155 248 325 1020 2870 3420 4970 6720
2026-04-30 00:30 3.13 1460 7640 (2008) 98 (2000) 1870 139 155 248 325 1020 2870 3420 4970 6720
2026-04-29 23:30 3.21 1540 7640 (2008) 98 (2000) 1870 139 155 248 325 1020 2870 3420 4970 6720
2026-04-29 22:30 3.10 1430 8420 (2016) 113 (2003) 1960 150 177 219 279 1090 2770 3230 6070 6960
2026-04-29 21:30 2.61 999 8420 (2016) 113 (2003) 1960 150 177 219 279 1090 2770 3230 6070 6960
2026-04-29 20:30 2.03 599 8420 (2016) 113 (2003) 1960 150 177 219 279 1090 2770 3230 6070 6960
2026-04-29 19:30 1.99 577 8420 (2016) 113 (2003) 1960 150 177 219 279 1090 2770 3230 6070 6960
2026-04-29 18:30 2.06 615 8420 (2016) 113 (2003) 1960 150 177 219 279 1090 2770 3230 6070 6960
2026-04-29 17:30 2.14 662 8420 (2016) 113 (2003) 1960 150 177 219 279 1090 2770 3230 6070 6960
2026-04-29 16:30 2.21 705 8420 (2016) 113 (2003) 1960 150 177 219 279 1090 2770 3230 6070 6960
2026-04-29 15:30 2.30 765 8420 (2016) 113 (2003) 1960 150 177 219 279 1090 2770 3230 6070 6960
2026-04-29 14:30 2.40 836 8420 (2016) 113 (2003) 1960 150 177 219 279 1090 2770 3230 6070 6960
2026-04-29 13:30 2.50 911 8420 (2016) 113 (2003) 1960 150 177 219 279 1090 2770 3230 6070 6960
2026-04-29 12:30 2.61 999 8420 (2016) 113 (2003) 1960 150 177 219 279 1090 2770 3230 6070 6960
2026-04-29 11:30 2.73 1100 8420 (2016) 113 (2003) 1960 150 177 219 279 1090 2770 3230 6070 6960
2026-04-29 10:30 2.86 1210 8420 (2016) 113 (2003) 1960 150 177 219 279 1090 2770 3230 6070 6960
2026-04-29 09:30 3.01 1340 8420 (2016) 113 (2003) 1960 150 177 219 279 1090 2770 3230 6070 6960
2026-04-29 08:30 3.16 1490 8420 (2016) 113 (2003) 1960 150 177 219 279 1090 2770 3230 6070 6960
2026-04-29 07:30 3.32 1650 8420 (2016) 113 (2003) 1960 150 177 219 279 1090 2770 3230 6070 6960
2026-04-29 06:30 3.51 1850 8420 (2016) 113 (2003) 1960 150 177 219 279 1090 2770 3230 6070 6960
2026-04-29 05:30 3.71 2070 8420 (2016) 113 (2003) 1960 150 177 219 279 1090 2770 3230 6070 6960
2026-04-29 04:30 3.90 2280 8420 (2016) 113 (2003) 1960 150 177 219 279 1090 2770 3230 6070 6960
2026-04-29 03:30 4.11 2530 8420 (2016) 113 (2003) 1960 150 177 219 279 1090 2770 3230 6070 6960
2026-04-29 02:30 4.30 2750 8420 (2016) 113 (2003) 1960 150 177 219 279 1090 2770 3230 6070 6960
2026-04-29 01:30 4.51 3010 8420 (2016) 113 (2003) 1960 150 177 219 279 1090 2770 3230 6070 6960
2026-04-29 00:30 4.69 3250 8420 (2016) 113 (2003) 1960 150 177 219 279 1090 2770 3230 6070 6960
2026-04-28 23:30 4.86 3480 8420 (2016) 113 (2003) 1960 150 177 219 279 1090 2770 3230 6070 6960
2026-04-28 22:30 4.94 3590 8000 (2008) 116 (2003) 1900 133 174 206 265 1040 2360 3100 6640 7030
2026-04-28 21:30 4.75 3330 8000 (2008) 116 (2003) 1900 133 174 206 265 1040 2360 3100 6640 7030
2026-04-28 20:30 3.88 2260 8000 (2008) 116 (2003) 1900 133 174 206 265 1040 2360 3100 6640 7030
2026-04-28 19:30 2.53 934 8000 (2008) 116 (2003) 1900 133 174 206 265 1040 2360 3100 6640 7030
2026-04-28 18:30 1.73 454 8000 (2008) 116 (2003) 1900 133 174 206 265 1040 2360 3100 6640 7030
2026-04-28 17:30 1.66 425 8000 (2008) 116 (2003) 1900 133 174 206 265 1040 2360 3100 6640 7030
2026-04-28 16:30 1.71 446 8000 (2008) 116 (2003) 1900 133 174 206 265 1040 2360 3100 6640 7030
2026-04-28 15:30 1.75 463 8000 (2008) 116 (2003) 1900 133 174 206 265 1040 2360 3100 6640 7030
2026-04-28 14:30 1.80 485 8000 (2008) 116 (2003) 1900 133 174 206 265 1040 2360 3100 6640 7030
2026-04-28 13:30 1.88 522 8000 (2008) 116 (2003) 1900 133 174 206 265 1040 2360 3100 6640 7030
2026-04-28 12:30 1.94 552 8000 (2008) 116 (2003) 1900 133 174 206 265 1040 2360 3100 6640 7030
2026-04-28 11:30 1.98 572 8000 (2008) 116 (2003) 1900 133 174 206 265 1040 2360 3100 6640 7030
2026-04-28 10:30 2.08 627 8000 (2008) 116 (2003) 1900 133 174 206 265 1040 2360 3100 6640 7030
2026-04-28 09:30 2.18 686 8000 (2008) 116 (2003) 1900 133 174 206 265 1040 2360 3100 6640 7030
2026-04-28 08:30 2.31 772 8000 (2008) 116 (2003) 1900 133 174 206 265 1040 2360 3100 6640 7030
2026-04-28 07:30 2.44 865 8000 (2008) 116 (2003) 1900 133 174 206 265 1040 2360 3100 6640 7030
2026-04-28 06:30 2.58 974 8000 (2008) 116 (2003) 1900 133 174 206 265 1040 2360 3100 6640 7030
2026-04-28 05:30 2.74 1100 8000 (2008) 116 (2003) 1900 133 174 206 265 1040 2360 3100 6640 7030
2026-04-28 04:30 2.91 1250 8000 (2008) 116 (2003) 1900 133 174 206 265 1040 2360 3100 6640 7030
2026-04-28 03:30 3.10 1430 8000 (2008) 116 (2003) 1900 133 174 206 265 1040 2360 3100 6640 7030
2026-04-28 02:30 3.29 1620 8000 (2008) 116 (2003) 1900 133 174 206 265 1040 2360 3100 6640 7030
2026-04-28 01:30 3.52 1860 8000 (2008) 116 (2003) 1900 133 174 206 265 1040 2360 3100 6640 7030
2026-04-28 00:30 3.73 2090 8000 (2008) 116 (2003) 1900 133 174 206 265 1040 2360 3100 6640 7030
2026-04-27 23:30 3.91 2290 8000 (2008) 116 (2003) 1900 133 174 206 265 1040 2360 3100 6640 7030
2026-04-27 22:30 3.91 2290 8330 (2008) 117 (1998) 2040 125 147 227 297 930 2470 3550 6830 7870
2026-04-27 21:30 3.23 1560 8330 (2008) 117 (1998) 2040 125 147 227 297 930 2470 3550 6830 7870
2026-04-27 20:30 1.87 518 8330 (2008) 117 (1998) 2040 125 147 227 297 930 2470 3550 6830 7870
2026-04-27 19:30 1.21 265 8330 (2008) 117 (1998) 2040 125 147 227 297 930 2470 3550 6830 7870
2026-04-27 18:30 1.23 271 8330 (2008) 117 (1998) 2040 125 147 227 297 930 2470 3550 6830 7870
2026-04-27 17:30 1.25 278 8330 (2008) 117 (1998) 2040 125 147 227 297 930 2470 3550 6830 7870
2026-04-27 16:30 1.24 275 8330 (2008) 117 (1998) 2040 125 147 227 297 930 2470 3550 6830 7870
2026-04-27 15:30 1.29 290 8330 (2008) 117 (1998) 2040 125 147 227 297 930 2470 3550 6830 7870
2026-04-27 14:30 1.35 310 8330 (2008) 117 (1998) 2040 125 147 227 297 930 2470 3550 6830 7870
2026-04-27 13:30 1.37 317 8330 (2008) 117 (1998) 2040 125 147 227 297 930 2470 3550 6830 7870
2026-04-27 12:30 1.45 345 8330 (2008) 117 (1998) 2040 125 147 227 297 930 2470 3550 6830 7870
2026-04-27 11:30 1.48 356 8330 (2008) 117 (1998) 2040 125 147 227 297 930 2470 3550 6830 7870
2026-04-27 10:30 1.49 360 8330 (2008) 117 (1998) 2040 125 147 227 297 930 2470 3550 6830 7870
2026-04-27 09:30 1.60 401 8330 (2008) 117 (1998) 2040 125 147 227 297 930 2470 3550 6830 7870
2026-04-27 08:30 1.67 429 8330 (2008) 117 (1998) 2040 125 147 227 297 930 2470 3550 6830 7870
2026-04-27 07:30 1.74 459 8330 (2008) 117 (1998) 2040 125 147 227 297 930 2470 3550 6830 7870
2026-04-27 06:30 1.81 490 8330 (2008) 117 (1998) 2040 125 147 227 297 930 2470 3550 6830 7870
2026-04-27 05:30 1.89 527 8330 (2008) 117 (1998) 2040 125 147 227 297 930 2470 3550 6830 7870
2026-04-27 04:30 1.98 572 8330 (2008) 117 (1998) 2040 125 147 227 297 930 2470 3550 6830 7870
2026-04-27 03:30 2.08 627 8330 (2008) 117 (1998) 2040 125 147 227 297 930 2470 3550 6830 7870
2026-04-27 02:30 2.18 686 8330 (2008) 117 (1998) 2040 125 147 227 297 930 2470 3550 6830 7870
2026-04-27 01:30 2.28 751 8330 (2008) 117 (1998) 2040 125 147 227 297 930 2470 3550 6830 7870
2026-04-27 00:30 2.37 814 8330 (2008) 117 (1998) 2040 125 147 227 297 930 2470 3550 6830 7870
2026-04-26 23:30 2.40 836 8330 (2008) 117 (1998) 2040 125 147 227 297 930 2470 3550 6830 7870
2026-04-26 22:30 2.27 745 8500 (1991) 108 (1998) 2110 133 188 358 474 985 2660 3550 6910 7990
2026-04-26 21:30 1.87 518 8500 (1991) 108 (1998) 2110 133 188 358 474 985 2660 3550 6910 7990
2026-04-26 20:30 1.46 349 8500 (1991) 108 (1998) 2110 133 188 358 474 985 2660 3550 6910 7990
2026-04-26 19:30 1.46 349 8500 (1991) 108 (1998) 2110 133 188 358 474 985 2660 3550 6910 7990
2026-04-26 18:30 1.52 371 8500 (1991) 108 (1998) 2110 133 188 358 474 985 2660 3550 6910 7990
2026-04-26 17:30 1.56 386 8500 (1991) 108 (1998) 2110 133 188 358 474 985 2660 3550 6910 7990
2026-04-26 16:30 1.64 417 8500 (1991) 108 (1998) 2110 133 188 358 474 985 2660 3550 6910 7990
2026-04-26 15:30 1.70 442 8500 (1991) 108 (1998) 2110 133 188 358 474 985 2660 3550 6910 7990
2026-04-26 14:30 1.78 476 8500 (1991) 108 (1998) 2110 133 188 358 474 985 2660 3550 6910 7990
2026-04-26 13:30 1.85 508 8500 (1991) 108 (1998) 2110 133 188 358 474 985 2660 3550 6910 7990
2026-04-26 12:30 1.94 552 8500 (1991) 108 (1998) 2110 133 188 358 474 985 2660 3550 6910 7990
2026-04-26 11:30 2.03 599 8500 (1991) 108 (1998) 2110 133 188 358 474 985 2660 3550 6910 7990
2026-04-26 10:30 2.14 662 8500 (1991) 108 (1998) 2110 133 188 358 474 985 2660 3550 6910 7990
2026-04-26 09:30 2.25 731 8500 (1991) 108 (1998) 2110 133 188 358 474 985 2660 3550 6910 7990
2026-04-26 08:30 2.39 829 8500 (1991) 108 (1998) 2110 133 188 358 474 985 2660 3550 6910 7990
2026-04-26 07:30 2.52 926 8500 (1991) 108 (1998) 2110 133 188 358 474 985 2660 3550 6910 7990
2026-04-26 06:30 2.67 1050 8500 (1991) 108 (1998) 2110 133 188 358 474 985 2660 3550 6910 7990
2026-04-26 05:30 2.83 1180 8500 (1991) 108 (1998) 2110 133 188 358 474 985 2660 3550 6910 7990
2026-04-26 04:30 3.00 1330 8500 (1991) 108 (1998) 2110 133 188 358 474 985 2660 3550 6910 7990
2026-04-26 03:30 3.20 1530 8500 (1991) 108 (1998) 2110 133 188 358 474 985 2660 3550 6910 7990
2026-04-26 02:30 3.40 1730 8500 (1991) 108 (1998) 2110 133 188 358 474 985 2660 3550 6910 7990
2026-04-26 01:30 3.63 1980 8500 (1991) 108 (1998) 2110 133 188 358 474 985 2660 3550 6910 7990
2026-04-26 00:30 3.85 2220 8500 (1991) 108 (1998) 2110 133 188 358 474 985 2660 3550 6910 7990
2026-04-25 23:30 4.07 2480 8500 (1991) 108 (1998) 2110 133 188 358 474 985 2660 3550 6910 7990
2026-04-25 22:30 4.06 2470 8340 (2008) 108 (1998) 1990 132 179 304 359 1010 2760 4010 5880 7830
2026-04-25 21:30 3.58 1920 8340 (2008) 108 (1998) 1990 132 179 304 359 1010 2760 4010 5880 7830
2026-04-25 20:30 2.36 807 8340 (2008) 108 (1998) 1990 132 179 304 359 1010 2760 4010 5880 7830
2026-04-25 19:30 1.62 409 8340 (2008) 108 (1998) 1990 132 179 304 359 1010 2760 4010 5880 7830
2026-04-25 18:30 1.62 409 8340 (2008) 108 (1998) 1990 132 179 304 359 1010 2760 4010 5880 7830
2026-04-25 17:30 1.68 433 8340 (2008) 108 (1998) 1990 132 179 304 359 1010 2760 4010 5880 7830
2026-04-25 16:30 1.76 467 8340 (2008) 108 (1998) 1990 132 179 304 359 1010 2760 4010 5880 7830
2026-04-25 15:30 1.83 499 8340 (2008) 108 (1998) 1990 132 179 304 359 1010 2760 4010 5880 7830
2026-04-25 14:30 1.89 527 8340 (2008) 108 (1998) 1990 132 179 304 359 1010 2760 4010 5880 7830
2026-04-25 13:30 2.01 588 8340 (2008) 108 (1998) 1990 132 179 304 359 1010 2760 4010 5880 7830
2026-04-25 12:30 2.10 638 8340 (2008) 108 (1998) 1990 132 179 304 359 1010 2760 4010 5880 7830
2026-04-25 11:30 2.21 705 8340 (2008) 108 (1998) 1990 132 179 304 359 1010 2760 4010 5880 7830
2026-04-25 10:30 2.32 779 8340 (2008) 108 (1998) 1990 132 179 304 359 1010 2760 4010 5880 7830
2026-04-25 09:30 2.46 880 8340 (2008) 108 (1998) 1990 132 179 304 359 1010 2760 4010 5880 7830
2026-04-25 08:30 2.60 990 8340 (2008) 108 (1998) 1990 132 179 304 359 1010 2760 4010 5880 7830
2026-04-25 07:30 2.76 1120 8340 (2008) 108 (1998) 1990 132 179 304 359 1010 2760 4010 5880 7830
2026-04-25 06:30 2.93 1270 8340 (2008) 108 (1998) 1990 132 179 304 359 1010 2760 4010 5880 7830
2026-04-25 05:30 3.11 1440 8340 (2008) 108 (1998) 1990 132 179 304 359 1010 2760 4010 5880 7830
2026-04-25 04:30 3.31 1640 8340 (2008) 108 (1998) 1990 132 179 304 359 1010 2760 4010 5880 7830
2026-04-25 03:30 3.54 1880 8340 (2008) 108 (1998) 1990 132 179 304 359 1010 2760 4010 5880 7830
2026-04-25 02:30 3.77 2130 8340 (2008) 108 (1998) 1990 132 179 304 359 1010 2760 4010 5880 7830
2026-04-25 01:30 4.00 2400 8340 (2008) 108 (1998) 1990 132 179 304 359 1010 2760 4010 5880 7830
2026-04-25 00:30 4.24 2680 8340 (2008) 108 (1998) 1990 132 179 304 359 1010 2760 4010 5880 7830
2026-04-24 23:30 4.42 2900 8340 (2008) 108 (1998) 1990 132 179 304 359 1010 2760 4010 5880 7830
2026-04-24 22:30 4.53 3040 8400 (1991) 129 (1978) 1910 131 160 209 287 1170 2350 3070 5490 7390
2026-04-24 21:30 4.34 2800 8400 (1991) 129 (1978) 1910 131 160 209 287 1170 2350 3070 5490 7390
2026-04-24 20:30 3.41 1740 8400 (1991) 129 (1978) 1910 131 160 209 287 1170 2350 3070 5490 7390
2026-04-24 19:30 2.04 604 8400 (1991) 129 (1978) 1910 131 160 209 287 1170 2350 3070 5490 7390
2026-04-24 18:30 1.32 300 8400 (1991) 129 (1978) 1910 131 160 209 287 1170 2350 3070 5490 7390
2026-04-24 17:30 1.35 310 8400 (1991) 129 (1978) 1910 131 160 209 287 1170 2350 3070 5490 7390
2026-04-24 16:30 1.39 324 8400 (1991) 129 (1978) 1910 131 160 209 287 1170 2350 3070 5490 7390
2026-04-24 15:30 1.43 338 8400 (1991) 129 (1978) 1910 131 160 209 287 1170 2350 3070 5490 7390
2026-04-24 14:30 1.48 356 8400 (1991) 129 (1978) 1910 131 160 209 287 1170 2350 3070 5490 7390
2026-04-24 13:30 1.54 378 8400 (1991) 129 (1978) 1910 131 160 209 287 1170 2350 3070 5490 7390
2026-04-24 12:30 1.60 401 8400 (1991) 129 (1978) 1910 131 160 209 287 1170 2350 3070 5490 7390
2026-04-24 11:30 1.66 425 8400 (1991) 129 (1978) 1910 131 160 209 287 1170 2350 3070 5490 7390
2026-04-24 10:30 1.73 454 8400 (1991) 129 (1978) 1910 131 160 209 287 1170 2350 3070 5490 7390
2026-04-24 09:30 1.81 490 8400 (1991) 129 (1978) 1910 131 160 209 287 1170 2350 3070 5490 7390
2026-04-24 08:30 1.89 527 8400 (1991) 129 (1978) 1910 131 160 209 287 1170 2350 3070 5490 7390
2026-04-24 07:30 1.99 577 8400 (1991) 129 (1978) 1910 131 160 209 287 1170 2350 3070 5490 7390
2026-04-24 06:30 2.08 627 8400 (1991) 129 (1978) 1910 131 160 209 287 1170 2350 3070 5490 7390
2026-04-24 05:30 2.20 699 8400 (1991) 129 (1978) 1910 131 160 209 287 1170 2350 3070 5490 7390
2026-04-24 04:30 2.32 779 8400 (1991) 129 (1978) 1910 131 160 209 287 1170 2350 3070 5490 7390
2026-04-24 03:30 2.46 880 8400 (1991) 129 (1978) 1910 131 160 209 287 1170 2350 3070 5490 7390
2026-04-24 02:30 2.60 990 8400 (1991) 129 (1978) 1910 131 160 209 287 1170 2350 3070 5490 7390
2026-04-24 01:30 2.76 1120 8400 (1991) 129 (1978) 1910 131 160 209 287 1170 2350 3070 5490 7390
2026-04-24 00:30 2.92 1260 8400 (1991) 129 (1978) 1910 131 160 209 287 1170 2350 3070 5490 7390
2026-04-23 23:30 3.05 1380 8400 (1991) 129 (1978) 1910 131 160 209 287 1170 2350 3070 5490 7390
2026-04-23 22:30 3.01 1340 8600 (1991) 93 (2004) 2160 120 136 174 215 1750 2940 3710 6070 7310
2026-04-23 21:30 2.58 974 8600 (1991) 93 (2004) 2160 120 136 174 215 1750 2940 3710 6070 7310
2026-04-23 20:30 1.47 352 8600 (1991) 93 (2004) 2160 120 136 174 215 1750 2940 3710 6070 7310
2026-04-23 19:30 0.93 188 8600 (1991) 93 (2004) 2160 120 136 174 215 1750 2940 3710 6070 7310
2026-04-23 18:30 0.92 185 8600 (1991) 93 (2004) 2160 120 136 174 215 1750 2940 3710 6070 7310
2026-04-23 17:30 0.94 191 8600 (1991) 93 (2004) 2160 120 136 174 215 1750 2940 3710 6070 7310
2026-04-23 16:30 0.94 191 8600 (1991) 93 (2004) 2160 120 136 174 215 1750 2940 3710 6070 7310
2026-04-23 15:30 0.97 197 8600 (1991) 93 (2004) 2160 120 136 174 215 1750 2940 3710 6070 7310
2026-04-23 14:30 0.97 197 8600 (1991) 93 (2004) 2160 120 136 174 215 1750 2940 3710 6070 7310
2026-04-23 13:30 0.96 195 8600 (1991) 93 (2004) 2160 120 136 174 215 1750 2940 3710 6070 7310
2026-04-23 12:30 0.99 202 8600 (1991) 93 (2004) 2160 120 136 174 215 1750 2940 3710 6070 7310
2026-04-23 11:30 1.00 205 8600 (1991) 93 (2004) 2160 120 136 174 215 1750 2940 3710 6070 7310
2026-04-23 10:30 1.02 210 8600 (1991) 93 (2004) 2160 120 136 174 215 1750 2940 3710 6070 7310
2026-04-23 09:30 1.03 213 8600 (1991) 93 (2004) 2160 120 136 174 215 1750 2940 3710 6070 7310
2026-04-23 08:30 1.05 218 8600 (1991) 93 (2004) 2160 120 136 174 215 1750 2940 3710 6070 7310
2026-04-23 07:30 1.06 221 8600 (1991) 93 (2004) 2160 120 136 174 215 1750 2940 3710 6070 7310
2026-04-23 06:30 1.08 226 8600 (1991) 93 (2004) 2160 120 136 174 215 1750 2940 3710 6070 7310
2026-04-23 05:30 1.10 232 8600 (1991) 93 (2004) 2160 120 136 174 215 1750 2940 3710 6070 7310
2026-04-23 04:30 1.11 235 8600 (1991) 93 (2004) 2160 120 136 174 215 1750 2940 3710 6070 7310
2026-04-23 03:30 1.14 244 8600 (1991) 93 (2004) 2160 120 136 174 215 1750 2940 3710 6070 7310
2026-04-23 02:30 1.15 247 8600 (1991) 93 (2004) 2160 120 136 174 215 1750 2940 3710 6070 7310
2026-04-23 01:30 1.18 256 8600 (1991) 93 (2004) 2160 120 136 174 215 1750 2940 3710 6070 7310
2026-04-23 00:30 1.20 262 8600 (1991) 93 (2004) 2160 120 136 174 215 1750 2940 3710 6070 7310
2026-04-22 23:30 1.23 271 8600 (1991) 93 (2004) 2160 120 136 174 215 1750 2940 3710 6070 7310
2026-04-22 22:30 1.26 281 8500 (1991) 96 (2004) 1870 118 148 238 303 967 2860 3330 5800 7470
2026-04-22 21:30 1.29 290 8500 (1991) 96 (2004) 1870 118 148 238 303 967 2860 3330 5800 7470
2026-04-22 20:30 1.33 303 8500 (1991) 96 (2004) 1870 118 148 238 303 967 2860 3330 5800 7470
2026-04-22 19:30 1.37 317 8500 (1991) 96 (2004) 1870 118 148 238 303 967 2860 3330 5800 7470
2026-04-22 18:30 1.42 334 8500 (1991) 96 (2004) 1870 118 148 238 303 967 2860 3330 5800 7470
2026-04-22 17:30 1.47 352 8500 (1991) 96 (2004) 1870 118 148 238 303 967 2860 3330 5800 7470
2026-04-22 16:30 1.52 371 8500 (1991) 96 (2004) 1870 118 148 238 303 967 2860 3330 5800 7470
2026-04-22 15:30 1.58 393 8500 (1991) 96 (2004) 1870 118 148 238 303 967 2860 3330 5800 7470
2026-04-22 14:30 1.64 417 8500 (1991) 96 (2004) 1870 118 148 238 303 967 2860 3330 5800 7470
2026-04-22 13:30 1.71 446 8500 (1991) 96 (2004) 1870 118 148 238 303 967 2860 3330 5800 7470
2026-04-22 12:30 1.79 481 8500 (1991) 96 (2004) 1870 118 148 238 303 967 2860 3330 5800 7470
2026-04-22 11:30 1.87 518 8500 (1991) 96 (2004) 1870 118 148 238 303 967 2860 3330 5800 7470
2026-04-22 10:30 1.97 567 8500 (1991) 96 (2004) 1870 118 148 238 303 967 2860 3330 5800 7470
2026-04-22 09:30 2.07 621 8500 (1991) 96 (2004) 1870 118 148 238 303 967 2860 3330 5800 7470
2026-04-22 08:30 2.17 680 8500 (1991) 96 (2004) 1870 118 148 238 303 967 2860 3330 5800 7470
2026-04-22 07:30 2.29 758 8500 (1991) 96 (2004) 1870 118 148 238 303 967 2860 3330 5800 7470
2026-04-22 06:30 2.42 850 8500 (1991) 96 (2004) 1870 118 148 238 303 967 2860 3330 5800 7470
2026-04-22 05:30 2.57 966 8500 (1991) 96 (2004) 1870 118 148 238 303 967 2860 3330 5800 7470
2026-04-22 04:30 2.73 1100 8500 (1991) 96 (2004) 1870 118 148 238 303 967 2860 3330 5800 7470
2026-04-22 03:30 2.90 1240 8500 (1991) 96 (2004) 1870 118 148 238 303 967 2860 3330 5800 7470
2026-04-22 02:30 3.08 1410 8500 (1991) 96 (2004) 1870 118 148 238 303 967 2860 3330 5800 7470
2026-04-22 01:30 3.28 1610 8500 (1991) 96 (2004) 1870 118 148 238 303 967 2860 3330 5800 7470
2026-04-22 00:30 3.47 1800 8500 (1991) 96 (2004) 1870 118 148 238 303 967 2860 3330 5800 7470
2026-04-21 23:30 3.59 1930 8500 (1991) 96 (2004) 1870 118 148 238 303 967 2860 3330 5800 7470
2026-04-21 22:30 3.45 1780 8160 (2008) 82 (2004) 1710 119 162 309 354 886 2340 2760 4570 7450
2026-04-21 21:30 2.59 982 8160 (2008) 82 (2004) 1710 119 162 309 354 886 2340 2760 4570 7450
2026-04-21 20:30 1.46 349 8160 (2008) 82 (2004) 1710 119 162 309 354 886 2340 2760 4570 7450
2026-04-21 19:30 1.24 275 8160 (2008) 82 (2004) 1710 119 162 309 354 886 2340 2760 4570 7450
2026-04-21 18:30 1.27 284 8160 (2008) 82 (2004) 1710 119 162 309 354 886 2340 2760 4570 7450
2026-04-21 17:30 1.29 290 8160 (2008) 82 (2004) 1710 119 162 309 354 886 2340 2760 4570 7450
2026-04-21 16:30 1.34 307 8160 (2008) 82 (2004) 1710 119 162 309 354 886 2340 2760 4570 7450
2026-04-21 15:30 1.38 320 8160 (2008) 82 (2004) 1710 119 162 309 354 886 2340 2760 4570 7450
2026-04-21 14:30 1.40 327 8160 (2008) 82 (2004) 1710 119 162 309 354 886 2340 2760 4570 7450
2026-04-21 13:30 1.47 352 8160 (2008) 82 (2004) 1710 119 162 309 354 886 2340 2760 4570 7450
2026-04-21 12:30 1.51 367 8160 (2008) 82 (2004) 1710 119 162 309 354 886 2340 2760 4570 7450
2026-04-21 11:30 1.58 393 8160 (2008) 82 (2004) 1710 119 162 309 354 886 2340 2760 4570 7450
2026-04-21 10:30 1.64 417 8160 (2008) 82 (2004) 1710 119 162 309 354 886 2340 2760 4570 7450
2026-04-21 09:30 1.71 446 8160 (2008) 82 (2004) 1710 119 162 309 354 886 2340 2760 4570 7450
2026-04-21 08:30 1.79 481 8160 (2008) 82 (2004) 1710 119 162 309 354 886 2340 2760 4570 7450
2026-04-21 07:30 1.87 518 8160 (2008) 82 (2004) 1710 119 162 309 354 886 2340 2760 4570 7450
2026-04-21 06:30 1.95 557 8160 (2008) 82 (2004) 1710 119 162 309 354 886 2340 2760 4570 7450
2026-04-21 05:30 2.05 610 8160 (2008) 82 (2004) 1710 119 162 309 354 886 2340 2760 4570 7450
2026-04-21 04:30 2.16 674 8160 (2008) 82 (2004) 1710 119 162 309 354 886 2340 2760 4570 7450
2026-04-21 03:30 2.28 751 8160 (2008) 82 (2004) 1710 119 162 309 354 886 2340 2760 4570 7450
2026-04-21 02:30 2.40 836 8160 (2008) 82 (2004) 1710 119 162 309 354 886 2340 2760 4570 7450
2026-04-21 01:30 2.51 919 8160 (2008) 82 (2004) 1710 119 162 309 354 886 2340 2760 4570 7450
2026-04-21 00:30 2.58 974 8160 (2008) 82 (2004) 1710 119 162 309 354 886 2340 2760 4570 7450
2026-04-20 23:30 2.49 903 8160 (2008) 82 (2004) 1710 119 162 309 354 886 2340 2760 4570 7450
2026-04-20 22:30 2.06 615 8150 (2008) 78 (2004) 1890 99 138 209 229 1020 2700 3430 6050 7330
2026-04-20 21:30 1.26 281 8150 (2008) 78 (2004) 1890 99 138 209 229 1020 2700 3430 6050 7330
2026-04-20 20:30 0.88 174 8150 (2008) 78 (2004) 1890 99 138 209 229 1020 2700 3430 6050 7330
2026-04-20 19:30 0.88 174 8150 (2008) 78 (2004) 1890 99 138 209 229 1020 2700 3430 6050 7330
2026-04-20 18:30 0.90 180 8150 (2008) 78 (2004) 1890 99 138 209 229 1020 2700 3430 6050 7330
2026-04-20 17:30 0.91 182 8150 (2008) 78 (2004) 1890 99 138 209 229 1020 2700 3430 6050 7330
2026-04-20 16:30 0.92 185 8150 (2008) 78 (2004) 1890 99 138 209 229 1020 2700 3430 6050 7330
2026-04-20 15:30 0.88 174 8150 (2008) 78 (2004) 1890 99 138 209 229 1020 2700 3430 6050 7330
2026-04-20 14:30 0.94 191 8150 (2008) 78 (2004) 1890 99 138 209 229 1020 2700 3430 6050 7330
2026-04-20 13:30 0.94 191 8150 (2008) 78 (2004) 1890 99 138 209 229 1020 2700 3430 6050 7330
2026-04-20 12:30 0.95 193 8150 (2008) 78 (2004) 1890 99 138 209 229 1020 2700 3430 6050 7330
2026-04-20 11:30 0.96 195 8150 (2008) 78 (2004) 1890 99 138 209 229 1020 2700 3430 6050 7330
2026-04-20 10:30 0.97 197 8150 (2008) 78 (2004) 1890 99 138 209 229 1020 2700 3430 6050 7330
2026-04-20 09:30 0.97 197 8150 (2008) 78 (2004) 1890 99 138 209 229 1020 2700 3430 6050 7330
2026-04-20 08:30 0.98 200 8150 (2008) 78 (2004) 1890 99 138 209 229 1020 2700 3430 6050 7330
2026-04-20 07:30 0.98 200 8150 (2008) 78 (2004) 1890 99 138 209 229 1020 2700 3430 6050 7330
2026-04-20 06:30 0.99 202 8150 (2008) 78 (2004) 1890 99 138 209 229 1020 2700 3430 6050 7330
2026-04-20 05:30 1.00 205 8150 (2008) 78 (2004) 1890 99 138 209 229 1020 2700 3430 6050 7330
2026-04-20 04:30 1.01 207 8150 (2008) 78 (2004) 1890 99 138 209 229 1020 2700 3430 6050 7330
2026-04-20 03:30 1.02 210 8150 (2008) 78 (2004) 1890 99 138 209 229 1020 2700 3430 6050 7330
2026-04-20 02:30 1.04 215 8150 (2008) 78 (2004) 1890 99 138 209 229 1020 2700 3430 6050 7330
2026-04-20 01:30 1.05 218 8150 (2008) 78 (2004) 1890 99 138 209 229 1020 2700 3430 6050 7330
2026-04-20 00:30 1.07 224 8150 (2008) 78 (2004) 1890 99 138 209 229 1020 2700 3430 6050 7330
2026-04-19 23:30 1.08 226 8150 (2008) 78 (2004) 1890 99 138 209 229 1020 2700 3430 6050 7330
2026-04-19 22:30 1.10 232 8140 (2008) 69 (2004) 1870 102 137 215 329 1170 3020 3120 4450 7320
2026-04-19 21:30 1.12 238 8140 (2008) 69 (2004) 1870 102 137 215 329 1170 3020 3120 4450 7320
2026-04-19 20:30 1.14 244 8140 (2008) 69 (2004) 1870 102 137 215 329 1170 3020 3120 4450 7320
2026-04-19 19:30 1.16 250 8140 (2008) 69 (2004) 1870 102 137 215 329 1170 3020 3120 4450 7320
2026-04-19 18:30 1.19 259 8140 (2008) 69 (2004) 1870 102 137 215 329 1170 3020 3120 4450 7320
2026-04-19 17:30 1.23 271 8140 (2008) 69 (2004) 1870 102 137 215 329 1170 3020 3120 4450 7320
2026-04-19 16:30 1.26 281 8140 (2008) 69 (2004) 1870 102 137 215 329 1170 3020 3120 4450 7320
2026-04-19 15:30 1.29 290 8140 (2008) 69 (2004) 1870 102 137 215 329 1170 3020 3120 4450 7320
2026-04-19 14:30 1.33 303 8140 (2008) 69 (2004) 1870 102 137 215 329 1170 3020 3120 4450 7320
2026-04-19 13:30 1.37 317 8140 (2008) 69 (2004) 1870 102 137 215 329 1170 3020 3120 4450 7320
2026-04-19 12:30 1.42 334 8140 (2008) 69 (2004) 1870 102 137 215 329 1170 3020 3120 4450 7320
2026-04-19 11:30 1.47 352 8140 (2008) 69 (2004) 1870 102 137 215 329 1170 3020 3120 4450 7320
2026-04-19 10:30 1.52 371 8140 (2008) 69 (2004) 1870 102 137 215 329 1170 3020 3120 4450 7320
2026-04-19 09:30 1.58 393 8140 (2008) 69 (2004) 1870 102 137 215 329 1170 3020 3120 4450 7320
2026-04-19 08:30 1.63 413 8140 (2008) 69 (2004) 1870 102 137 215 329 1170 3020 3120 4450 7320
2026-04-19 07:30 1.70 442 8140 (2008) 69 (2004) 1870 102 137 215 329 1170 3020 3120 4450 7320
2026-04-19 06:30 1.77 472 8140 (2008) 69 (2004) 1870 102 137 215 329 1170 3020 3120 4450 7320
2026-04-19 05:30 1.84 503 8140 (2008) 69 (2004) 1870 102 137 215 329 1170 3020 3120 4450 7320
2026-04-19 04:30 1.93 547 8140 (2008) 69 (2004) 1870 102 137 215 329 1170 3020 3120 4450 7320
2026-04-19 03:30 2.01 588 8140 (2008) 69 (2004) 1870 102 137 215 329 1170 3020 3120 4450 7320
2026-04-19 02:30 2.08 627 8140 (2008) 69 (2004) 1870 102 137 215 329 1170 3020 3120 4450 7320
2026-04-19 01:30 2.12 650 8140 (2008) 69 (2004) 1870 102 137 215 329 1170 3020 3120 4450 7320
2026-04-19 00:30 2.06 615 8140 (2008) 69 (2004) 1870 102 137 215 329 1170 3020 3120 4450 7320
2026-04-18 23:30 1.81 490 8140 (2008) 69 (2004) 1870 102 137 215 329 1170 3020 3120 4450 7320
2026-04-18 22:30 1.31 297 8140 (2008) 72 (2004) 2060 117 138 200 290 1350 2880 3440 6020 7340
2026-04-18 21:30 0.99 202 8140 (2008) 72 (2004) 2060 117 138 200 290 1350 2880 3440 6020 7340
2026-04-18 20:30 0.99 202 8140 (2008) 72 (2004) 2060 117 138 200 290 1350 2880 3440 6020 7340
2026-04-18 19:30 1.00 205 8140 (2008) 72 (2004) 2060 117 138 200 290 1350 2880 3440 6020 7340
2026-04-18 18:30 1.01 207 8140 (2008) 72 (2004) 2060 117 138 200 290 1350 2880 3440 6020 7340
2026-04-18 17:30 1.02 210 8140 (2008) 72 (2004) 2060 117 138 200 290 1350 2880 3440 6020 7340
2026-04-18 16:30 1.03 213 8140 (2008) 72 (2004) 2060 117 138 200 290 1350 2880 3440 6020 7340
2026-04-18 15:30 1.03 213 8140 (2008) 72 (2004) 2060 117 138 200 290 1350 2880 3440 6020 7340
2026-04-18 14:30 1.04 215 8140 (2008) 72 (2004) 2060 117 138 200 290 1350 2880 3440 6020 7340
2026-04-18 13:30 1.05 218 8140 (2008) 72 (2004) 2060 117 138 200 290 1350 2880 3440 6020 7340
2026-04-18 12:30 1.05 218 8140 (2008) 72 (2004) 2060 117 138 200 290 1350 2880 3440 6020 7340
2026-04-18 11:30 1.06 221 8140 (2008) 72 (2004) 2060 117 138 200 290 1350 2880 3440 6020 7340
2026-04-18 10:30 1.07 224 8140 (2008) 72 (2004) 2060 117 138 200 290 1350 2880 3440 6020 7340
2026-04-18 09:30 1.08 226 8140 (2008) 72 (2004) 2060 117 138 200 290 1350 2880 3440 6020 7340
2026-04-18 08:30 1.10 232 8140 (2008) 72 (2004) 2060 117 138 200 290 1350 2880 3440 6020 7340
2026-04-18 07:30 1.10 232 8140 (2008) 72 (2004) 2060 117 138 200 290 1350 2880 3440 6020 7340
2026-04-18 06:30 1.12 238 8140 (2008) 72 (2004) 2060 117 138 200 290 1350 2880 3440 6020 7340
2026-04-18 05:30 1.13 241 8140 (2008) 72 (2004) 2060 117 138 200 290 1350 2880 3440 6020 7340
2026-04-18 04:30 1.13 241 8140 (2008) 72 (2004) 2060 117 138 200 290 1350 2880 3440 6020 7340
2026-04-18 03:30 1.15 247 8140 (2008) 72 (2004) 2060 117 138 200 290 1350 2880 3440 6020 7340
2026-04-18 02:30 1.17 253 8140 (2008) 72 (2004) 2060 117 138 200 290 1350 2880 3440 6020 7340
2026-04-18 01:30 1.19 259 8140 (2008) 72 (2004) 2060 117 138 200 290 1350 2880 3440 6020 7340
2026-04-18 00:30 1.21 265 8140 (2008) 72 (2004) 2060 117 138 200 290 1350 2880 3440 6020 7340
2026-04-17 23:30 1.24 275 8140 (2008) 72 (2004) 2060 117 138 200 290 1350 2880 3440 6020 7340
2026-04-17 22:30 1.27 284 8100 (2008) 77 (2004) 2210 104 143 217 256 1110 3430 4320 7150 7520
2026-04-17 21:30 1.29 290 8100 (2008) 77 (2004) 2210 104 143 217 256 1110 3430 4320 7150 7520
2026-04-17 20:30 1.33 303 8100 (2008) 77 (2004) 2210 104 143 217 256 1110 3430 4320 7150 7520
2026-04-17 19:30 1.36 313 8100 (2008) 77 (2004) 2210 104 143 217 256 1110 3430 4320 7150 7520
2026-04-17 18:30 1.41 331 8100 (2008) 77 (2004) 2210 104 143 217 256 1110 3430 4320 7150 7520
2026-04-17 17:30 1.43 338 8100 (2008) 77 (2004) 2210 104 143 217 256 1110 3430 4320 7150 7520
2026-04-17 16:30 1.48 356 8100 (2008) 77 (2004) 2210 104 143 217 256 1110 3430 4320 7150 7520
2026-04-17 15:30 1.53 374 8100 (2008) 77 (2004) 2210 104 143 217 256 1110 3430 4320 7150 7520
2026-04-17 14:30 1.56 386 8100 (2008) 77 (2004) 2210 104 143 217 256 1110 3430 4320 7150 7520
2026-04-17 13:30 1.58 393 8100 (2008) 77 (2004) 2210 104 143 217 256 1110 3430 4320 7150 7520
2026-04-17 12:30 1.68 433 8100 (2008) 77 (2004) 2210 104 143 217 256 1110 3430 4320 7150 7520
2026-04-17 11:30 1.80 485 8100 (2008) 77 (2004) 2210 104 143 217 256 1110 3430 4320 7150 7520
2026-04-17 10:30 1.88 522 8100 (2008) 77 (2004) 2210 104 143 217 256 1110 3430 4320 7150 7520
2026-04-17 09:30 1.97 567 8100 (2008) 77 (2004) 2210 104 143 217 256 1110 3430 4320 7150 7520
2026-04-17 08:30 2.05 610 8100 (2008) 77 (2004) 2210 104 143 217 256 1110 3430 4320 7150 7520
2026-04-17 07:30 2.16 674 8100 (2008) 77 (2004) 2210 104 143 217 256 1110 3430 4320 7150 7520
2026-04-17 06:30 2.27 745 8100 (2008) 77 (2004) 2210 104 143 217 256 1110 3430 4320 7150 7520
2026-04-17 05:30 2.39 829 8100 (2008) 77 (2004) 2210 104 143 217 256 1110 3430 4320 7150 7520
2026-04-17 04:30 2.52 926 8100 (2008) 77 (2004) 2210 104 143 217 256 1110 3430 4320 7150 7520
2026-04-17 03:30 2.67 1050 8100 (2008) 77 (2004) 2210 104 143 217 256 1110 3430 4320 7150 7520
2026-04-17 02:30 2.83 1180 8100 (2008) 77 (2004) 2210 104 143 217 256 1110 3430 4320 7150 7520
2026-04-17 01:30 3.00 1330 8100 (2008) 77 (2004) 2210 104 143 217 256 1110 3430 4320 7150 7520
2026-04-17 00:30 3.18 1510 8100 (2008) 77 (2004) 2210 104 143 217 256 1110 3430 4320 7150 7520
2026-04-16 23:30 3.34 1670 8100 (2008) 77 (2004) 2210 104 143 217 256 1110 3430 4320 7150 7520
2026-04-16 22:30 3.46 1790 8070 (2008) 80 (2004) 2140 106 132 225 348 1060 3160 3850 7110 7320
2026-04-16 21:30 3.27 1600 8070 (2008) 80 (2004) 2140 106 132 225 348 1060 3160 3850 7110 7320
2026-04-16 20:30 2.49 903 8070 (2008) 80 (2004) 2140 106 132 225 348 1060 3160 3850 7110 7320
2026-04-16 19:30 1.74 459 8070 (2008) 80 (2004) 2140 106 132 225 348 1060 3160 3850 7110 7320
2026-04-16 18:30 1.71 446 8070 (2008) 80 (2004) 2140 106 132 225 348 1060 3160 3850 7110 7320
2026-04-16 17:30 1.78 476 8070 (2008) 80 (2004) 2140 106 132 225 348 1060 3160 3850 7110 7320
2026-04-16 16:30 1.85 508 8070 (2008) 80 (2004) 2140 106 132 225 348 1060 3160 3850 7110 7320
2026-04-16 15:30 1.89 527 8070 (2008) 80 (2004) 2140 106 132 225 348 1060 3160 3850 7110 7320
2026-04-16 14:30 1.97 567 8070 (2008) 80 (2004) 2140 106 132 225 348 1060 3160 3850 7110 7320
2026-04-16 13:30 2.04 604 8070 (2008) 80 (2004) 2140 106 132 225 348 1060 3160 3850 7110 7320
2026-04-16 12:30 2.11 644 8070 (2008) 80 (2004) 2140 106 132 225 348 1060 3160 3850 7110 7320
2026-04-16 11:30 2.18 686 8070 (2008) 80 (2004) 2140 106 132 225 348 1060 3160 3850 7110 7320
2026-04-16 10:30 2.26 738 8070 (2008) 80 (2004) 2140 106 132 225 348 1060 3160 3850 7110 7320
2026-04-16 09:30 2.37 814 8070 (2008) 80 (2004) 2140 106 132 225 348 1060 3160 3850 7110 7320
2026-04-16 08:30 2.48 895 8070 (2008) 80 (2004) 2140 106 132 225 348 1060 3160 3850 7110 7320
2026-04-16 07:30 2.60 990 8070 (2008) 80 (2004) 2140 106 132 225 348 1060 3160 3850 7110 7320
2026-04-16 06:30 2.73 1100 8070 (2008) 80 (2004) 2140 106 132 225 348 1060 3160 3850 7110 7320
2026-04-16 05:30 2.86 1210 8070 (2008) 80 (2004) 2140 106 132 225 348 1060 3160 3850 7110 7320
2026-04-16 04:30 3.02 1350 8070 (2008) 80 (2004) 2140 106 132 225 348 1060 3160 3850 7110 7320
2026-04-16 03:30 3.17 1500 8070 (2008) 80 (2004) 2140 106 132 225 348 1060 3160 3850 7110 7320
2026-04-16 02:30 3.35 1680 8070 (2008) 80 (2004) 2140 106 132 225 348 1060 3160 3850 7110 7320
2026-04-16 01:30 3.57 1910 8070 (2008) 80 (2004) 2140 106 132 225 348 1060 3160 3850 7110 7320
2026-04-16 00:30 3.77 2130 8070 (2008) 80 (2004) 2140 106 132 225 348 1060 3160 3850 7110 7320
2026-04-15 23:00 3.89 2270 8070 (2008) 80 (2004) 2140 106 132 225 348 1060 3160 3850 7110 7320
2026-04-15 22:30 3.82 2190 8060 (2008) 86 (2004) 2100 128 165 268 352 1160 3450 3880 6510 7190
2026-04-15 21:30 3.16 1490 8060 (2008) 86 (2004) 2100 128 165 268 352 1160 3450 3880 6510 7190
2026-04-15 20:30 1.80 485 8060 (2008) 86 (2004) 2100 128 165 268 352 1160 3450 3880 6510 7190
2026-04-15 19:30 1.15 247 8060 (2008) 86 (2004) 2100 128 165 268 352 1160 3450 3880 6510 7190
2026-04-15 18:30 1.16 250 8060 (2008) 86 (2004) 2100 128 165 268 352 1160 3450 3880 6510 7190
2026-04-15 17:30 1.19 259 8060 (2008) 86 (2004) 2100 128 165 268 352 1160 3450 3880 6510 7190
2026-04-15 16:30 1.21 265 8060 (2008) 86 (2004) 2100 128 165 268 352 1160 3450 3880 6510 7190
2026-04-15 15:30 1.25 278 8060 (2008) 86 (2004) 2100 128 165 268 352 1160 3450 3880 6510 7190
2026-04-15 14:30 1.27 284 8060 (2008) 86 (2004) 2100 128 165 268 352 1160 3450 3880 6510 7190
2026-04-15 13:30 1.33 303 8060 (2008) 86 (2004) 2100 128 165 268 352 1160 3450 3880 6510 7190
2026-04-15 12:30 1.36 313 8060 (2008) 86 (2004) 2100 128 165 268 352 1160 3450 3880 6510 7190
2026-04-15 11:30 1.41 331 8060 (2008) 86 (2004) 2100 128 165 268 352 1160 3450 3880 6510 7190
2026-04-15 10:30 1.46 349 8060 (2008) 86 (2004) 2100 128 165 268 352 1160 3450 3880 6510 7190
2026-04-15 09:30 1.49 360 8060 (2008) 86 (2004) 2100 128 165 268 352 1160 3450 3880 6510 7190
2026-04-15 08:30 1.56 386 8060 (2008) 86 (2004) 2100 128 165 268 352 1160 3450 3880 6510 7190
2026-04-15 07:30 1.63 413 8060 (2008) 86 (2004) 2100 128 165 268 352 1160 3450 3880 6510 7190
2026-04-15 06:30 1.70 442 8060 (2008) 86 (2004) 2100 128 165 268 352 1160 3450 3880 6510 7190
2026-04-15 05:30 1.78 476 8060 (2008) 86 (2004) 2100 128 165 268 352 1160 3450 3880 6510 7190
2026-04-15 04:30 1.86 513 8060 (2008) 86 (2004) 2100 128 165 268 352 1160 3450 3880 6510 7190
2026-04-15 03:30 1.95 557 8060 (2008) 86 (2004) 2100 128 165 268 352 1160 3450 3880 6510 7190
2026-04-15 02:30 2.05 610 8060 (2008) 86 (2004) 2100 128 165 268 352 1160 3450 3880 6510 7190
2026-04-15 01:30 2.15 668 8060 (2008) 86 (2004) 2100 128 165 268 352 1160 3450 3880 6510 7190
2026-04-15 00:30 2.25 731 8060 (2008) 86 (2004) 2100 128 165 268 352 1160 3450 3880 6510 7190
2026-04-14 23:30 2.35 800 8060 (2008) 86 (2004) 2100 128 165 268 352 1160 3450 3880 6510 7190
2026-04-14 22:30 2.37 814 7680 (2008) 102 (2004) 2060 126 150 376 542 1280 2790 3310 6580 7200
2026-04-14 21:30 2.27 745 7680 (2008) 102 (2004) 2060 126 150 376 542 1280 2790 3310 6580 7200
2026-04-14 20:30 1.88 522 7680 (2008) 102 (2004) 2060 126 150 376 542 1280 2790 3310 6580 7200
2026-04-14 19:30 1.47 352 7680 (2008) 102 (2004) 2060 126 150 376 542 1280 2790 3310 6580 7200
2026-04-14 18:30 1.48 356 7680 (2008) 102 (2004) 2060 126 150 376 542 1280 2790 3310 6580 7200
2026-04-14 17:30 1.53 374 7680 (2008) 102 (2004) 2060 126 150 376 542 1280 2790 3310 6580 7200
2026-04-14 16:30 1.60 401 7680 (2008) 102 (2004) 2060 126 150 376 542 1280 2790 3310 6580 7200
2026-04-14 15:30 1.65 421 7680 (2008) 102 (2004) 2060 126 150 376 542 1280 2790 3310 6580 7200
2026-04-14 14:30 1.75 463 7680 (2008) 102 (2004) 2060 126 150 376 542 1280 2790 3310 6580 7200
2026-04-14 13:30 1.81 490 7680 (2008) 102 (2004) 2060 126 150 376 542 1280 2790 3310 6580 7200
2026-04-14 12:30 1.87 518 7680 (2008) 102 (2004) 2060 126 150 376 542 1280 2790 3310 6580 7200
2026-04-14 11:30 2.00 582 7680 (2008) 102 (2004) 2060 126 150 376 542 1280 2790 3310 6580 7200
2026-04-14 09:30 2.22 712 7680 (2008) 102 (2004) 2060 126 150 376 542 1280 2790 3310 6580 7200
2026-04-14 08:30 2.35 800 7680 (2008) 102 (2004) 2060 126 150 376 542 1280 2790 3310 6580 7200
2026-04-14 07:30 2.49 903 7680 (2008) 102 (2004) 2060 126 150 376 542 1280 2790 3310 6580 7200
2026-04-14 06:30 2.64 1020 7680 (2008) 102 (2004) 2060 126 150 376 542 1280 2790 3310 6580 7200
2026-04-14 05:30 2.81 1160 7680 (2008) 102 (2004) 2060 126 150 376 542 1280 2790 3310 6580 7200
2026-04-14 04:30 2.99 1320 7680 (2008) 102 (2004) 2060 126 150 376 542 1280 2790 3310 6580 7200
2026-04-14 03:30 3.18 1510 7680 (2008) 102 (2004) 2060 126 150 376 542 1280 2790 3310 6580 7200
2026-04-14 02:30 3.39 1720 7680 (2008) 102 (2004) 2060 126 150 376 542 1280 2790 3310 6580 7200
2026-04-14 01:30 3.61 1960 7680 (2008) 102 (2004) 2060 126 150 376 542 1280 2790 3310 6580 7200
2026-04-14 00:30 3.82 2190 7680 (2008) 102 (2004) 2060 126 150 376 542 1280 2790 3310 6580 7200
2026-04-13 23:30 4.03 2440 7680 (2008) 102 (2004) 2060 126 150 376 542 1280 2790 3310 6580 7200
2026-04-13 22:30 4.07 2480 7440 (1977) 113 (1981) 1930 131 209 327 361 1180 2690 3380 5370 7160
2026-04-13 21:30 3.56 1900 7440 (1977) 113 (1981) 1930 131 209 327 361 1180 2690 3380 5370 7160
2026-04-13 20:30 2.13 656 7440 (1977) 113 (1981) 1930 131 209 327 361 1180 2690 3380 5370 7160
2026-04-13 19:30 0.98 200 7440 (1977) 113 (1981) 1930 131 209 327 361 1180 2690 3380 5370 7160
2026-04-13 18:30 0.86 168 7440 (1977) 113 (1981) 1930 131 209 327 361 1180 2690 3380 5370 7160
2026-04-13 17:30 0.81 156 7440 (1977) 113 (1981) 1930 131 209 327 361 1180 2690 3380 5370 7160
2026-04-13 16:30 0.86 168 7440 (1977) 113 (1981) 1930 131 209 327 361 1180 2690 3380 5370 7160
2026-04-13 15:30 0.87 171 7440 (1977) 113 (1981) 1930 131 209 327 361 1180 2690 3380 5370 7160
2026-04-13 14:30 0.89 177 7440 (1977) 113 (1981) 1930 131 209 327 361 1180 2690 3380 5370 7160
2026-04-13 13:30 0.89 177 7440 (1977) 113 (1981) 1930 131 209 327 361 1180 2690 3380 5370 7160
2026-04-13 12:30 0.90 180 7440 (1977) 113 (1981) 1930 131 209 327 361 1180 2690 3380 5370 7160
2026-04-13 11:30 0.91 182 7440 (1977) 113 (1981) 1930 131 209 327 361 1180 2690 3380 5370 7160
2026-04-13 10:30 0.91 182 7440 (1977) 113 (1981) 1930 131 209 327 361 1180 2690 3380 5370 7160
2026-04-13 09:30 0.92 185 7440 (1977) 113 (1981) 1930 131 209 327 361 1180 2690 3380 5370 7160
2026-04-13 08:30 0.92 185 7440 (1977) 113 (1981) 1930 131 209 327 361 1180 2690 3380 5370 7160
2026-04-13 07:30 0.93 188 7440 (1977) 113 (1981) 1930 131 209 327 361 1180 2690 3380 5370 7160
2026-04-13 06:30 0.94 191 7440 (1977) 113 (1981) 1930 131 209 327 361 1180 2690 3380 5370 7160
2026-04-13 05:30 0.95 193 7440 (1977) 113 (1981) 1930 131 209 327 361 1180 2690 3380 5370 7160
2026-04-13 04:30 0.96 195 7440 (1977) 113 (1981) 1930 131 209 327 361 1180 2690 3380 5370 7160
2026-04-13 03:30 0.97 197 7440 (1977) 113 (1981) 1930 131 209 327 361 1180 2690 3380 5370 7160
2026-04-13 02:30 0.99 202 7440 (1977) 113 (1981) 1930 131 209 327 361 1180 2690 3380 5370 7160
2026-04-13 01:30 1.00 205 7440 (1977) 113 (1981) 1930 131 209 327 361 1180 2690 3380 5370 7160
2026-04-13 00:30 1.01 207 7440 (1977) 113 (1981) 1930 131 209 327 361 1180 2690 3380 5370 7160
2026-04-12 23:30 1.02 210 7440 (1977) 113 (1981) 1930 131 209 327 361 1180 2690 3380 5370 7160
2026-04-12 22:30 1.04 215 7680 (2020) 82 (2004) 1950 127 154 220 334 876 2950 3620 6400 7450
2026-04-12 21:30 1.05 218 7680 (2020) 82 (2004) 1950 127 154 220 334 876 2950 3620 6400 7450
2026-04-12 20:30 1.07 224 7680 (2020) 82 (2004) 1950 127 154 220 334 876 2950 3620 6400 7450
2026-04-12 19:30 1.09 229 7680 (2020) 82 (2004) 1950 127 154 220 334 876 2950 3620 6400 7450
2026-04-12 18:30 1.11 235 7680 (2020) 82 (2004) 1950 127 154 220 334 876 2950 3620 6400 7450
2026-04-12 17:30 1.12 238 7680 (2020) 82 (2004) 1950 127 154 220 334 876 2950 3620 6400 7450
2026-04-12 16:30 1.16 250 7680 (2020) 82 (2004) 1950 127 154 220 334 876 2950 3620 6400 7450
2026-04-12 15:30 1.18 256 7680 (2020) 82 (2004) 1950 127 154 220 334 876 2950 3620 6400 7450
2026-04-12 14:30 1.22 268 7680 (2020) 82 (2004) 1950 127 154 220 334 876 2950 3620 6400 7450
2026-04-12 13:30 1.24 275 7680 (2020) 82 (2004) 1950 127 154 220 334 876 2950 3620 6400 7450
2026-04-12 12:30 1.28 287 7680 (2020) 82 (2004) 1950 127 154 220 334 876 2950 3620 6400 7450
2026-04-12 11:30 1.27 284 7680 (2020) 82 (2004) 1950 127 154 220 334 876 2950 3620 6400 7450
2026-04-12 10:30 1.31 297 7680 (2020) 82 (2004) 1950 127 154 220 334 876 2950 3620 6400 7450
2026-04-12 09:30 1.38 320 7680 (2020) 82 (2004) 1950 127 154 220 334 876 2950 3620 6400 7450
2026-04-12 08:30 1.42 334 7680 (2020) 82 (2004) 1950 127 154 220 334 876 2950 3620 6400 7450
2026-04-12 07:30 1.49 360 7680 (2020) 82 (2004) 1950 127 154 220 334 876 2950 3620 6400 7450
2026-04-12 06:30 1.54 378 7680 (2020) 82 (2004) 1950 127 154 220 334 876 2950 3620 6400 7450
2026-04-12 05:30 1.60 401 7680 (2020) 82 (2004) 1950 127 154 220 334 876 2950 3620 6400 7450
2026-04-12 04:30 1.67 429 7680 (2020) 82 (2004) 1950 127 154 220 334 876 2950 3620 6400 7450
2026-04-12 03:30 1.74 459 7680 (2020) 82 (2004) 1950 127 154 220 334 876 2950 3620 6400 7450
2026-04-12 02:30 1.81 490 7680 (2020) 82 (2004) 1950 127 154 220 334 876 2950 3620 6400 7450
2026-04-12 01:30 1.86 513 7680 (2020) 82 (2004) 1950 127 154 220 334 876 2950 3620 6400 7450
2026-04-12 00:30 1.89 527 7680 (2020) 82 (2004) 1950 127 154 220 334 876 2950 3620 6400 7450
2026-04-11 23:30 1.86 513 7680 (2020) 82 (2004) 1950 127 154 220 334 876 2950 3620 6400 7450
2026-04-11 22:30 1.69 438 7800 (1977) 89 (2004) 2180 149 169 243 315 944 3440 4160 6960 7360
2026-04-11 21:30 1.39 324 7800 (1977) 89 (2004) 2180 149 169 243 315 944 3440 4160 6960 7360
2026-04-11 20:30 1.21 265 7800 (1977) 89 (2004) 2180 149 169 243 315 944 3440 4160 6960 7360
2026-04-11 19:30 1.24 275 7800 (1977) 89 (2004) 2180 149 169 243 315 944 3440 4160 6960 7360
2026-04-11 18:30 1.28 287 7800 (1977) 89 (2004) 2180 149 169 243 315 944 3440 4160 6960 7360
2026-04-11 17:30 1.32 300 7800 (1977) 89 (2004) 2180 149 169 243 315 944 3440 4160 6960 7360
2026-04-11 16:30 1.37 317 7800 (1977) 89 (2004) 2180 149 169 243 315 944 3440 4160 6960 7360
2026-04-11 15:30 1.41 331 7800 (1977) 89 (2004) 2180 149 169 243 315 944 3440 4160 6960 7360
2026-04-11 14:30 1.40 327 7800 (1977) 89 (2004) 2180 149 169 243 315 944 3440 4160 6960 7360
2026-04-11 13:30 1.52 371 7800 (1977) 89 (2004) 2180 149 169 243 315 944 3440 4160 6960 7360
2026-04-11 12:30 1.57 390 7800 (1977) 89 (2004) 2180 149 169 243 315 944 3440 4160 6960 7360
2026-04-11 11:30 1.64 417 7800 (1977) 89 (2004) 2180 149 169 243 315 944 3440 4160 6960 7360
2026-04-11 10:30 1.71 446 7800 (1977) 89 (2004) 2180 149 169 243 315 944 3440 4160 6960 7360
2026-04-11 09:30 1.78 476 7800 (1977) 89 (2004) 2180 149 169 243 315 944 3440 4160 6960 7360
2026-04-11 08:30 1.87 518 7800 (1977) 89 (2004) 2180 149 169 243 315 944 3440 4160 6960 7360
2026-04-11 07:30 1.96 562 7800 (1977) 89 (2004) 2180 149 169 243 315 944 3440 4160 6960 7360
2026-04-11 06:30 2.07 621 7800 (1977) 89 (2004) 2180 149 169 243 315 944 3440 4160 6960 7360
2026-04-11 05:30 2.18 686 7800 (1977) 89 (2004) 2180 149 169 243 315 944 3440 4160 6960 7360
2026-04-11 04:30 2.31 772 7800 (1977) 89 (2004) 2180 149 169 243 315 944 3440 4160 6960 7360
2026-04-11 03:30 2.44 865 7800 (1977) 89 (2004) 2180 149 169 243 315 944 3440 4160 6960 7360
2026-04-11 02:30 2.59 982 7800 (1977) 89 (2004) 2180 149 169 243 315 944 3440 4160 6960 7360
2026-04-11 01:30 2.74 1100 7800 (1977) 89 (2004) 2180 149 169 243 315 944 3440 4160 6960 7360
2026-04-11 00:30 2.91 1250 7800 (1977) 89 (2004) 2180 149 169 243 315 944 3440 4160 6960 7360
2026-04-10 23:30 3.04 1370 7800 (1977) 89 (2004) 2180 149 169 243 315 944 3440 4160 6960 7360
2026-04-10 22:30 3.05 1380 7690 (2008) 90 (1996) 2140 112 154 207 357 901 3060 4580 7190 7340
2026-04-10 21:30 2.64 1020 7690 (2008) 90 (1996) 2140 112 154 207 357 901 3060 4580 7190 7340
2026-04-10 20:30 1.57 390 7690 (2008) 90 (1996) 2140 112 154 207 357 901 3060 4580 7190 7340
2026-04-10 19:30 0.98 200 7690 (2008) 90 (1996) 2140 112 154 207 357 901 3060 4580 7190 7340
2026-04-10 18:30 0.99 202 7690 (2008) 90 (1996) 2140 112 154 207 357 901 3060 4580 7190 7340
2026-04-10 17:30 1.01 207 7690 (2008) 90 (1996) 2140 112 154 207 357 901 3060 4580 7190 7340
2026-04-10 16:30 1.02 210 7690 (2008) 90 (1996) 2140 112 154 207 357 901 3060 4580 7190 7340
2026-04-10 15:30 1.03 213 7690 (2008) 90 (1996) 2140 112 154 207 357 901 3060 4580 7190 7340
2026-04-10 14:30 1.05 218 7690 (2008) 90 (1996) 2140 112 154 207 357 901 3060 4580 7190 7340
2026-04-10 13:30 1.08 226 7690 (2008) 90 (1996) 2140 112 154 207 357 901 3060 4580 7190 7340
2026-04-10 12:30 1.09 229 7690 (2008) 90 (1996) 2140 112 154 207 357 901 3060 4580 7190 7340
2026-04-10 11:30 1.12 238 7690 (2008) 90 (1996) 2140 112 154 207 357 901 3060 4580 7190 7340
2026-04-10 10:30 1.14 244 7690 (2008) 90 (1996) 2140 112 154 207 357 901 3060 4580 7190 7340
2026-04-10 09:30 1.16 250 7690 (2008) 90 (1996) 2140 112 154 207 357 901 3060 4580 7190 7340
2026-04-10 08:30 1.19 259 7690 (2008) 90 (1996) 2140 112 154 207 357 901 3060 4580 7190 7340
2026-04-10 07:30 1.22 268 7690 (2008) 90 (1996) 2140 112 154 207 357 901 3060 4580 7190 7340
2026-04-10 06:30 1.25 278 7690 (2008) 90 (1996) 2140 112 154 207 357 901 3060 4580 7190 7340
2026-04-10 05:30 1.27 284 7690 (2008) 90 (1996) 2140 112 154 207 357 901 3060 4580 7190 7340
2026-04-10 04:30 1.30 294 7690 (2008) 90 (1996) 2140 112 154 207 357 901 3060 4580 7190 7340
2026-04-10 03:30 1.32 300 7690 (2008) 90 (1996) 2140 112 154 207 357 901 3060 4580 7190 7340
2026-04-10 02:30 1.32 300 7690 (2008) 90 (1996) 2140 112 154 207 357 901 3060 4580 7190 7340
2026-04-10 01:30 1.29 290 7690 (2008) 90 (1996) 2140 112 154 207 357 901 3060 4580 7190 7340
2026-04-10 00:30 1.21 265 7690 (2008) 90 (1996) 2140 112 154 207 357 901 3060 4580 7190 7340
2026-04-09 23:30 1.09 229 7690 (2008) 90 (1996) 2140 112 154 207 357 901 3060 4580 7190 7340
2026-04-09 22:30 1.00 205 7640 (1973) 91 (1996) 2150 126 140 223 241 1320 3190 3670 6670 7480
2026-04-09 21:30 0.98 200 7640 (1973) 91 (1996) 2150 126 140 223 241 1320 3190 3670 6670 7480
2026-04-09 20:30 0.99 202 7640 (1973) 91 (1996) 2150 126 140 223 241 1320 3190 3670 6670 7480
2026-04-09 19:30 1.01 207 7640 (1973) 91 (1996) 2150 126 140 223 241 1320 3190 3670 6670 7480
2026-04-09 18:30 1.02 210 7640 (1973) 91 (1996) 2150 126 140 223 241 1320 3190 3670 6670 7480
2026-04-09 17:30 1.05 218 7640 (1973) 91 (1996) 2150 126 140 223 241 1320 3190 3670 6670 7480
2026-04-09 16:30 1.04 215 7640 (1973) 91 (1996) 2150 126 140 223 241 1320 3190 3670 6670 7480
2026-04-09 15:30 1.06 221 7640 (1973) 91 (1996) 2150 126 140 223 241 1320 3190 3670 6670 7480
2026-04-09 14:30 1.08 226 7640 (1973) 91 (1996) 2150 126 140 223 241 1320 3190 3670 6670 7480
2026-04-09 13:30 1.15 247 7640 (1973) 91 (1996) 2150 126 140 223 241 1320 3190 3670 6670 7480
2026-04-09 12:30 1.14 244 7640 (1973) 91 (1996) 2150 126 140 223 241 1320 3190 3670 6670 7480
2026-04-09 11:30 1.15 247 7640 (1973) 91 (1996) 2150 126 140 223 241 1320 3190 3670 6670 7480
2026-04-09 10:30 1.21 265 7640 (1973) 91 (1996) 2150 126 140 223 241 1320 3190 3670 6670 7480
2026-04-09 09:30 1.24 275 7640 (1973) 91 (1996) 2150 126 140 223 241 1320 3190 3670 6670 7480
2026-04-09 08:30 1.27 284 7640 (1973) 91 (1996) 2150 126 140 223 241 1320 3190 3670 6670 7480
2026-04-09 07:30 1.31 297 7640 (1973) 91 (1996) 2150 126 140 223 241 1320 3190 3670 6670 7480
2026-04-09 06:30 1.34 307 7640 (1973) 91 (1996) 2150 126 140 223 241 1320 3190 3670 6670 7480
2026-04-09 05:30 1.38 320 7640 (1973) 91 (1996) 2150 126 140 223 241 1320 3190 3670 6670 7480
2026-04-09 04:30 1.41 331 7640 (1973) 91 (1996) 2150 126 140 223 241 1320 3190 3670 6670 7480
2026-04-09 03:30 1.43 338 7640 (1973) 91 (1996) 2150 126 140 223 241 1320 3190 3670 6670 7480
2026-04-09 02:30 1.44 341 7640 (1973) 91 (1996) 2150 126 140 223 241 1320 3190 3670 6670 7480
2026-04-09 01:30 1.40 327 7640 (1973) 91 (1996) 2150 126 140 223 241 1320 3190 3670 6670 7480
2026-04-09 00:30 1.28 287 7640 (1973) 91 (1996) 2150 126 140 223 241 1320 3190 3670 6670 7480
2026-04-08 23:30 1.08 226 7640 (1973) 91 (1996) 2150 126 140 223 241 1320 3190 3670 6670 7480
2026-04-08 22:30 0.89 177 7430 (1977) 94 (1996) 2250 131 151 233 328 1240 3750 4870 6210 7290
2026-04-08 21:30 0.85 166 7430 (1977) 94 (1996) 2250 131 151 233 328 1240 3750 4870 6210 7290
2026-04-08 20:30 0.85 166 7430 (1977) 94 (1996) 2250 131 151 233 328 1240 3750 4870 6210 7290
2026-04-08 19:30 0.86 168 7430 (1977) 94 (1996) 2250 131 151 233 328 1240 3750 4870 6210 7290
2026-04-08 18:30 0.87 171 7430 (1977) 94 (1996) 2250 131 151 233 328 1240 3750 4870 6210 7290
2026-04-08 17:30 0.87 171 7430 (1977) 94 (1996) 2250 131 151 233 328 1240 3750 4870 6210 7290
2026-04-08 16:30 0.87 171 7430 (1977) 94 (1996) 2250 131 151 233 328 1240 3750 4870 6210 7290
2026-04-08 15:30 0.89 177 7430 (1977) 94 (1996) 2250 131 151 233 328 1240 3750 4870 6210 7290
2026-04-08 14:30 0.85 166 7430 (1977) 94 (1996) 2250 131 151 233 328 1240 3750 4870 6210 7290
2026-04-08 13:30 0.90 180 7430 (1977) 94 (1996) 2250 131 151 233 328 1240 3750 4870 6210 7290
2026-04-08 12:30 0.91 182 7430 (1977) 94 (1996) 2250 131 151 233 328 1240 3750 4870 6210 7290
2026-04-08 11:30 0.91 182 7430 (1977) 94 (1996) 2250 131 151 233 328 1240 3750 4870 6210 7290
2026-04-08 10:30 0.92 185 7430 (1977) 94 (1996) 2250 131 151 233 328 1240 3750 4870 6210 7290
2026-04-08 09:30 0.92 185 7430 (1977) 94 (1996) 2250 131 151 233 328 1240 3750 4870 6210 7290
2026-04-08 08:30 0.93 188 7430 (1977) 94 (1996) 2250 131 151 233 328 1240 3750 4870 6210 7290
2026-04-08 07:30 0.94 191 7430 (1977) 94 (1996) 2250 131 151 233 328 1240 3750 4870 6210 7290
2026-04-08 06:30 0.94 191 7430 (1977) 94 (1996) 2250 131 151 233 328 1240 3750 4870 6210 7290
2026-04-08 05:30 0.95 193 7430 (1977) 94 (1996) 2250 131 151 233 328 1240 3750 4870 6210 7290
2026-04-08 04:30 0.95 193 7430 (1977) 94 (1996) 2250 131 151 233 328 1240 3750 4870 6210 7290
2026-04-08 03:30 0.96 195 7430 (1977) 94 (1996) 2250 131 151 233 328 1240 3750 4870 6210 7290
2026-04-08 02:30 0.97 197 7430 (1977) 94 (1996) 2250 131 151 233 328 1240 3750 4870 6210 7290
2026-04-08 01:30 0.98 200 7430 (1977) 94 (1996) 2250 131 151 233 328 1240 3750 4870 6210 7290
2026-04-08 00:30 0.98 200 7430 (1977) 94 (1996) 2250 131 151 233 328 1240 3750 4870 6210 7290
2026-04-07 23:30 0.99 202 7430 (1977) 94 (1996) 2250 131 151 233 328 1240 3750 4870 6210 7290
2026-04-07 22:30 1.01 207 7420 (1977) 94 (1976) 2250 127 143 299 319 1360 3920 4360 6340 7120
2026-04-07 21:30 1.01 207 7420 (1977) 94 (1976) 2250 127 143 299 319 1360 3920 4360 6340 7120
2026-04-07 20:30 1.03 213 7420 (1977) 94 (1976) 2250 127 143 299 319 1360 3920 4360 6340 7120
2026-04-07 19:30 1.04 215 7420 (1977) 94 (1976) 2250 127 143 299 319 1360 3920 4360 6340 7120
2026-04-07 18:30 1.05 218 7420 (1977) 94 (1976) 2250 127 143 299 319 1360 3920 4360 6340 7120
2026-04-07 17:30 1.07 224 7420 (1977) 94 (1976) 2250 127 143 299 319 1360 3920 4360 6340 7120
2026-04-07 16:30 1.09 229 7420 (1977) 94 (1976) 2250 127 143 299 319 1360 3920 4360 6340 7120
2026-04-07 15:30 1.12 238 7420 (1977) 94 (1976) 2250 127 143 299 319 1360 3920 4360 6340 7120
2026-04-07 14:30 1.14 244 7420 (1977) 94 (1976) 2250 127 143 299 319 1360 3920 4360 6340 7120
2026-04-07 13:30 1.17 253 7420 (1977) 94 (1976) 2250 127 143 299 319 1360 3920 4360 6340 7120
2026-04-07 12:30 1.19 259 7420 (1977) 94 (1976) 2250 127 143 299 319 1360 3920 4360 6340 7120
2026-04-07 11:30 1.21 265 7420 (1977) 94 (1976) 2250 127 143 299 319 1360 3920 4360 6340 7120
2026-04-07 10:30 1.24 275 7420 (1977) 94 (1976) 2250 127 143 299 319 1360 3920 4360 6340 7120
2026-04-07 09:30 1.27 284 7420 (1977) 94 (1976) 2250 127 143 299 319 1360 3920 4360 6340 7120
2026-04-07 08:30 1.30 294 7420 (1977) 94 (1976) 2250 127 143 299 319 1360 3920 4360 6340 7120
2026-04-07 07:30 1.33 303 7420 (1977) 94 (1976) 2250 127 143 299 319 1360 3920 4360 6340 7120
2026-04-07 06:30 1.36 313 7420 (1977) 94 (1976) 2250 127 143 299 319 1360 3920 4360 6340 7120
2026-04-07 05:30 1.40 327 7420 (1977) 94 (1976) 2250 127 143 299 319 1360 3920 4360 6340 7120
2026-04-07 04:30 1.44 341 7420 (1977) 94 (1976) 2250 127 143 299 319 1360 3920 4360 6340 7120
2026-04-07 03:30 1.49 360 7420 (1977) 94 (1976) 2250 127 143 299 319 1360 3920 4360 6340 7120
2026-04-07 02:30 1.54 378 7420 (1977) 94 (1976) 2250 127 143 299 319 1360 3920 4360 6340 7120
2026-04-07 01:30 1.59 397 7420 (1977) 94 (1976) 2250 127 143 299 319 1360 3920 4360 6340 7120
2026-04-07 00:30 1.66 425 7420 (1977) 94 (1976) 2250 127 143 299 319 1360 3920 4360 6340 7120
2026-04-06 23:30 1.73 454 7420 (1977) 94 (1976) 2250 127 143 299 319 1360 3920 4360 6340 7120
2026-04-06 22:30 1.80 485 7440 (1977) 85 (2004) 2220 95 137 311 403 1410 3300 3790 6460 7220
2026-04-06 21:30 1.88 522 7440 (1977) 85 (2004) 2220 95 137 311 403 1410 3300 3790 6460 7220
2026-04-06 20:30 1.97 567 7440 (1977) 85 (2004) 2220 95 137 311 403 1410 3300 3790 6460 7220
2026-04-06 19:30 2.08 627 7440 (1977) 85 (2004) 2220 95 137 311 403 1410 3300 3790 6460 7220
2026-04-06 18:30 2.20 699 7440 (1977) 85 (2004) 2220 95 137 311 403 1410 3300 3790 6460 7220
2026-04-06 17:30 2.31 772 7440 (1977) 85 (2004) 2220 95 137 311 403 1410 3300 3790 6460 7220
2026-04-06 16:30 2.44 865 7440 (1977) 85 (2004) 2220 95 137 311 403 1410 3300 3790 6460 7220
2026-04-06 15:30 2.58 974 7440 (1977) 85 (2004) 2220 95 137 311 403 1410 3300 3790 6460 7220
2026-04-06 14:30 2.70 1070 7440 (1977) 85 (2004) 2220 95 137 311 403 1410 3300 3790 6460 7220
2026-04-06 13:30 2.78 1140 7440 (1977) 85 (2004) 2220 95 137 311 403 1410 3300 3790 6460 7220
2026-04-06 12:30 2.73 1100 7440 (1977) 85 (2004) 2220 95 137 311 403 1410 3300 3790 6460 7220
2026-04-06 11:30 2.40 836 7440 (1977) 85 (2004) 2220 95 137 311 403 1410 3300 3790 6460 7220
2026-04-06 10:30 1.89 527 7440 (1977) 85 (2004) 2220 95 137 311 403 1410 3300 3790 6460 7220
2026-04-06 09:30 1.60 401 7440 (1977) 85 (2004) 2220 95 137 311 403 1410 3300 3790 6460 7220
2026-04-06 08:30 1.60 401 7440 (1977) 85 (2004) 2220 95 137 311 403 1410 3300 3790 6460 7220
2026-04-06 07:30 1.65 421 7440 (1977) 85 (2004) 2220 95 137 311 403 1410 3300 3790 6460 7220
2026-04-06 06:30 1.71 446 7440 (1977) 85 (2004) 2220 95 137 311 403 1410 3300 3790 6460 7220
2026-04-06 05:30 1.78 476 7440 (1977) 85 (2004) 2220 95 137 311 403 1410 3300 3790 6460 7220
2026-04-06 04:30 1.85 508 7440 (1977) 85 (2004) 2220 95 137 311 403 1410 3300 3790 6460 7220
2026-04-06 03:30 1.93 547 7440 (1977) 85 (2004) 2220 95 137 311 403 1410 3300 3790 6460 7220
2026-04-06 02:30 2.01 588 7440 (1977) 85 (2004) 2220 95 137 311 403 1410 3300 3790 6460 7220
2026-04-06 01:30 2.11 644 7440 (1977) 85 (2004) 2220 95 137 311 403 1410 3300 3790 6460 7220
2026-04-06 00:30 2.22 712 7440 (1977) 85 (2004) 2220 95 137 311 403 1410 3300 3790 6460 7220
2026-04-05 23:30 2.33 786 7440 (1977) 85 (2004) 2220 95 137 311 403 1410 3300 3790 6460 7220
2026-04-05 22:30 2.46 880 7820 (1985) 90 (2004) 2380 94 150 352 466 1760 3470 3990 7050 7370
2026-04-05 21:30 2.60 990 7820 (1985) 90 (2004) 2380 94 150 352 466 1760 3470 3990 7050 7370
2026-04-05 20:30 2.75 1110 7820 (1985) 90 (2004) 2380 94 150 352 466 1760 3470 3990 7050 7370
2026-04-05 19:30 2.92 1260 7820 (1985) 90 (2004) 2380 94 150 352 466 1760 3470 3990 7050 7370
2026-04-05 18:30 3.08 1410 7820 (1985) 90 (2004) 2380 94 150 352 466 1760 3470 3990 7050 7370
2026-04-05 17:30 3.30 1630 7820 (1985) 90 (2004) 2380 94 150 352 466 1760 3470 3990 7050 7370
2026-04-05 16:30 3.51 1850 7820 (1985) 90 (2004) 2380 94 150 352 466 1760 3470 3990 7050 7370
2026-04-05 15:30 3.72 2080 7820 (1985) 90 (2004) 2380 94 150 352 466 1760 3470 3990 7050 7370
2026-04-05 14:30 3.95 2340 7820 (1985) 90 (2004) 2380 94 150 352 466 1760 3470 3990 7050 7370
2026-04-05 13:30 4.16 2590 7820 (1985) 90 (2004) 2380 94 150 352 466 1760 3470 3990 7050 7370
2026-04-05 12:30 4.26 2700 7820 (1985) 90 (2004) 2380 94 150 352 466 1760 3470 3990 7050 7370
2026-04-05 11:30 3.96 2350 7820 (1985) 90 (2004) 2380 94 150 352 466 1760 3470 3990 7050 7370
2026-04-05 10:30 3.02 1350 7820 (1985) 90 (2004) 2380 94 150 352 466 1760 3470 3990 7050 7370
2026-04-05 09:30 2.23 718 7820 (1985) 90 (2004) 2380 94 150 352 466 1760 3470 3990 7050 7370
2026-04-05 08:30 2.16 674 7820 (1985) 90 (2004) 2380 94 150 352 466 1760 3470 3990 7050 7370
2026-04-05 07:30 2.26 738 7820 (1985) 90 (2004) 2380 94 150 352 466 1760 3470 3990 7050 7370
2026-04-05 06:30 2.36 807 7820 (1985) 90 (2004) 2380 94 150 352 466 1760 3470 3990 7050 7370
2026-04-05 05:30 2.46 880 7820 (1985) 90 (2004) 2380 94 150 352 466 1760 3470 3990 7050 7370
2026-04-05 04:30 2.58 974 7820 (1985) 90 (2004) 2380 94 150 352 466 1760 3470 3990 7050 7370
2026-04-05 03:30 2.69 1060 7820 (1985) 90 (2004) 2380 94 150 352 466 1760 3470 3990 7050 7370
2026-04-05 02:30 2.83 1180 7820 (1985) 90 (2004) 2380 94 150 352 466 1760 3470 3990 7050 7370
2026-04-05 01:30 2.97 1300 7820 (1985) 90 (2004) 2380 94 150 352 466 1760 3470 3990 7050 7370
2026-04-05 00:30 3.10 1430 7820 (1985) 90 (2004) 2380 94 150 352 466 1760 3470 3990 7050 7370
2026-04-04 23:30 3.16 1490 7820 (1985) 90 (2004) 2380 94 150 352 466 1760 3470 3990 7050 7370
2026-04-04 22:30 3.02 1350 7800 (1985) 99 (1996) 2420 120 181 321 430 1460 3980 4440 7030 7280
2026-04-04 21:30 2.60 990 7800 (1985) 99 (1996) 2420 120 181 321 430 1460 3980 4440 7030 7280
2026-04-04 20:30 2.49 903 7800 (1985) 99 (1996) 2420 120 181 321 430 1460 3980 4440 7030 7280
2026-04-04 19:30 2.54 942 7800 (1985) 99 (1996) 2420 120 181 321 430 1460 3980 4440 7030 7280
2026-04-04 18:30 2.56 958 7800 (1985) 99 (1996) 2420 120 181 321 430 1460 3980 4440 7030 7280
2026-04-04 17:30 2.55 950 7800 (1985) 99 (1996) 2420 120 181 321 430 1460 3980 4440 7030 7280
2026-04-04 16:30 2.48 895 7800 (1985) 99 (1996) 2420 120 181 321 430 1460 3980 4440 7030 7280
2026-04-04 15:30 2.42 850 7800 (1985) 99 (1996) 2420 120 181 321 430 1460 3980 4440 7030 7280
2026-04-04 14:30 2.38 821 7800 (1985) 99 (1996) 2420 120 181 321 430 1460 3980 4440 7030 7280
2026-04-04 13:30 2.28 751 7800 (1985) 99 (1996) 2420 120 181 321 430 1460 3980 4440 7030 7280
2026-04-04 12:30 2.13 656 7800 (1985) 99 (1996) 2420 120 181 321 430 1460 3980 4440 7030 7280
2026-04-04 11:30 2.02 593 7800 (1985) 99 (1996) 2420 120 181 321 430 1460 3980 4440 7030 7280
2026-04-04 10:30 1.95 557 7800 (1985) 99 (1996) 2420 120 181 321 430 1460 3980 4440 7030 7280
2026-04-04 09:30 1.97 567 7800 (1985) 99 (1996) 2420 120 181 321 430 1460 3980 4440 7030 7280
2026-04-04 08:30 2.01 588 7800 (1985) 99 (1996) 2420 120 181 321 430 1460 3980 4440 7030 7280
2026-04-04 07:30 2.04 604 7800 (1985) 99 (1996) 2420 120 181 321 430 1460 3980 4440 7030 7280
2026-04-04 06:30 2.10 638 7800 (1985) 99 (1996) 2420 120 181 321 430 1460 3980 4440 7030 7280
2026-04-04 05:30 2.22 712 7800 (1985) 99 (1996) 2420 120 181 321 430 1460 3980 4440 7030 7280
2026-04-04 04:30 2.34 793 7800 (1985) 99 (1996) 2420 120 181 321 430 1460 3980 4440 7030 7280
2026-04-04 03:30 2.48 895 7800 (1985) 99 (1996) 2420 120 181 321 430 1460 3980 4440 7030 7280
2026-04-04 02:30 2.63 1020 7800 (1985) 99 (1996) 2420 120 181 321 430 1460 3980 4440 7030 7280
2026-04-04 01:30 2.80 1150 7800 (1985) 99 (1996) 2420 120 181 321 430 1460 3980 4440 7030 7280
2026-04-04 00:30 2.96 1300 7800 (1985) 99 (1996) 2420 120 181 321 430 1460 3980 4440 7030 7280
2026-04-03 23:30 3.11 1440 7800 (1985) 99 (1996) 2420 120 181 321 430 1460 3980 4440 7030 7280
2026-04-03 22:30 3.17 1500 7280 (1975) 96 (1996) 2330 135 170 383 525 1630 3470 3890 7000 7170
2026-04-03 21:30 2.87 1210 7280 (1975) 96 (1996) 2330 135 170 383 525 1630 3470 3890 7000 7170
2026-04-03 20:30 1.92 542 7280 (1975) 96 (1996) 2330 135 170 383 525 1630 3470 3890 7000 7170
2026-04-03 19:30 1.24 275 7280 (1975) 96 (1996) 2330 135 170 383 525 1630 3470 3890 7000 7170
2026-04-03 18:30 1.25 278 7280 (1975) 96 (1996) 2330 135 170 383 525 1630 3470 3890 7000 7170
2026-04-03 17:30 1.30 294 7280 (1975) 96 (1996) 2330 135 170 383 525 1630 3470 3890 7000 7170
2026-04-03 16:30 1.33 303 7280 (1975) 96 (1996) 2330 135 170 383 525 1630 3470 3890 7000 7170
2026-04-03 15:30 1.31 297 7280 (1975) 96 (1996) 2330 135 170 383 525 1630 3470 3890 7000 7170
2026-04-03 14:30 1.37 317 7280 (1975) 96 (1996) 2330 135 170 383 525 1630 3470 3890 7000 7170
2026-04-03 13:30 1.48 356 7280 (1975) 96 (1996) 2330 135 170 383 525 1630 3470 3890 7000 7170
2026-04-03 12:30 1.52 371 7280 (1975) 96 (1996) 2330 135 170 383 525 1630 3470 3890 7000 7170
2026-04-03 11:30 1.59 397 7280 (1975) 96 (1996) 2330 135 170 383 525 1630 3470 3890 7000 7170
2026-04-03 10:30 1.64 417 7280 (1975) 96 (1996) 2330 135 170 383 525 1630 3470 3890 7000 7170
2026-04-03 09:30 1.73 454 7280 (1975) 96 (1996) 2330 135 170 383 525 1630 3470 3890 7000 7170
2026-04-03 08:30 1.81 490 7280 (1975) 96 (1996) 2330 135 170 383 525 1630 3470 3890 7000 7170
2026-04-03 07:30 1.90 532 7280 (1975) 96 (1996) 2330 135 170 383 525 1630 3470 3890 7000 7170
2026-04-03 06:30 2.00 582 7280 (1975) 96 (1996) 2330 135 170 383 525 1630 3470 3890 7000 7170
2026-04-03 05:30 2.11 644 7280 (1975) 96 (1996) 2330 135 170 383 525 1630 3470 3890 7000 7170
2026-04-03 04:30 2.23 718 7280 (1975) 96 (1996) 2330 135 170 383 525 1630 3470 3890 7000 7170
2026-04-03 03:30 2.36 807 7280 (1975) 96 (1996) 2330 135 170 383 525 1630 3470 3890 7000 7170
2026-04-03 02:30 2.50 911 7280 (1975) 96 (1996) 2330 135 170 383 525 1630 3470 3890 7000 7170
2026-04-03 01:30 2.65 1030 7280 (1975) 96 (1996) 2330 135 170 383 525 1630 3470 3890 7000 7170
2026-04-03 00:30 2.82 1170 7280 (1975) 96 (1996) 2330 135 170 383 525 1630 3470 3890 7000 7170
2026-04-02 23:30 2.99 1320 7280 (1975) 96 (1996) 2330 135 170 383 525 1630 3470 3890 7000 7170
2026-04-02 22:30 3.15 1480 7190 (1975) 95 (1996) 2180 143 183 386 637 1410 3090 3430 6730 7080
2026-04-02 21:30 3.22 1550 7190 (1975) 95 (1996) 2180 143 183 386 637 1410 3090 3430 6730 7080
2026-04-02 20:30 2.98 1310 7190 (1975) 95 (1996) 2180 143 183 386 637 1410 3090 3430 6730 7080
2026-04-02 19:30 2.04 604 7190 (1975) 95 (1996) 2180 143 183 386 637 1410 3090 3430 6730 7080
2026-04-02 18:30 1.33 303 7190 (1975) 95 (1996) 2180 143 183 386 637 1410 3090 3430 6730 7080
2026-04-02 17:30 1.30 294 7190 (1975) 95 (1996) 2180 143 183 386 637 1410 3090 3430 6730 7080
2026-04-02 16:30 1.36 313 7190 (1975) 95 (1996) 2180 143 183 386 637 1410 3090 3430 6730 7080
2026-04-02 15:30 1.39 324 7190 (1975) 95 (1996) 2180 143 183 386 637 1410 3090 3430 6730 7080
2026-04-02 14:30 1.44 341 7190 (1975) 95 (1996) 2180 143 183 386 637 1410 3090 3430 6730 7080
2026-04-02 13:30 1.48 356 7190 (1975) 95 (1996) 2180 143 183 386 637 1410 3090 3430 6730 7080
2026-04-02 12:30 1.55 382 7190 (1975) 95 (1996) 2180 143 183 386 637 1410 3090 3430 6730 7080
2026-04-02 11:30 1.65 421 7190 (1975) 95 (1996) 2180 143 183 386 637 1410 3090 3430 6730 7080
2026-04-02 09:30 1.83 499 7190 (1975) 95 (1996) 2180 143 183 386 637 1410 3090 3430 6730 7080
2026-04-02 08:30 1.87 518 7190 (1975) 95 (1996) 2180 143 183 386 637 1410 3090 3430 6730 7080
2026-04-02 07:30 2.02 593 7190 (1975) 95 (1996) 2180 143 183 386 637 1410 3090 3430 6730 7080
2026-04-02 06:30 2.13 656 7190 (1975) 95 (1996) 2180 143 183 386 637 1410 3090 3430 6730 7080
2026-04-02 05:30 2.25 731 7190 (1975) 95 (1996) 2180 143 183 386 637 1410 3090 3430 6730 7080
2026-04-02 04:30 2.38 821 7190 (1975) 95 (1996) 2180 143 183 386 637 1410 3090 3430 6730 7080
2026-04-02 03:30 2.52 926 7190 (1975) 95 (1996) 2180 143 183 386 637 1410 3090 3430 6730 7080
2026-04-02 02:30 2.68 1060 7190 (1975) 95 (1996) 2180 143 183 386 637 1410 3090 3430 6730 7080
2026-04-02 01:30 2.84 1190 7190 (1975) 95 (1996) 2180 143 183 386 637 1410 3090 3430 6730 7080
2026-04-02 00:30 3.01 1340 7190 (1975) 95 (1996) 2180 143 183 386 637 1410 3090 3430 6730 7080
2026-04-01 23:30 3.17 1500 7190 (1975) 95 (1996) 2180 143 183 386 637 1410 3090 3430 6730 7080
2026-04-01 22:30 3.27 1600 7200 (1973) 98 (1996) 2250 210 254 465 585 1380 3660 4130 6650 6940
2026-04-01 21:30 3.04 1370 7200 (1973) 98 (1996) 2250 210 254 465 585 1380 3660 4130 6650 6940
2026-04-01 20:30 2.15 668 7200 (1973) 98 (1996) 2250 210 254 465 585 1380 3660 4130 6650 6940
2026-04-01 19:30 1.45 345 7200 (1973) 98 (1996) 2250 210 254 465 585 1380 3660 4130 6650 6940
2026-04-01 18:30 1.45 345 7200 (1973) 98 (1996) 2250 210 254 465 585 1380 3660 4130 6650 6940
2026-04-01 17:30 1.50 363 7200 (1973) 98 (1996) 2250 210 254 465 585 1380 3660 4130 6650 6940
2026-04-01 16:30 1.54 378 7200 (1973) 98 (1996) 2250 210 254 465 585 1380 3660 4130 6650 6940
2026-04-01 15:30 1.62 409 7200 (1973) 98 (1996) 2250 210 254 465 585 1380 3660 4130 6650 6940
2026-04-01 14:30 1.70 442 7200 (1973) 98 (1996) 2250 210 254 465 585 1380 3660 4130 6650 6940
2026-04-01 13:30 1.76 467 7200 (1973) 98 (1996) 2250 210 254 465 585 1380 3660 4130 6650 6940
2026-04-01 12:30 1.88 522 7200 (1973) 98 (1996) 2250 210 254 465 585 1380 3660 4130 6650 6940
2026-04-01 11:30 1.97 567 7200 (1973) 98 (1996) 2250 210 254 465 585 1380 3660 4130 6650 6940
2026-04-01 10:30 2.07 621 7200 (1973) 98 (1996) 2250 210 254 465 585 1380 3660 4130 6650 6940
2026-04-01 09:30 2.19 692 7200 (1973) 98 (1996) 2250 210 254 465 585 1380 3660 4130 6650 6940
2026-04-01 08:30 2.32 779 7200 (1973) 98 (1996) 2250 210 254 465 585 1380 3660 4130 6650 6940
2026-04-01 07:30 2.46 880 7200 (1973) 98 (1996) 2250 210 254 465 585 1380 3660 4130 6650 6940
2026-04-01 06:30 2.61 999 7200 (1973) 98 (1996) 2250 210 254 465 585 1380 3660 4130 6650 6940
2026-04-01 05:30 2.78 1140 7200 (1973) 98 (1996) 2250 210 254 465 585 1380 3660 4130 6650 6940
2026-04-01 04:30 2.96 1300 7200 (1973) 98 (1996) 2250 210 254 465 585 1380 3660 4130 6650 6940
2026-04-01 03:30 3.15 1480 7200 (1973) 98 (1996) 2250 210 254 465 585 1380 3660 4130 6650 6940
2026-04-01 02:30 3.36 1690 7200 (1973) 98 (1996) 2250 210 254 465 585 1380 3660 4130 6650 6940
2026-04-01 01:30 3.57 1910 7200 (1973) 98 (1996) 2250 210 254 465 585 1380 3660 4130 6650 6940
2026-04-01 00:30 3.81 2180 7200 (1973) 98 (1996) 2250 210 254 465 585 1380 3660 4130 6650 6940
2026-03-31 23:30 4.02 2430 7200 (1973) 98 (1996) 2250 210 254 465 585 1380 3660 4130 6650 6940
2026-03-31 22:30 4.17 2600 7440 (1973) 100 (1996) 2230 156 220 572 775 1630 3240 3550 5960 6990
2026-03-31 21:30 4.03 2440 7440 (1973) 100 (1996) 2230 156 220 572 775 1630 3240 3550 5960 6990
2026-03-31 20:30 3.28 1610 7440 (1973) 100 (1996) 2230 156 220 572 775 1630 3240 3550 5960 6990
2026-03-31 19:30 1.94 552 7440 (1973) 100 (1996) 2230 156 220 572 775 1630 3240 3550 5960 6990
2026-03-31 18:30 1.22 268 7440 (1973) 100 (1996) 2230 156 220 572 775 1630 3240 3550 5960 6990
2026-03-31 17:30 1.23 271 7440 (1973) 100 (1996) 2230 156 220 572 775 1630 3240 3550 5960 6990
2026-03-31 16:30 1.26 281 7440 (1973) 100 (1996) 2230 156 220 572 775 1630 3240 3550 5960 6990
2026-03-31 15:30 1.32 300 7440 (1973) 100 (1996) 2230 156 220 572 775 1630 3240 3550 5960 6990
2026-03-31 14:30 1.35 310 7440 (1973) 100 (1996) 2230 156 220 572 775 1630 3240 3550 5960 6990
2026-03-31 13:30 1.40 327 7440 (1973) 100 (1996) 2230 156 220 572 775 1630 3240 3550 5960 6990
2026-03-31 12:30 1.46 349 7440 (1973) 100 (1996) 2230 156 220 572 775 1630 3240 3550 5960 6990
2026-03-31 11:30 1.56 386 7440 (1973) 100 (1996) 2230 156 220 572 775 1630 3240 3550 5960 6990
2026-03-31 10:30 1.62 409 7440 (1973) 100 (1996) 2230 156 220 572 775 1630 3240 3550 5960 6990
2026-03-31 09:30 1.70 442 7440 (1973) 100 (1996) 2230 156 220 572 775 1630 3240 3550 5960 6990
2026-03-31 08:30 1.77 472 7440 (1973) 100 (1996) 2230 156 220 572 775 1630 3240 3550 5960 6990
2026-03-31 07:30 1.86 513 7440 (1973) 100 (1996) 2230 156 220 572 775 1630 3240 3550 5960 6990
2026-03-31 06:30 1.96 562 7440 (1973) 100 (1996) 2230 156 220 572 775 1630 3240 3550 5960 6990
2026-03-31 05:30 2.06 615 7440 (1973) 100 (1996) 2230 156 220 572 775 1630 3240 3550 5960 6990
2026-03-31 04:30 2.17 680 7440 (1973) 100 (1996) 2230 156 220 572 775 1630 3240 3550 5960 6990
2026-03-31 03:30 2.30 765 7440 (1973) 100 (1996) 2230 156 220 572 775 1630 3240 3550 5960 6990
2026-03-31 02:30 2.44 865 7440 (1973) 100 (1996) 2230 156 220 572 775 1630 3240 3550 5960 6990
2026-03-31 01:30 2.59 982 7440 (1973) 100 (1996) 2230 156 220 572 775 1630 3240 3550 5960 6990
2026-03-31 00:30 2.72 1090 7440 (1973) 100 (1996) 2230 156 220 572 775 1630 3240 3550 5960 6990
2026-03-30 23:30 2.84 1190 7440 (1973) 100 (1996) 2230 156 220 572 775 1630 3240 3550 5960 6990
2026-03-30 22:30 2.82 1170 7250 (2024) 78 (1981) 2440 155 173 373 473 1700 3550 4180 6880 7150
2026-03-30 21:30 2.44 865 7250 (2024) 78 (1981) 2440 155 173 373 473 1700 3550 4180 6880 7150
2026-03-30 20:30 1.60 401 7250 (2024) 78 (1981) 2440 155 173 373 473 1700 3550 4180 6880 7150
2026-03-30 19:30 1.15 247 7250 (2024) 78 (1981) 2440 155 173 373 473 1700 3550 4180 6880 7150
2026-03-30 18:30 1.11 235 7250 (2024) 78 (1981) 2440 155 173 373 473 1700 3550 4180 6880 7150
2026-03-30 17:30 1.10 232 7250 (2024) 78 (1981) 2440 155 173 373 473 1700 3550 4180 6880 7150
2026-03-30 16:30 1.11 235 7250 (2024) 78 (1981) 2440 155 173 373 473 1700 3550 4180 6880 7150
2026-03-30 15:30 1.17 253 7250 (2024) 78 (1981) 2440 155 173 373 473 1700 3550 4180 6880 7150
2026-03-30 14:30 1.21 265 7250 (2024) 78 (1981) 2440 155 173 373 473 1700 3550 4180 6880 7150
2026-03-30 13:30 1.24 275 7250 (2024) 78 (1981) 2440 155 173 373 473 1700 3550 4180 6880 7150
2026-03-30 12:30 1.32 300 7250 (2024) 78 (1981) 2440 155 173 373 473 1700 3550 4180 6880 7150
2026-03-30 11:30 1.34 307 7250 (2024) 78 (1981) 2440 155 173 373 473 1700 3550 4180 6880 7150
2026-03-30 10:30 1.42 334 7250 (2024) 78 (1981) 2440 155 173 373 473 1700 3550 4180 6880 7150
2026-03-30 09:30 1.46 349 7250 (2024) 78 (1981) 2440 155 173 373 473 1700 3550 4180 6880 7150
2026-03-30 08:30 1.52 371 7250 (2024) 78 (1981) 2440 155 173 373 473 1700 3550 4180 6880 7150
2026-03-30 07:30 1.58 393 7250 (2024) 78 (1981) 2440 155 173 373 473 1700 3550 4180 6880 7150
2026-03-30 06:30 1.65 421 7250 (2024) 78 (1981) 2440 155 173 373 473 1700 3550 4180 6880 7150
2026-03-30 05:30 1.72 450 7250 (2024) 78 (1981) 2440 155 173 373 473 1700 3550 4180 6880 7150
2026-03-30 04:30 1.79 481 7250 (2024) 78 (1981) 2440 155 173 373 473 1700 3550 4180 6880 7150
2026-03-30 03:30 1.87 518 7250 (2024) 78 (1981) 2440 155 173 373 473 1700 3550 4180 6880 7150
2026-03-30 02:30 1.95 557 7250 (2024) 78 (1981) 2440 155 173 373 473 1700 3550 4180 6880 7150
2026-03-30 01:30 1.99 577 7250 (2024) 78 (1981) 2440 155 173 373 473 1700 3550 4180 6880 7150
2026-03-30 00:30 1.98 572 7250 (2024) 78 (1981) 2440 155 173 373 473 1700 3550 4180 6880 7150
2026-03-29 23:30 1.81 490 7250 (2024) 78 (1981) 2440 155 173 373 473 1700 3550 4180 6880 7150
2026-03-29 22:30 1.40 327 7420 (2002) 89 (1981) 2420 138 189 304 520 1790 3640 4470 6920 7240
2026-03-29 21:30 0.98 200 7420 (2002) 89 (1981) 2420 138 189 304 520 1790 3640 4470 6920 7240
2026-03-29 20:30 0.92 185 7420 (2002) 89 (1981) 2420 138 189 304 520 1790 3640 4470 6920 7240
2026-03-29 19:30 0.93 188 7420 (2002) 89 (1981) 2420 138 189 304 520 1790 3640 4470 6920 7240
2026-03-29 18:30 0.94 191 7420 (2002) 89 (1981) 2420 138 189 304 520 1790 3640 4470 6920 7240
2026-03-29 17:30 0.90 180 7420 (2002) 89 (1981) 2420 138 189 304 520 1790 3640 4470 6920 7240
2026-03-29 16:30 0.94 191 7420 (2002) 89 (1981) 2420 138 189 304 520 1790 3640 4470 6920 7240
2026-03-29 15:30 0.96 195 7420 (2002) 89 (1981) 2420 138 189 304 520 1790 3640 4470 6920 7240
2026-03-29 14:30 1.02 210 7420 (2002) 89 (1981) 2420 138 189 304 520 1790 3640 4470 6920 7240
2026-03-29 13:30 1.04 215 7420 (2002) 89 (1981) 2420 138 189 304 520 1790 3640 4470 6920 7240
2026-03-29 12:30 1.06 221 7420 (2002) 89 (1981) 2420 138 189 304 520 1790 3640 4470 6920 7240
2026-03-29 11:30 1.04 215 7420 (2002) 89 (1981) 2420 138 189 304 520 1790 3640 4470 6920 7240
2026-03-29 10:30 1.11 235 7420 (2002) 89 (1981) 2420 138 189 304 520 1790 3640 4470 6920 7240
2026-03-29 09:30 1.13 241 7420 (2002) 89 (1981) 2420 138 189 304 520 1790 3640 4470 6920 7240
2026-03-29 08:30 1.16 250 7420 (2002) 89 (1981) 2420 138 189 304 520 1790 3640 4470 6920 7240
2026-03-29 07:30 1.18 256 7420 (2002) 89 (1981) 2420 138 189 304 520 1790 3640 4470 6920 7240
2026-03-29 06:30 1.21 265 7420 (2002) 89 (1981) 2420 138 189 304 520 1790 3640 4470 6920 7240
2026-03-29 05:30 1.25 278 7420 (2002) 89 (1981) 2420 138 189 304 520 1790 3640 4470 6920 7240
2026-03-29 04:30 1.28 287 7420 (2002) 89 (1981) 2420 138 189 304 520 1790 3640 4470 6920 7240
2026-03-29 03:30 1.32 300 7420 (2002) 89 (1981) 2420 138 189 304 520 1790 3640 4470 6920 7240
2026-03-29 02:30 1.36 313 7420 (2002) 89 (1981) 2420 138 189 304 520 1790 3640 4470 6920 7240
2026-03-29 01:30 1.41 331 7420 (2002) 89 (1981) 2420 138 189 304 520 1790 3640 4470 6920 7240
2026-03-29 00:30 1.45 345 7420 (2002) 89 (1981) 2420 138 189 304 520 1790 3640 4470 6920 7240
2026-03-28 23:30 1.51 367 7420 (2002) 89 (1981) 2420 138 189 304 520 1790 3640 4470 6920 7240
2026-03-28 22:30 1.57 390 7980 (2002) 110 (2004) 2420 153 178 320 561 1660 3510 4230 6710 7020
2026-03-28 21:30 1.64 417 7980 (2002) 110 (2004) 2420 153 178 320 561 1660 3510 4230 6710 7020
2026-03-28 20:30 1.71 446 7980 (2002) 110 (2004) 2420 153 178 320 561 1660 3510 4230 6710 7020
2026-03-28 19:30 1.80 485 7980 (2002) 110 (2004) 2420 153 178 320 561 1660 3510 4230 6710 7020
2026-03-28 18:30 1.88 522 7980 (2002) 110 (2004) 2420 153 178 320 561 1660 3510 4230 6710 7020
2026-03-28 17:30 1.98 572 7980 (2002) 110 (2004) 2420 153 178 320 561 1660 3510 4230 6710 7020
2026-03-28 16:30 2.09 633 7980 (2002) 110 (2004) 2420 153 178 320 561 1660 3510 4230 6710 7020
2026-03-28 15:30 2.19 692 7980 (2002) 110 (2004) 2420 153 178 320 561 1660 3510 4230 6710 7020
2026-03-28 14:30 2.30 765 7980 (2002) 110 (2004) 2420 153 178 320 561 1660 3510 4230 6710 7020
2026-03-28 13:30 2.37 814 7980 (2002) 110 (2004) 2420 153 178 320 561 1660 3510 4230 6710 7020
2026-03-28 12:30 2.34 793 7980 (2002) 110 (2004) 2420 153 178 320 561 1660 3510 4230 6710 7020
2026-03-28 11:30 2.10 638 7980 (2002) 110 (2004) 2420 153 178 320 561 1660 3510 4230 6710 7020
2026-03-28 10:30 1.71 446 7980 (2002) 110 (2004) 2420 153 178 320 561 1660 3510 4230 6710 7020
2026-03-28 09:30 1.51 367 7980 (2002) 110 (2004) 2420 153 178 320 561 1660 3510 4230 6710 7020
2026-03-28 08:30 1.56 386 7980 (2002) 110 (2004) 2420 153 178 320 561 1660 3510 4230 6710 7020
2026-03-28 07:30 1.68 433 7980 (2002) 110 (2004) 2420 153 178 320 561 1660 3510 4230 6710 7020
2026-03-28 06:30 1.76 467 7980 (2002) 110 (2004) 2420 153 178 320 561 1660 3510 4230 6710 7020
2026-03-28 05:30 1.84 503 7980 (2002) 110 (2004) 2420 153 178 320 561 1660 3510 4230 6710 7020
2026-03-28 04:30 1.93 547 7980 (2002) 110 (2004) 2420 153 178 320 561 1660 3510 4230 6710 7020
2026-03-28 03:30 2.02 593 7980 (2002) 110 (2004) 2420 153 178 320 561 1660 3510 4230 6710 7020
2026-03-28 02:30 2.13 656 7980 (2002) 110 (2004) 2420 153 178 320 561 1660 3510 4230 6710 7020
2026-03-28 01:30 2.23 718 7980 (2002) 110 (2004) 2420 153 178 320 561 1660 3510 4230 6710 7020
2026-03-28 00:30 2.32 779 7980 (2002) 110 (2004) 2420 153 178 320 561 1660 3510 4230 6710 7020
2026-03-27 23:30 2.36 807 7980 (2002) 110 (2004) 2420 153 178 320 561 1660 3510 4230 6710 7020
2026-03-27 22:30 2.25 731 7990 (1985) 81 (1996) 2520 151 192 441 512 1540 3470 3950 7050 7550
2026-03-27 21:30 1.87 518 7990 (1985) 81 (1996) 2520 151 192 441 512 1540 3470 3950 7050 7550
2026-03-27 20:30 1.46 349 7990 (1985) 81 (1996) 2520 151 192 441 512 1540 3470 3950 7050 7550
2026-03-27 19:30 1.47 352 7990 (1985) 81 (1996) 2520 151 192 441 512 1540 3470 3950 7050 7550
2026-03-27 18:30 1.50 363 7990 (1985) 81 (1996) 2520 151 192 441 512 1540 3470 3950 7050 7550
2026-03-27 17:30 1.54 378 7990 (1985) 81 (1996) 2520 151 192 441 512 1540 3470 3950 7050 7550
2026-03-27 16:30 1.65 421 7990 (1985) 81 (1996) 2520 151 192 441 512 1540 3470 3950 7050 7550
2026-03-27 15:30 1.69 438 7990 (1985) 81 (1996) 2520 151 192 441 512 1540 3470 3950 7050 7550
2026-03-27 14:30 1.81 490 7990 (1985) 81 (1996) 2520 151 192 441 512 1540 3470 3950 7050 7550
2026-03-27 13:30 1.89 527 7990 (1985) 81 (1996) 2520 151 192 441 512 1540 3470 3950 7050 7550
2026-03-27 12:30 2.00 582 7990 (1985) 81 (1996) 2520 151 192 441 512 1540 3470 3950 7050 7550
2026-03-27 11:30 2.11 644 7990 (1985) 81 (1996) 2520 151 192 441 512 1540 3470 3950 7050 7550
2026-03-27 10:30 2.22 712 7990 (1985) 81 (1996) 2520 151 192 441 512 1540 3470 3950 7050 7550
2026-03-27 09:30 2.35 800 7990 (1985) 81 (1996) 2520 151 192 441 512 1540 3470 3950 7050 7550
2026-03-27 08:30 2.49 903 7990 (1985) 81 (1996) 2520 151 192 441 512 1540 3470 3950 7050 7550
2026-03-27 07:30 2.65 1030 7990 (1985) 81 (1996) 2520 151 192 441 512 1540 3470 3950 7050 7550
2026-03-27 06:30 2.82 1170 7990 (1985) 81 (1996) 2520 151 192 441 512 1540 3470 3950 7050 7550
2026-03-27 05:30 2.99 1320 7990 (1985) 81 (1996) 2520 151 192 441 512 1540 3470 3950 7050 7550
2026-03-27 04:30 3.18 1510 7990 (1985) 81 (1996) 2520 151 192 441 512 1540 3470 3950 7050 7550
2026-03-27 03:30 3.40 1730 7990 (1985) 81 (1996) 2520 151 192 441 512 1540 3470 3950 7050 7550
2026-03-27 02:30 3.65 2000 7990 (1985) 81 (1996) 2520 151 192 441 512 1540 3470 3950 7050 7550
2026-03-27 01:30 3.86 2240 7990 (1985) 81 (1996) 2520 151 192 441 512 1540 3470 3950 7050 7550
2026-03-27 00:30 4.10 2520 7990 (1985) 81 (1996) 2520 151 192 441 512 1540 3470 3950 7050 7550
2026-03-26 23:30 4.30 2750 7990 (1985) 81 (1996) 2520 151 192 441 512 1540 3470 3950 7050 7550
2026-03-26 22:30 4.42 2900 7880 (2002) 79 (1996) 2620 136 211 440 599 1560 4810 6050 7000 7470
2026-03-26 21:30 4.27 2720 7880 (2002) 79 (1996) 2620 136 211 440 599 1560 4810 6050 7000 7470
2026-03-26 20:30 3.45 1780 7880 (2002) 79 (1996) 2620 136 211 440 599 1560 4810 6050 7000 7470
2026-03-26 19:30 2.19 692 7880 (2002) 79 (1996) 2620 136 211 440 599 1560 4810 6050 7000 7470
2026-03-26 18:30 1.43 338 7880 (2002) 79 (1996) 2620 136 211 440 599 1560 4810 6050 7000 7470
2026-03-26 17:30 1.42 334 7880 (2002) 79 (1996) 2620 136 211 440 599 1560 4810 6050 7000 7470
2026-03-26 16:30 1.46 349 7880 (2002) 79 (1996) 2620 136 211 440 599 1560 4810 6050 7000 7470
2026-03-26 15:30 1.56 386 7880 (2002) 79 (1996) 2620 136 211 440 599 1560 4810 6050 7000 7470
2026-03-26 14:30 1.61 405 7880 (2002) 79 (1996) 2620 136 211 440 599 1560 4810 6050 7000 7470
2026-03-26 13:30 1.73 454 7880 (2002) 79 (1996) 2620 136 211 440 599 1560 4810 6050 7000 7470
2026-03-26 12:30 1.78 476 7880 (2002) 79 (1996) 2620 136 211 440 599 1560 4810 6050 7000 7470
2026-03-26 11:30 1.89 527 7880 (2002) 79 (1996) 2620 136 211 440 599 1560 4810 6050 7000 7470
2026-03-26 10:30 2.00 582 7880 (2002) 79 (1996) 2620 136 211 440 599 1560 4810 6050 7000 7470
2026-03-26 09:30 2.11 644 7880 (2002) 79 (1996) 2620 136 211 440 599 1560 4810 6050 7000 7470
2026-03-26 08:30 2.24 725 7880 (2002) 79 (1996) 2620 136 211 440 599 1560 4810 6050 7000 7470
2026-03-26 07:30 2.37 814 7880 (2002) 79 (1996) 2620 136 211 440 599 1560 4810 6050 7000 7470
2026-03-26 06:30 2.51 919 7880 (2002) 79 (1996) 2620 136 211 440 599 1560 4810 6050 7000 7470
2026-03-26 05:30 2.66 1040 7880 (2002) 79 (1996) 2620 136 211 440 599 1560 4810 6050 7000 7470
2026-03-26 04:30 2.84 1190 7880 (2002) 79 (1996) 2620 136 211 440 599 1560 4810 6050 7000 7470
2026-03-26 03:30 3.02 1350 7880 (2002) 79 (1996) 2620 136 211 440 599 1560 4810 6050 7000 7470
2026-03-26 02:30 3.22 1550 7880 (2002) 79 (1996) 2620 136 211 440 599 1560 4810 6050 7000 7470
2026-03-26 01:30 3.43 1760 7880 (2002) 79 (1996) 2620 136 211 440 599 1560 4810 6050 7000 7470
2026-03-26 00:30 3.65 2000 7880 (2002) 79 (1996) 2620 136 211 440 599 1560 4810 6050 7000 7470
2026-03-25 23:30 3.82 2190 7880 (2002) 79 (1996) 2620 136 211 440 599 1560 4810 6050 7000 7470
2026-03-25 22:30 3.82 2190 7390 (1998) 83 (1996) 2500 216 336 581 764 1620 3470 5260 6660 7280
2026-03-25 21:30 3.19 1520 7390 (1998) 83 (1996) 2500 216 336 581 764 1620 3470 5260 6660 7280
2026-03-25 20:30 1.85 508 7390 (1998) 83 (1996) 2500 216 336 581 764 1620 3470 5260 6660 7280
2026-03-25 19:30 1.18 256 7390 (1998) 83 (1996) 2500 216 336 581 764 1620 3470 5260 6660 7280
2026-03-25 18:30 1.18 256 7390 (1998) 83 (1996) 2500 216 336 581 764 1620 3470 5260 6660 7280
2026-03-25 17:30 1.21 265 7390 (1998) 83 (1996) 2500 216 336 581 764 1620 3470 5260 6660 7280
2026-03-25 16:30 1.23 271 7390 (1998) 83 (1996) 2500 216 336 581 764 1620 3470 5260 6660 7280
2026-03-25 15:30 1.28 287 7390 (1998) 83 (1996) 2500 216 336 581 764 1620 3470 5260 6660 7280
2026-03-25 14:30 1.33 303 7390 (1998) 83 (1996) 2500 216 336 581 764 1620 3470 5260 6660 7280
2026-03-25 13:30 1.37 317 7390 (1998) 83 (1996) 2500 216 336 581 764 1620 3470 5260 6660 7280
2026-03-25 12:30 1.45 345 7390 (1998) 83 (1996) 2500 216 336 581 764 1620 3470 5260 6660 7280
2026-03-25 11:30 1.50 363 7390 (1998) 83 (1996) 2500 216 336 581 764 1620 3470 5260 6660 7280
2026-03-25 10:30 1.56 386 7390 (1998) 83 (1996) 2500 216 336 581 764 1620 3470 5260 6660 7280
2026-03-25 09:30 1.63 413 7390 (1998) 83 (1996) 2500 216 336 581 764 1620 3470 5260 6660 7280
2026-03-25 08:30 1.69 438 7390 (1998) 83 (1996) 2500 216 336 581 764 1620 3470 5260 6660 7280
2026-03-25 07:30 1.77 472 7390 (1998) 83 (1996) 2500 216 336 581 764 1620 3470 5260 6660 7280
2026-03-25 06:30 1.86 513 7390 (1998) 83 (1996) 2500 216 336 581 764 1620 3470 5260 6660 7280
2026-03-25 05:30 1.95 557 7390 (1998) 83 (1996) 2500 216 336 581 764 1620 3470 5260 6660 7280
2026-03-25 04:30 2.06 615 7390 (1998) 83 (1996) 2500 216 336 581 764 1620 3470 5260 6660 7280
2026-03-25 03:30 2.17 680 7390 (1998) 83 (1996) 2500 216 336 581 764 1620 3470 5260 6660 7280
2026-03-25 02:30 2.28 751 7390 (1998) 83 (1996) 2500 216 336 581 764 1620 3470 5260 6660 7280
2026-03-25 01:30 2.42 850 7390 (1998) 83 (1996) 2500 216 336 581 764 1620 3470 5260 6660 7280
2026-03-25 00:30 2.53 934 7390 (1998) 83 (1996) 2500 216 336 581 764 1620 3470 5260 6660 7280
2026-03-24 23:30 2.58 974 7390 (1998) 83 (1996) 2500 216 336 581 764 1620 3470 5260 6660 7280
2026-03-24 22:30 2.46 880 7390 (1998) 89 (1996) 2320 137 176 328 491 1460 3720 4500 6170 6970
2026-03-24 21:30 1.92 542 7390 (1998) 89 (1996) 2320 137 176 328 491 1460 3720 4500 6170 6970
2026-03-24 20:30 1.12 238 7390 (1998) 89 (1996) 2320 137 176 328 491 1460 3720 4500 6170 6970
2026-03-24 19:30 0.97 197 7390 (1998) 89 (1996) 2320 137 176 328 491 1460 3720 4500 6170 6970
2026-03-24 18:30 0.99 202 7390 (1998) 89 (1996) 2320 137 176 328 491 1460 3720 4500 6170 6970
2026-03-24 17:30 1.01 207 7390 (1998) 89 (1996) 2320 137 176 328 491 1460 3720 4500 6170 6970
2026-03-24 16:30 1.02 182 7390 (1998) 89 (1996) 2320 137 176 328 491 1460 3720 4500 6170 6970
2026-03-24 15:30 1.05 191 7390 (1998) 89 (1996) 2320 137 176 328 491 1460 3720 4500 6170 6970
2026-03-24 14:30 1.07 195 7390 (1998) 89 (1996) 2320 137 176 328 491 1460 3720 4500 6170 6970
2026-03-24 13:30 1.09 200 7390 (1998) 89 (1996) 2320 137 176 328 491 1460 3720 4500 6170 6970
2026-03-24 12:30 1.12 207 7390 (1998) 89 (1996) 2320 137 176 328 491 1460 3720 4500 6170 6970
2026-03-24 11:30 1.15 215 7390 (1998) 89 (1996) 2320 137 176 328 491 1460 3720 4500 6170 6970
2026-03-24 10:30 1.17 221 7390 (1998) 89 (1996) 2320 137 176 328 491 1460 3720 4500 6170 6970
2026-03-24 09:30 1.18 224 7390 (1998) 89 (1996) 2320 137 176 328 491 1460 3720 4500 6170 6970
2026-03-24 08:30 1.23 238 7390 (1998) 89 (1996) 2320 137 176 328 491 1460 3720 4500 6170 6970
2026-03-24 07:30 1.26 247 7390 (1998) 89 (1996) 2320 137 176 328 491 1460 3720 4500 6170 6970
2026-03-24 06:30 1.30 259 7390 (1998) 89 (1996) 2320 137 176 328 491 1460 3720 4500 6170 6970
2026-03-24 05:30 1.33 268 7390 (1998) 89 (1996) 2320 137 176 328 491 1460 3720 4500 6170 6970
2026-03-24 04:30 1.37 281 7390 (1998) 89 (1996) 2320 137 176 328 491 1460 3720 4500 6170 6970
2026-03-24 03:30 1.40 290 7390 (1998) 89 (1996) 2320 137 176 328 491 1460 3720 4500 6170 6970
2026-03-24 02:30 1.44 303 7390 (1998) 89 (1996) 2320 137 176 328 491 1460 3720 4500 6170 6970
2026-03-24 01:30 1.45 307 7390 (1998) 89 (1996) 2320 137 176 328 491 1460 3720 4500 6170 6970
2026-03-24 00:30 1.39 287 7390 (1998) 89 (1996) 2320 137 176 328 491 1460 3720 4500 6170 6970
2026-03-23 23:30 1.27 250 7390 (1998) 89 (1996) 2320 137 176 328 491 1460 3720 4500 6170 6970
2026-03-23 22:30 1.07 195 7310 (2001) 85 (1996) 1980 157 169 327 370 1290 3010 3810 5830 6980
2026-03-23 21:30 0.88 145 7310 (2001) 85 (1996) 1980 157 169 327 370 1290 3010 3810 5830 6980
2026-03-23 20:30 0.87 143 7310 (2001) 85 (1996) 1980 157 169 327 370 1290 3010 3810 5830 6980
2026-03-23 19:30 0.86 140 7310 (2001) 85 (1996) 1980 157 169 327 370 1290 3010 3810 5830 6980
2026-03-23 18:30 0.85 137 7310 (2001) 85 (1996) 1980 157 169 327 370 1290 3010 3810 5830 6980
2026-03-23 17:30 0.90 151 7310 (2001) 85 (1996) 1980 157 169 327 370 1290 3010 3810 5830 6980
2026-03-23 16:30 0.86 140 7310 (2001) 85 (1996) 1980 157 169 327 370 1290 3010 3810 5830 6980
2026-03-23 15:30 0.91 153 7310 (2001) 85 (1996) 1980 157 169 327 370 1290 3010 3810 5830 6980
2026-03-23 14:30 0.88 145 7310 (2001) 85 (1996) 1980 157 169 327 370 1290 3010 3810 5830 6980
2026-03-23 13:30 0.90 151 7310 (2001) 85 (1996) 1980 157 169 327 370 1290 3010 3810 5830 6980
2026-03-23 12:30 0.88 145 7310 (2001) 85 (1996) 1980 157 169 327 370 1290 3010 3810 5830 6980
2026-03-23 11:30 0.92 156 7310 (2001) 85 (1996) 1980 157 169 327 370 1290 3010 3810 5830 6980
2026-03-23 10:30 0.90 151 7310 (2001) 85 (1996) 1980 157 169 327 370 1290 3010 3810 5830 6980
2026-03-23 09:30 0.93 158 7310 (2001) 85 (1996) 1980 157 169 327 370 1290 3010 3810 5830 6980
2026-03-23 08:30 1.00 177 7310 (2001) 85 (1996) 1980 157 169 327 370 1290 3010 3810 5830 6980
2026-03-23 07:30 1.02 182 7310 (2001) 85 (1996) 1980 157 169 327 370 1290 3010 3810 5830 6980
2026-03-23 06:30 1.03 185 7310 (2001) 85 (1996) 1980 157 169 327 370 1290 3010 3810 5830 6980
2026-03-23 05:30 1.05 191 7310 (2001) 85 (1996) 1980 157 169 327 370 1290 3010 3810 5830 6980
2026-03-23 04:30 1.07 195 7310 (2001) 85 (1996) 1980 157 169 327 370 1290 3010 3810 5830 6980
2026-03-23 03:30 1.09 200 7310 (2001) 85 (1996) 1980 157 169 327 370 1290 3010 3810 5830 6980
2026-03-23 02:30 1.11 205 7310 (2001) 85 (1996) 1980 157 169 327 370 1290 3010 3810 5830 6980
2026-03-23 01:30 1.13 210 7310 (2001) 85 (1996) 1980 157 169 327 370 1290 3010 3810 5830 6980
2026-03-23 00:30 1.16 218 7310 (2001) 85 (1996) 1980 157 169 327 370 1290 3010 3810 5830 6980
2026-03-22 23:30 1.19 226 7310 (2001) 85 (1996) 1980 157 169 327 370 1290 3010 3810 5830 6980
2026-03-22 22:30 1.22 235 7300 (2001) 93 (1996) 1970 133 170 395 450 931 2750 3870 6350 7050
2026-03-22 21:30 1.25 244 7300 (2001) 93 (1996) 1970 133 170 395 450 931 2750 3870 6350 7050
2026-03-22 20:30 1.29 256 7300 (2001) 93 (1996) 1970 133 170 395 450 931 2750 3870 6350 7050
2026-03-22 19:30 1.34 271 7300 (2001) 93 (1996) 1970 133 170 395 450 931 2750 3870 6350 7050
2026-03-22 18:30 1.38 284 7300 (2001) 93 (1996) 1970 133 170 395 450 931 2750 3870 6350 7050
2026-03-22 17:30 1.44 303 7300 (2001) 93 (1996) 1970 133 170 395 450 931 2750 3870 6350 7050
2026-03-22 16:30 1.47 313 7300 (2001) 93 (1996) 1970 133 170 395 450 931 2750 3870 6350 7050
2026-03-22 15:30 1.49 320 7300 (2001) 93 (1996) 1970 133 170 395 450 931 2750 3870 6350 7050
2026-03-22 14:30 1.55 341 7300 (2001) 93 (1996) 1970 133 170 395 450 931 2750 3870 6350 7050
2026-03-22 13:30 1.66 382 7300 (2001) 93 (1996) 1970 133 170 395 450 931 2750 3870 6350 7050
2026-03-22 12:30 1.76 421 7300 (2001) 93 (1996) 1970 133 170 395 450 931 2750 3870 6350 7050
2026-03-22 11:30 1.82 446 7300 (2001) 93 (1996) 1970 133 170 395 450 931 2750 3870 6350 7050
2026-03-22 10:30 1.94 499 7300 (2001) 93 (1996) 1970 133 170 395 450 931 2750 3870 6350 7050
2026-03-22 09:30 2.03 544 7300 (2001) 93 (1996) 1970 133 170 395 450 931 2750 3870 6350 7050
2026-03-22 08:30 2.15 613 7300 (2001) 93 (1996) 1970 133 170 395 450 931 2750 3870 6350 7050
2026-03-22 07:30 2.27 688 7300 (2001) 93 (1996) 1970 133 170 395 450 931 2750 3870 6350 7050
2026-03-22 06:30 2.40 780 7300 (2001) 93 (1996) 1970 133 170 395 450 931 2750 3870 6350 7050
2026-03-22 05:30 2.55 897 7300 (2001) 93 (1996) 1970 133 170 395 450 931 2750 3870 6350 7050
2026-03-22 04:30 2.71 1030 7300 (2001) 93 (1996) 1970 133 170 395 450 931 2750 3870 6350 7050
2026-03-22 03:30 2.88 1180 7300 (2001) 93 (1996) 1970 133 170 395 450 931 2750 3870 6350 7050
2026-03-22 02:30 3.07 1370 7300 (2001) 93 (1996) 1970 133 170 395 450 931 2750 3870 6350 7050
2026-03-22 01:30 3.28 1580 7300 (2001) 93 (1996) 1970 133 170 395 450 931 2750 3870 6350 7050
2026-03-22 00:30 3.49 1820 7300 (2001) 93 (1996) 1970 133 170 395 450 931 2750 3870 6350 7050
2026-03-21 23:30 3.71 2070 7300 (2001) 93 (1996) 1970 133 170 395 450 931 2750 3870 6350 7050
2026-03-21 22:30 3.87 2250 7250 (2001) 91 (2004) 2070 134 165 250 371 1120 3550 4610 6480 7050
2026-03-21 21:30 3.93 2320 7250 (2001) 91 (2004) 2070 134 165 250 371 1120 3550 4610 6480 7050
2026-03-21 20:30 3.53 1860 7250 (2001) 91 (2004) 2070 134 165 250 371 1120 3550 4610 6480 7050
2026-03-21 19:30 2.49 849 7250 (2001) 91 (2004) 2070 134 165 250 371 1120 3550 4610 6480 7050
2026-03-21 18:30 1.78 429 7250 (2001) 91 (2004) 2070 134 165 250 371 1120 3550 4610 6480 7050
2026-03-21 17:30 1.59 356 7250 (2001) 91 (2004) 2070 134 165 250 371 1120 3550 4610 6480 7050
2026-03-21 16:30 1.67 386 7250 (2001) 91 (2004) 2070 134 165 250 371 1120 3550 4610 6480 7050
2026-03-21 15:30 1.74 413 7250 (2001) 91 (2004) 2070 134 165 250 371 1120 3550 4610 6480 7050
2026-03-21 14:30 1.83 450 7250 (2001) 91 (2004) 2070 134 165 250 371 1120 3550 4610 6480 7050
2026-03-21 13:30 1.92 490 7250 (2001) 91 (2004) 2070 134 165 250 371 1120 3550 4610 6480 7050
2026-03-21 12:30 2.02 538 7250 (2001) 91 (2004) 2070 134 165 250 371 1120 3550 4610 6480 7050
2026-03-21 11:30 2.13 601 7250 (2001) 91 (2004) 2070 134 165 250 371 1120 3550 4610 6480 7050
2026-03-21 10:30 2.25 675 7250 (2001) 91 (2004) 2070 134 165 250 371 1120 3550 4610 6480 7050
2026-03-21 09:30 2.37 758 7250 (2001) 91 (2004) 2070 134 165 250 371 1120 3550 4610 6480 7050
2026-03-21 08:30 2.51 865 7250 (2001) 91 (2004) 2070 134 165 250 371 1120 3550 4610 6480 7050
2026-03-21 07:30 2.67 998 7250 (2001) 91 (2004) 2070 134 165 250 371 1120 3550 4610 6480 7050
2026-03-21 06:30 2.83 1140 7250 (2001) 91 (2004) 2070 134 165 250 371 1120 3550 4610 6480 7050
2026-03-21 05:30 3.02 1320 7250 (2001) 91 (2004) 2070 134 165 250 371 1120 3550 4610 6480 7050
2026-03-21 04:30 3.21 1510 7250 (2001) 91 (2004) 2070 134 165 250 371 1120 3550 4610 6480 7050
2026-03-21 03:30 3.43 1750 7250 (2001) 91 (2004) 2070 134 165 250 371 1120 3550 4610 6480 7050
2026-03-21 02:30 3.66 2010 7250 (2001) 91 (2004) 2070 134 165 250 371 1120 3550 4610 6480 7050
2026-03-21 01:30 3.88 2260 7250 (2001) 91 (2004) 2070 134 165 250 371 1120 3550 4610 6480 7050
2026-03-21 00:30 4.13 2550 7250 (2001) 91 (2004) 2070 134 165 250 371 1120 3550 4610 6480 7050
2026-03-20 23:30 4.34 2800 7250 (2001) 91 (2004) 2070 134 165 250 371 1120 3550 4610 6480 7050
2026-03-20 22:30 4.48 2970 7220 (2001) 133 (2005) 2190 151 210 450 528 1530 3070 3570 6310 6970
2026-03-20 21:30 4.32 2780 7220 (2001) 133 (2005) 2190 151 210 450 528 1530 3070 3570 6310 6970
2026-03-20 20:30 3.56 1900 7220 (2001) 133 (2005) 2190 151 210 450 528 1530 3070 3570 6310 6970
2026-03-20 19:30 2.37 758 7220 (2001) 133 (2005) 2190 151 210 450 528 1530 3070 3570 6310 6970
2026-03-20 18:30 1.61 363 7220 (2001) 133 (2005) 2190 151 210 450 528 1530 3070 3570 6310 6970
2026-03-20 17:30 1.61 363 7220 (2001) 133 (2005) 2190 151 210 450 528 1530 3070 3570 6310 6970
2026-03-20 16:30 1.68 390 7220 (2001) 133 (2005) 2190 151 210 450 528 1530 3070 3570 6310 6970
2026-03-20 15:30 1.75 417 7220 (2001) 133 (2005) 2190 151 210 450 528 1530 3070 3570 6310 6970
2026-03-20 14:30 1.84 454 7220 (2001) 133 (2005) 2190 151 210 450 528 1530 3070 3570 6310 6970
2026-03-20 13:30 1.93 494 7220 (2001) 133 (2005) 2190 151 210 450 528 1530 3070 3570 6310 6970
2026-03-20 12:30 2.03 544 7220 (2001) 133 (2005) 2190 151 210 450 528 1530 3070 3570 6310 6970
2026-03-20 11:30 2.12 595 7220 (2001) 133 (2005) 2190 151 210 450 528 1530 3070 3570 6310 6970
2026-03-20 10:30 2.26 681 7220 (2001) 133 (2005) 2190 151 210 450 528 1530 3070 3570 6310 6970
2026-03-20 09:30 2.39 773 7220 (2001) 133 (2005) 2190 151 210 450 528 1530 3070 3570 6310 6970
2026-03-20 08:30 2.53 881 7220 (2001) 133 (2005) 2190 151 210 450 528 1530 3070 3570 6310 6970
2026-03-20 07:30 2.69 1020 7220 (2001) 133 (2005) 2190 151 210 450 528 1530 3070 3570 6310 6970
2026-03-20 06:30 2.86 1160 7220 (2001) 133 (2005) 2190 151 210 450 528 1530 3070 3570 6310 6970
2026-03-20 05:30 3.05 1350 7220 (2001) 133 (2005) 2190 151 210 450 528 1530 3070 3570 6310 6970
2026-03-20 04:30 3.25 1550 7220 (2001) 133 (2005) 2190 151 210 450 528 1530 3070 3570 6310 6970
2026-03-20 03:30 3.47 1790 7220 (2001) 133 (2005) 2190 151 210 450 528 1530 3070 3570 6310 6970
2026-03-20 02:30 3.69 2040 7220 (2001) 133 (2005) 2190 151 210 450 528 1530 3070 3570 6310 6970
2026-03-20 01:30 3.91 2290 7220 (2001) 133 (2005) 2190 151 210 450 528 1530 3070 3570 6310 6970
2026-03-20 00:30 4.14 2560 7220 (2001) 133 (2005) 2190 151 210 450 528 1530 3070 3570 6310 6970
2026-03-19 23:30 4.35 2810 7220 (2001) 133 (2005) 2190 151 210 450 528 1530 3070 3570 6310 6970
2026-03-19 22:30 4.50 3000 7190 (2001) 100 (1996) 2130 131 169 342 499 1220 3570 4150 6290 6960
2026-03-19 21:30 4.38 2850 7190 (2001) 100 (1996) 2130 131 169 342 499 1220 3570 4150 6290 6960
2026-03-19 20:30 3.80 2170 7190 (2001) 100 (1996) 2130 131 169 342 499 1220 3570 4150 6290 6960
2026-03-19 19:30 3.01 1310 7190 (2001) 100 (1996) 2130 131 169 342 499 1220 3570 4150 6290 6960
2026-03-19 18:30 2.59 930 7190 (2001) 100 (1996) 2130 131 169 342 499 1220 3570 4150 6290 6960
2026-03-19 17:30 2.66 989 7190 (2001) 100 (1996) 2130 131 169 342 499 1220 3570 4150 6290 6960
2026-03-19 16:30 2.83 1140 7190 (2001) 100 (1996) 2130 131 169 342 499 1220 3570 4150 6290 6960
2026-03-19 15:30 2.98 1280 7190 (2001) 100 (1996) 2130 131 169 342 499 1220 3570 4150 6290 6960
2026-03-19 14:30 3.23 1530 7190 (2001) 100 (1996) 2130 131 169 342 499 1220 3570 4150 6290 6960
2026-03-19 13:30 3.44 1760 7190 (2001) 100 (1996) 2130 131 169 342 499 1220 3570 4150 6290 6960
2026-03-19 12:30 3.65 2000 7190 (2001) 100 (1996) 2130 131 169 342 499 1220 3570 4150 6290 6960
2026-03-19 11:30 3.81 2180 7190 (2001) 100 (1996) 2130 131 169 342 499 1220 3570 4150 6290 6960
2026-03-19 10:30 3.88 2260 7190 (2001) 100 (1996) 2130 131 169 342 499 1220 3570 4150 6290 6960
2026-03-19 09:30 3.52 1850 7190 (2001) 100 (1996) 2130 131 169 342 499 1220 3570 4150 6290 6960
2026-03-19 08:30 2.87 1170 7190 (2001) 100 (1996) 2130 131 169 342 499 1220 3570 4150 6290 6960
2026-03-19 07:30 2.77 1080 7190 (2001) 100 (1996) 2130 131 169 342 499 1220 3570 4150 6290 6960
2026-03-19 06:30 2.95 1250 7190 (2001) 100 (1996) 2130 131 169 342 499 1220 3570 4150 6290 6960
2026-03-19 05:30 3.15 1450 7190 (2001) 100 (1996) 2130 131 169 342 499 1220 3570 4150 6290 6960
2026-03-19 04:30 3.35 1660 7190 (2001) 100 (1996) 2130 131 169 342 499 1220 3570 4150 6290 6960
2026-03-19 03:30 3.58 1920 7190 (2001) 100 (1996) 2130 131 169 342 499 1220 3570 4150 6290 6960
2026-03-19 02:30 3.79 2160 7190 (2001) 100 (1996) 2130 131 169 342 499 1220 3570 4150 6290 6960
2026-03-19 01:30 4.01 2420 7190 (2001) 100 (1996) 2130 131 169 342 499 1220 3570 4150 6290 6960
2026-03-19 00:30 4.26 2700 7190 (2001) 100 (1996) 2130 131 169 342 499 1220 3570 4150 6290 6960
2026-03-18 23:30 4.46 2950 7190 (2001) 100 (1996) 2130 131 169 342 499 1220 3570 4150 6290 6960
2026-03-18 22:30 4.62 3150 7200 (2001) 92 (1996) 2150 138 191 419 659 1310 3140 3650 5580 6780
2026-03-18 21:30 4.58 3100 7200 (2001) 92 (1996) 2150 138 191 419 659 1310 3140 3650 5580 6780
2026-03-18 20:30 4.14 2560 7200 (2001) 92 (1996) 2150 138 191 419 659 1310 3140 3650 5580 6780
2026-03-18 19:30 3.64 1990 7200 (2001) 92 (1996) 2150 138 191 419 659 1310 3140 3650 5580 6780
2026-03-18 18:30 3.48 1800 7200 (2001) 92 (1996) 2150 138 191 419 659 1310 3140 3650 5580 6780
2026-03-18 17:30 3.72 2080 7200 (2001) 92 (1996) 2150 138 191 419 659 1310 3140 3650 5580 6780
2026-03-18 16:30 3.93 2320 7200 (2001) 92 (1996) 2150 138 191 419 659 1310 3140 3650 5580 6780
2026-03-18 15:30 4.18 2610 7200 (2001) 92 (1996) 2150 138 191 419 659 1310 3140 3650 5580 6780
2026-03-18 14:30 4.38 2850 7200 (2001) 92 (1996) 2150 138 191 419 659 1310 3140 3650 5580 6780
2026-03-18 13:30 4.57 3090 7200 (2001) 92 (1996) 2150 138 191 419 659 1310 3140 3650 5580 6780
2026-03-18 12:30 4.67 3220 7200 (2001) 92 (1996) 2150 138 191 419 659 1310 3140 3650 5580 6780
2026-03-18 11:30 4.60 3130 7200 (2001) 92 (1996) 2150 138 191 419 659 1310 3140 3650 5580 6780
2026-03-18 10:30 4.30 2750 7200 (2001) 92 (1996) 2150 138 191 419 659 1310 3140 3650 5580 6780
2026-03-18 09:30 3.55 1890 7200 (2001) 92 (1996) 2150 138 191 419 659 1310 3140 3650 5580 6780
2026-03-18 08:30 2.65 981 7200 (2001) 92 (1996) 2150 138 191 419 659 1310 3140 3650 5580 6780
2026-03-18 07:30 2.24 669 7200 (2001) 92 (1996) 2150 138 191 419 659 1310 3140 3650 5580 6780
2026-03-18 06:30 2.31 716 7200 (2001) 92 (1996) 2150 138 191 419 659 1310 3140 3650 5580 6780
2026-03-18 05:30 2.45 818 7200 (2001) 92 (1996) 2150 138 191 419 659 1310 3140 3650 5580 6780
2026-03-18 04:30 2.60 938 7200 (2001) 92 (1996) 2150 138 191 419 659 1310 3140 3650 5580 6780
2026-03-18 03:30 2.76 1080 7200 (2001) 92 (1996) 2150 138 191 419 659 1310 3140 3650 5580 6780
2026-03-18 02:30 2.93 1230 7200 (2001) 92 (1996) 2150 138 191 419 659 1310 3140 3650 5580 6780
2026-03-18 01:30 3.12 1420 7200 (2001) 92 (1996) 2150 138 191 419 659 1310 3140 3650 5580 6780
2026-03-18 00:30 3.32 1630 7200 (2001) 92 (1996) 2150 138 191 419 659 1310 3140 3650 5580 6780
2026-03-17 23:30 3.52 1850 7200 (2001) 92 (1996) 2150 138 191 419 659 1310 3140 3650 5580 6780
2026-03-17 22:30 3.63 1980 7020 (1973) 91 (1996) 2160 128 162 396 494 1740 3250 3670 5360 6320
2026-03-17 21:30 3.59 1930 7020 (1973) 91 (1996) 2160 128 162 396 494 1740 3250 3670 5360 6320
2026-03-17 20:30 3.50 1830 7020 (1973) 91 (1996) 2160 128 162 396 494 1740 3250 3670 5360 6320
2026-03-17 19:30 3.61 1960 7020 (1973) 91 (1996) 2160 128 162 396 494 1740 3250 3670 5360 6320
2026-03-17 18:30 3.83 2200 7020 (1973) 91 (1996) 2160 128 162 396 494 1740 3250 3670 5360 6320
2026-03-17 17:30 4.07 2480 7020 (1973) 91 (1996) 2160 128 162 396 494 1740 3250 3670 5360 6320
2026-03-17 16:30 4.31 2760 7020 (1973) 91 (1996) 2160 128 162 396 494 1740 3250 3670 5360 6320
2026-03-17 15:30 4.54 3050 7020 (1973) 91 (1996) 2160 128 162 396 494 1740 3250 3670 5360 6320
2026-03-17 14:30 4.77 3350 7020 (1973) 91 (1996) 2160 128 162 396 494 1740 3250 3670 5360 6320
2026-03-17 13:30 4.99 3650 7020 (1973) 91 (1996) 2160 128 162 396 494 1740 3250 3670 5360 6320
2026-03-17 12:30 5.24 3950 7020 (1973) 91 (1996) 2160 128 162 396 494 1740 3250 3670 5360 6320
2026-03-17 11:30 5.30 4020 7020 (1973) 91 (1996) 2160 128 162 396 494 1740 3250 3670 5360 6320
2026-03-17 10:30 5.16 3850 7020 (1973) 91 (1996) 2160 128 162 396 494 1740 3250 3670 5360 6320
2026-03-17 09:30 4.73 3300 7020 (1973) 91 (1996) 2160 128 162 396 494 1740 3250 3670 5360 6320
2026-03-17 08:30 4.28 2730 7020 (1973) 91 (1996) 2160 128 162 396 494 1740 3250 3670 5360 6320
2026-03-17 07:30 3.81 2180 7020 (1973) 91 (1996) 2160 128 162 396 494 1740 3250 3670 5360 6320
2026-03-17 06:30 3.66 2010 7020 (1973) 91 (1996) 2160 128 162 396 494 1740 3250 3670 5360 6320
2026-03-17 05:30 3.89 2270 7020 (1973) 91 (1996) 2160 128 162 396 494 1740 3250 3670 5360 6320
2026-03-17 04:30 4.12 2540 7020 (1973) 91 (1996) 2160 128 162 396 494 1740 3250 3670 5360 6320
2026-03-17 03:30 4.36 2830 7020 (1973) 91 (1996) 2160 128 162 396 494 1740 3250 3670 5360 6320
2026-03-17 02:30 4.58 3100 7020 (1973) 91 (1996) 2160 128 162 396 494 1740 3250 3670 5360 6320
2026-03-17 01:30 4.79 3380 7020 (1973) 91 (1996) 2160 128 162 396 494 1740 3250 3670 5360 6320
2026-03-17 00:30 4.96 3620 7020 (1973) 91 (1996) 2160 128 162 396 494 1740 3250 3670 5360 6320
2026-03-16 23:30 5.03 3700 7020 (1973) 91 (1996) 2160 128 162 396 494 1740 3250 3670 5360 6320
2026-03-16 22:30 4.69 3250 7190 (2023) 104 (2006) 2220 147 188 368 512 1990 3210 3340 5310 6910
2026-03-16 21:30 4.20 2630 7190 (2023) 104 (2006) 2220 147 188 368 512 1990 3210 3340 5310 6910
2026-03-16 20:30 3.43 1750 7190 (2023) 104 (2006) 2220 147 188 368 512 1990 3210 3340 5310 6910
2026-03-16 19:30 2.72 1040 7190 (2023) 104 (2006) 2220 147 188 368 512 1990 3210 3340 5310 6910
2026-03-16 18:30 2.63 963 7190 (2023) 104 (2006) 2220 147 188 368 512 1990 3210 3340 5310 6910
2026-03-16 17:30 2.78 1090 7190 (2023) 104 (2006) 2220 147 188 368 512 1990 3210 3340 5310 6910
2026-03-16 16:30 2.96 1260 7190 (2023) 104 (2006) 2220 147 188 368 512 1990 3210 3340 5310 6910
2026-03-16 15:30 3.17 1470 7190 (2023) 104 (2006) 2220 147 188 368 512 1990 3210 3340 5310 6910
2026-03-16 14:30 3.38 1690 7190 (2023) 104 (2006) 2220 147 188 368 512 1990 3210 3340 5310 6910
2026-03-16 13:30 3.58 1920 7190 (2023) 104 (2006) 2220 147 188 368 512 1990 3210 3340 5310 6910
2026-03-16 12:30 3.73 2090 7190 (2023) 104 (2006) 2220 147 188 368 512 1990 3210 3340 5310 6910
2026-03-16 11:30 3.67 2020 7190 (2023) 104 (2006) 2220 147 188 368 512 1990 3210 3340 5310 6910
2026-03-16 10:30 2.86 1160 7190 (2023) 104 (2006) 2220 147 188 368 512 1990 3210 3340 5310 6910
2026-03-16 09:30 1.35 275 7190 (2023) 104 (2006) 2220 147 188 368 512 1990 3210 3340 5310 6910
2026-03-16 08:30 0.78 116 7190 (2023) 104 (2006) 2220 147 188 368 512 1990 3210 3340 5310 6910
2026-03-16 07:30 0.83 132 7190 (2023) 104 (2006) 2220 147 188 368 512 1990 3210 3340 5310 6910
2026-03-16 06:30 0.83 132 7190 (2023) 104 (2006) 2220 147 188 368 512 1990 3210 3340 5310 6910
2026-03-16 05:30 0.83 132 7190 (2023) 104 (2006) 2220 147 188 368 512 1990 3210 3340 5310 6910
2026-03-16 04:30 0.79 119 7190 (2023) 104 (2006) 2220 147 188 368 512 1990 3210 3340 5310 6910
2026-03-16 03:30 0.81 125 7190 (2023) 104 (2006) 2220 147 188 368 512 1990 3210 3340 5310 6910
2026-03-16 02:30 0.78 116 7190 (2023) 104 (2006) 2220 147 188 368 512 1990 3210 3340 5310 6910
2026-03-16 01:30 0.81 125 7190 (2023) 104 (2006) 2220 147 188 368 512 1990 3210 3340 5310 6910
2026-03-16 00:30 0.81 125 7190 (2023) 104 (2006) 2220 147 188 368 512 1990 3210 3340 5310 6910
2026-03-15 23:30 0.84 135 7190 (2023) 104 (2006) 2220 147 188 368 512 1990 3210 3340 5310 6910
2026-03-15 22:30 0.79 119 6870 (2023) 107 (2004) 1770 168 271 352 424 1170 2650 3250 4270 6120
2026-03-15 21:30 0.80 122 6870 (2023) 107 (2004) 1770 168 271 352 424 1170 2650 3250 4270 6120
2026-03-15 20:30 0.77 113 6870 (2023) 107 (2004) 1770 168 271 352 424 1170 2650 3250 4270 6120
2026-03-15 19:30 0.78 116 6870 (2023) 107 (2004) 1770 168 271 352 424 1170 2650 3250 4270 6120
2026-03-15 18:30 0.80 122 6870 (2023) 107 (2004) 1770 168 271 352 424 1170 2650 3250 4270 6120
2026-03-15 17:30 0.79 119 6870 (2023) 107 (2004) 1770 168 271 352 424 1170 2650 3250 4270 6120
2026-03-15 16:30 0.84 135 6870 (2023) 107 (2004) 1770 168 271 352 424 1170 2650 3250 4270 6120
2026-03-15 15:30 0.77 113 6870 (2023) 107 (2004) 1770 168 271 352 424 1170 2650 3250 4270 6120
2026-03-15 14:30 0.83 132 6870 (2023) 107 (2004) 1770 168 271 352 424 1170 2650 3250 4270 6120
2026-03-15 13:30 0.87 143 6870 (2023) 107 (2004) 1770 168 271 352 424 1170 2650 3250 4270 6120
2026-03-15 12:30 0.87 143 6870 (2023) 107 (2004) 1770 168 271 352 424 1170 2650 3250 4270 6120
2026-03-15 11:30 0.84 135 6870 (2023) 107 (2004) 1770 168 271 352 424 1170 2650 3250 4270 6120
2026-03-15 10:30 0.84 135 6870 (2023) 107 (2004) 1770 168 271 352 424 1170 2650 3250 4270 6120
2026-03-15 09:30 0.88 145 6870 (2023) 107 (2004) 1770 168 271 352 424 1170 2650 3250 4270 6120
2026-03-15 08:30 0.87 143 6870 (2023) 107 (2004) 1770 168 271 352 424 1170 2650 3250 4270 6120
2026-03-15 07:30 0.88 145 6870 (2023) 107 (2004) 1770 168 271 352 424 1170 2650 3250 4270 6120
2026-03-15 06:30 0.88 145 6870 (2023) 107 (2004) 1770 168 271 352 424 1170 2650 3250 4270 6120
2026-03-15 05:30 0.88 145 6870 (2023) 107 (2004) 1770 168 271 352 424 1170 2650 3250 4270 6120
2026-03-15 04:30 0.88 145 6870 (2023) 107 (2004) 1770 168 271 352 424 1170 2650 3250 4270 6120
2026-03-15 03:30 0.88 145 6870 (2023) 107 (2004) 1770 168 271 352 424 1170 2650 3250 4270 6120
2026-03-15 02:30 0.88 145 6870 (2023) 107 (2004) 1770 168 271 352 424 1170 2650 3250 4270 6120
2026-03-15 01:30 0.88 145 6870 (2023) 107 (2004) 1770 168 271 352 424 1170 2650 3250 4270 6120
2026-03-15 00:30 0.88 145 6870 (2023) 107 (2004) 1770 168 271 352 424 1170 2650 3250 4270 6120
2026-03-14 23:30 0.88 145 6870 (2023) 107 (2004) 1770 168 271 352 424 1170 2650 3250 4270 6120
2026-03-14 22:30 0.89 148 6840 (1983) 74 (1996) 1670 114 145 207 241 928 2750 3190 3810 5050
2026-03-14 21:30 0.89 148 6840 (1983) 74 (1996) 1670 114 145 207 241 928 2750 3190 3810 5050
2026-03-14 20:30 0.89 148 6840 (1983) 74 (1996) 1670 114 145 207 241 928 2750 3190 3810 5050
2026-03-14 19:30 0.90 151 6840 (1983) 74 (1996) 1670 114 145 207 241 928 2750 3190 3810 5050
2026-03-14 18:30 0.92 156 6840 (1983) 74 (1996) 1670 114 145 207 241 928 2750 3190 3810 5050
2026-03-14 17:30 0.91 153 6840 (1983) 74 (1996) 1670 114 145 207 241 928 2750 3190 3810 5050
2026-03-14 16:30 0.92 156 6840 (1983) 74 (1996) 1670 114 145 207 241 928 2750 3190 3810 5050
2026-03-14 15:30 0.93 158 6840 (1983) 74 (1996) 1670 114 145 207 241 928 2750 3190 3810 5050
2026-03-14 14:30 0.92 156 6840 (1983) 74 (1996) 1670 114 145 207 241 928 2750 3190 3810 5050
2026-03-14 13:30 0.91 153 6840 (1983) 74 (1996) 1670 114 145 207 241 928 2750 3190 3810 5050
2026-03-14 12:30 0.94 161 6840 (1983) 74 (1996) 1670 114 145 207 241 928 2750 3190 3810 5050
2026-03-14 11:30 0.94 161 6840 (1983) 74 (1996) 1670 114 145 207 241 928 2750 3190 3810 5050
2026-03-14 10:30 0.95 163 6840 (1983) 74 (1996) 1670 114 145 207 241 928 2750 3190 3810 5050
2026-03-14 09:30 0.95 163 6840 (1983) 74 (1996) 1670 114 145 207 241 928 2750 3190 3810 5050
2026-03-14 08:30 0.95 163 6840 (1983) 74 (1996) 1670 114 145 207 241 928 2750 3190 3810 5050
2026-03-14 07:30 0.96 166 6840 (1983) 74 (1996) 1670 114 145 207 241 928 2750 3190 3810 5050
2026-03-14 06:30 0.97 168 6840 (1983) 74 (1996) 1670 114 145 207 241 928 2750 3190 3810 5050
2026-03-14 05:30 0.97 168 6840 (1983) 74 (1996) 1670 114 145 207 241 928 2750 3190 3810 5050
2026-03-14 04:30 0.98 171 6840 (1983) 74 (1996) 1670 114 145 207 241 928 2750 3190 3810 5050
2026-03-14 03:30 0.99 174 6840 (1983) 74 (1996) 1670 114 145 207 241 928 2750 3190 3810 5050
2026-03-14 02:30 1.00 177 6840 (1983) 74 (1996) 1670 114 145 207 241 928 2750 3190 3810 5050
2026-03-14 01:30 1.00 177 6840 (1983) 74 (1996) 1670 114 145 207 241 928 2750 3190 3810 5050
2026-03-14 00:30 1.01 180 6840 (1983) 74 (1996) 1670 114 145 207 241 928 2750 3190 3810 5050
2026-03-13 23:30 1.03 185 6840 (1983) 74 (1996) 1670 114 145 207 241 928 2750 3190 3810 5050
2026-03-13 22:30 1.03 185 6820 (1983) 77 (1996) 1760 101 150 274 361 1330 2890 3260 3900 5110
2026-03-13 21:30 1.05 191 6820 (1983) 77 (1996) 1760 101 150 274 361 1330 2890 3260 3900 5110
2026-03-13 20:30 1.06 193 6820 (1983) 77 (1996) 1760 101 150 274 361 1330 2890 3260 3900 5110
2026-03-13 19:30 1.08 197 6820 (1983) 77 (1996) 1760 101 150 274 361 1330 2890 3260 3900 5110
2026-03-13 18:30 1.10 202 6820 (1983) 77 (1996) 1760 101 150 274 361 1330 2890 3260 3900 5110
2026-03-13 17:30 1.13 210 6820 (1983) 77 (1996) 1760 101 150 274 361 1330 2890 3260 3900 5110
2026-03-13 16:30 1.15 215 6820 (1983) 77 (1996) 1760 101 150 274 361 1330 2890 3260 3900 5110
2026-03-13 15:30 1.16 218 6820 (1983) 77 (1996) 1760 101 150 274 361 1330 2890 3260 3900 5110
2026-03-13 14:30 1.17 221 6820 (1983) 77 (1996) 1760 101 150 274 361 1330 2890 3260 3900 5110
2026-03-13 13:30 1.21 232 6820 (1983) 77 (1996) 1760 101 150 274 361 1330 2890 3260 3900 5110
2026-03-13 12:30 1.23 238 6820 (1983) 77 (1996) 1760 101 150 274 361 1330 2890 3260 3900 5110
2026-03-13 11:30 1.25 244 6820 (1983) 77 (1996) 1760 101 150 274 361 1330 2890 3260 3900 5110
2026-03-13 10:30 1.28 253 6820 (1983) 77 (1996) 1760 101 150 274 361 1330 2890 3260 3900 5110
2026-03-13 09:30 1.30 259 6820 (1983) 77 (1996) 1760 101 150 274 361 1330 2890 3260 3900 5110
2026-03-13 08:30 1.33 268 6820 (1983) 77 (1996) 1760 101 150 274 361 1330 2890 3260 3900 5110
2026-03-13 07:30 1.37 281 6820 (1983) 77 (1996) 1760 101 150 274 361 1330 2890 3260 3900 5110
2026-03-13 06:30 1.40 290 6820 (1983) 77 (1996) 1760 101 150 274 361 1330 2890 3260 3900 5110
2026-03-13 05:30 1.44 303 6820 (1983) 77 (1996) 1760 101 150 274 361 1330 2890 3260 3900 5110
2026-03-13 04:30 1.49 320 6820 (1983) 77 (1996) 1760 101 150 274 361 1330 2890 3260 3900 5110
2026-03-13 03:30 1.54 338 6820 (1983) 77 (1996) 1760 101 150 274 361 1330 2890 3260 3900 5110
2026-03-13 02:30 1.59 356 6820 (1983) 77 (1996) 1760 101 150 274 361 1330 2890 3260 3900 5110
2026-03-13 01:30 1.65 378 6820 (1983) 77 (1996) 1760 101 150 274 361 1330 2890 3260 3900 5110
2026-03-13 00:30 1.71 401 6820 (1983) 77 (1996) 1760 101 150 274 361 1330 2890 3260 3900 5110
2026-03-12 23:30 1.78 429 6820 (1983) 77 (1996) 1760 101 150 274 361 1330 2890 3260 3900 5110
2026-03-12 22:30 1.86 463 6950 (1997) 106 (2006) 1800 116 152 439 485 1370 2700 3390 3810 5410
2026-03-12 21:30 1.94 499 6950 (1997) 106 (2006) 1800 116 152 439 485 1370 2700 3390 3810 5410
2026-03-12 20:30 2.04 549 6950 (1997) 106 (2006) 1800 116 152 439 485 1370 2700 3390 3810 5410
2026-03-12 19:30 2.15 613 6950 (1997) 106 (2006) 1800 116 152 439 485 1370 2700 3390 3810 5410
2026-03-12 18:30 2.26 681 6950 (1997) 106 (2006) 1800 116 152 439 485 1370 2700 3390 3810 5410
2026-03-12 17:30 2.39 773 6950 (1997) 106 (2006) 1800 116 152 439 485 1370 2700 3390 3810 5410
2026-03-12 16:30 2.53 881 6950 (1997) 106 (2006) 1800 116 152 439 485 1370 2700 3390 3810 5410
2026-03-12 15:30 2.68 1010 6950 (1997) 106 (2006) 1800 116 152 439 485 1370 2700 3390 3810 5410
2026-03-12 14:30 2.83 1140 6950 (1997) 106 (2006) 1800 116 152 439 485 1370 2700 3390 3810 5410
2026-03-12 13:30 2.98 1280 6950 (1997) 106 (2006) 1800 116 152 439 485 1370 2700 3390 3810 5410
2026-03-12 12:30 3.15 1450 6950 (1997) 106 (2006) 1800 116 152 439 485 1370 2700 3390 3810 5410
2026-03-12 11:30 3.17 1470 6950 (1997) 106 (2006) 1800 116 152 439 485 1370 2700 3390 3810 5410
2026-03-12 10:30 2.85 1160 6950 (1997) 106 (2006) 1800 116 152 439 485 1370 2700 3390 3810 5410
2026-03-12 09:30 1.85 459 6950 (1997) 106 (2006) 1800 116 152 439 485 1370 2700 3390 3810 5410
2026-03-12 08:30 1.20 229 6950 (1997) 106 (2006) 1800 116 152 439 485 1370 2700 3390 3810 5410
2026-03-12 07:30 1.20 229 6950 (1997) 106 (2006) 1800 116 152 439 485 1370 2700 3390 3810 5410
2026-03-12 06:30 1.22 235 6950 (1997) 106 (2006) 1800 116 152 439 485 1370 2700 3390 3810 5410
2026-03-12 05:30 1.24 241 6950 (1997) 106 (2006) 1800 116 152 439 485 1370 2700 3390 3810 5410
2026-03-12 04:30 1.25 244 6950 (1997) 106 (2006) 1800 116 152 439 485 1370 2700 3390 3810 5410
2026-03-12 03:30 1.27 250 6950 (1997) 106 (2006) 1800 116 152 439 485 1370 2700 3390 3810 5410
2026-03-12 02:30 1.28 253 6950 (1997) 106 (2006) 1800 116 152 439 485 1370 2700 3390 3810 5410
2026-03-12 01:30 1.30 259 6950 (1997) 106 (2006) 1800 116 152 439 485 1370 2700 3390 3810 5410
2026-03-12 00:30 1.28 253 6950 (1997) 106 (2006) 1800 116 152 439 485 1370 2700 3390 3810 5410
2026-03-11 23:30 1.35 275 6950 (1997) 106 (2006) 1800 116 152 439 485 1370 2700 3390 3810 5410
2026-03-11 22:30 1.38 284 7250 (2001) 76 (1996) 1810 149 177 325 463 1030 2780 3230 4060 6780
2026-03-11 21:30 1.40 290 7250 (2001) 76 (1996) 1810 149 177 325 463 1030 2780 3230 4060 6780
2026-03-11 20:30 1.42 297 7250 (2001) 76 (1996) 1810 149 177 325 463 1030 2780 3230 4060 6780
2026-03-11 19:30 1.46 310 7250 (2001) 76 (1996) 1810 149 177 325 463 1030 2780 3230 4060 6780
2026-03-11 18:30 1.48 317 7250 (2001) 76 (1996) 1810 149 177 325 463 1030 2780 3230 4060 6780
2026-03-11 17:30 1.52 331 7250 (2001) 76 (1996) 1810 149 177 325 463 1030 2780 3230 4060 6780
2026-03-11 16:30 1.54 338 7250 (2001) 76 (1996) 1810 149 177 325 463 1030 2780 3230 4060 6780
2026-03-11 15:30 1.58 352 7250 (2001) 76 (1996) 1810 149 177 325 463 1030 2780 3230 4060 6780
2026-03-11 14:30 1.62 367 7250 (2001) 76 (1996) 1810 149 177 325 463 1030 2780 3230 4060 6780
2026-03-11 13:30 1.67 386 7250 (2001) 76 (1996) 1810 149 177 325 463 1030 2780 3230 4060 6780
2026-03-11 12:30 1.73 409 7250 (2001) 76 (1996) 1810 149 177 325 463 1030 2780 3230 4060 6780
2026-03-11 11:30 1.79 433 7250 (2001) 76 (1996) 1810 149 177 325 463 1030 2780 3230 4060 6780
2026-03-11 10:30 1.84 454 7250 (2001) 76 (1996) 1810 149 177 325 463 1030 2780 3230 4060 6780
2026-03-11 09:30 1.92 490 7250 (2001) 76 (1996) 1810 149 177 325 463 1030 2780 3230 4060 6780
2026-03-11 08:30 1.99 522 7250 (2001) 76 (1996) 1810 149 177 325 463 1030 2780 3230 4060 6780
2026-03-11 07:30 2.07 566 7250 (2001) 76 (1996) 1810 149 177 325 463 1030 2780 3230 4060 6780
2026-03-11 06:30 2.16 619 7250 (2001) 76 (1996) 1810 149 177 325 463 1030 2780 3230 4060 6780
2026-03-11 05:30 2.27 688 7250 (2001) 76 (1996) 1810 149 177 325 463 1030 2780 3230 4060 6780
2026-03-11 04:30 2.36 751 7250 (2001) 76 (1996) 1810 149 177 325 463 1030 2780 3230 4060 6780
2026-03-11 03:30 2.50 857 7250 (2001) 76 (1996) 1810 149 177 325 463 1030 2780 3230 4060 6780
2026-03-11 02:30 2.64 972 7250 (2001) 76 (1996) 1810 149 177 325 463 1030 2780 3230 4060 6780
2026-03-11 01:30 2.81 1120 7250 (2001) 76 (1996) 1810 149 177 325 463 1030 2780 3230 4060 6780
2026-03-11 00:30 2.95 1250 7250 (2001) 76 (1996) 1810 149 177 325 463 1030 2780 3230 4060 6780
2026-03-10 23:30 3.09 1390 7250 (2001) 76 (1996) 1810 149 177 325 463 1030 2780 3230 4060 6780
2026-03-10 22:30 3.10 1400 7150 (2001) 105 (2006) 1860 131 211 286 409 1450 2780 3170 4550 6770
2026-03-10 21:30 2.74 1060 7150 (2001) 105 (2006) 1860 131 211 286 409 1450 2780 3170 4550 6770
2026-03-10 20:30 1.70 397 7150 (2001) 105 (2006) 1860 131 211 286 409 1450 2780 3170 4550 6770
2026-03-10 19:30 1.08 197 7150 (2001) 105 (2006) 1860 131 211 286 409 1450 2780 3170 4550 6770
2026-03-10 18:30 1.09 200 7150 (2001) 105 (2006) 1860 131 211 286 409 1450 2780 3170 4550 6770
2026-03-10 17:30 1.09 200 7150 (2001) 105 (2006) 1860 131 211 286 409 1450 2780 3170 4550 6770
2026-03-10 16:30 1.09 200 7150 (2001) 105 (2006) 1860 131 211 286 409 1450 2780 3170 4550 6770
2026-03-10 15:30 1.14 213 7150 (2001) 105 (2006) 1860 131 211 286 409 1450 2780 3170 4550 6770
2026-03-10 14:30 1.16 218 7150 (2001) 105 (2006) 1860 131 211 286 409 1450 2780 3170 4550 6770
2026-03-10 13:30 1.17 221 7150 (2001) 105 (2006) 1860 131 211 286 409 1450 2780 3170 4550 6770
2026-03-10 12:30 1.20 229 7150 (2001) 105 (2006) 1860 131 211 286 409 1450 2780 3170 4550 6770
2026-03-10 11:30 1.22 235 7150 (2001) 105 (2006) 1860 131 211 286 409 1450 2780 3170 4550 6770
2026-03-10 10:30 1.25 244 7150 (2001) 105 (2006) 1860 131 211 286 409 1450 2780 3170 4550 6770
2026-03-10 09:30 1.28 253 7150 (2001) 105 (2006) 1860 131 211 286 409 1450 2780 3170 4550 6770
2026-03-10 08:30 1.31 262 7150 (2001) 105 (2006) 1860 131 211 286 409 1450 2780 3170 4550 6770
2026-03-10 07:30 1.34 271 7150 (2001) 105 (2006) 1860 131 211 286 409 1450 2780 3170 4550 6770
2026-03-10 06:30 1.37 281 7150 (2001) 105 (2006) 1860 131 211 286 409 1450 2780 3170 4550 6770
2026-03-10 05:30 1.41 294 7150 (2001) 105 (2006) 1860 131 211 286 409 1450 2780 3170 4550 6770
2026-03-10 04:30 1.45 307 7150 (2001) 105 (2006) 1860 131 211 286 409 1450 2780 3170 4550 6770
2026-03-10 03:30 1.49 320 7150 (2001) 105 (2006) 1860 131 211 286 409 1450 2780 3170 4550 6770
2026-03-10 02:30 1.52 331 7150 (2001) 105 (2006) 1860 131 211 286 409 1450 2780 3170 4550 6770
2026-03-10 01:30 1.53 334 7150 (2001) 105 (2006) 1860 131 211 286 409 1450 2780 3170 4550 6770
2026-03-10 00:30 1.51 327 7150 (2001) 105 (2006) 1860 131 211 286 409 1450 2780 3170 4550 6770
2026-03-09 23:30 1.42 297 7150 (2001) 105 (2006) 1860 131 211 286 409 1450 2780 3170 4550 6770
2026-03-09 22:30 1.23 238 7120 (2001) 103 (2006) 1860 124 160 322 455 902 3020 3410 4520 6750
2026-03-09 21:30 1.03 185 7120 (2001) 103 (2006) 1860 124 160 322 455 902 3020 3410 4520 6750
2026-03-09 20:30 0.98 171 7120 (2001) 103 (2006) 1860 124 160 322 455 902 3020 3410 4520 6750
2026-03-09 19:30 0.99 174 7120 (2001) 103 (2006) 1860 124 160 322 455 902 3020 3410 4520 6750
2026-03-09 18:30 0.99 174 7120 (2001) 103 (2006) 1860 124 160 322 455 902 3020 3410 4520 6750
2026-03-09 17:30 1.01 180 7120 (2001) 103 (2006) 1860 124 160 322 455 902 3020 3410 4520 6750
2026-03-09 16:30 1.01 180 7120 (2001) 103 (2006) 1860 124 160 322 455 902 3020 3410 4520 6750
2026-03-09 15:30 1.01 180 7120 (2001) 103 (2006) 1860 124 160 322 455 902 3020 3410 4520 6750
2026-03-09 14:30 1.01 180 7120 (2001) 103 (2006) 1860 124 160 322 455 902 3020 3410 4520 6750
2026-03-09 13:30 1.02 182 7120 (2001) 103 (2006) 1860 124 160 322 455 902 3020 3410 4520 6750
2026-03-09 12:30 1.03 185 7120 (2001) 103 (2006) 1860 124 160 322 455 902 3020 3410 4520 6750
2026-03-09 11:30 1.03 185 7120 (2001) 103 (2006) 1860 124 160 322 455 902 3020 3410 4520 6750
2026-03-09 10:30 1.04 188 7120 (2001) 103 (2006) 1860 124 160 322 455 902 3020 3410 4520 6750
2026-03-09 09:30 1.04 188 7120 (2001) 103 (2006) 1860 124 160 322 455 902 3020 3410 4520 6750
2026-03-09 08:30 1.05 191 7120 (2001) 103 (2006) 1860 124 160 322 455 902 3020 3410 4520 6750
2026-03-09 07:30 1.06 193 7120 (2001) 103 (2006) 1860 124 160 322 455 902 3020 3410 4520 6750
2026-03-09 06:30 1.07 195 7120 (2001) 103 (2006) 1860 124 160 322 455 902 3020 3410 4520 6750
2026-03-09 05:30 1.08 197 7120 (2001) 103 (2006) 1860 124 160 322 455 902 3020 3410 4520 6750
2026-03-09 04:30 1.09 200 7120 (2001) 103 (2006) 1860 124 160 322 455 902 3020 3410 4520 6750
2026-03-09 03:30 1.09 200 7120 (2001) 103 (2006) 1860 124 160 322 455 902 3020 3410 4520 6750
2026-03-09 02:30 1.10 202 7120 (2001) 103 (2006) 1860 124 160 322 455 902 3020 3410 4520 6750
2026-03-09 01:30 1.11 205 7120 (2001) 103 (2006) 1860 124 160 322 455 902 3020 3410 4520 6750
2026-03-09 00:30 1.12 207 7120 (2001) 103 (2006) 1860 124 160 322 455 902 3020 3410 4520 6750
2026-03-08 23:30 1.13 210 7120 (2001) 103 (2006) 1860 124 160 322 455 902 3020 3410 4520 6750
2026-03-08 22:30 1.14 213 7620 (1985) 101 (2006) 1890 122 156 280 459 1170 2820 3440 4850 6800
2026-03-08 21:30 1.15 215 7620 (1985) 101 (2006) 1890 122 156 280 459 1170 2820 3440 4850 6800
2026-03-08 20:30 1.17 221 7620 (1985) 101 (2006) 1890 122 156 280 459 1170 2820 3440 4850 6800
2026-03-08 19:30 1.18 224 7620 (1985) 101 (2006) 1890 122 156 280 459 1170 2820 3440 4850 6800
2026-03-08 18:30 1.20 229 7620 (1985) 101 (2006) 1890 122 156 280 459 1170 2820 3440 4850 6800
2026-03-08 17:30 1.22 235 7620 (1985) 101 (2006) 1890 122 156 280 459 1170 2820 3440 4850 6800
2026-03-08 16:30 1.23 238 7620 (1985) 101 (2006) 1890 122 156 280 459 1170 2820 3440 4850 6800
2026-03-08 15:30 1.24 241 7620 (1985) 101 (2006) 1890 122 156 280 459 1170 2820 3440 4850 6800
2026-03-08 14:30 1.26 247 7620 (1985) 101 (2006) 1890 122 156 280 459 1170 2820 3440 4850 6800
2026-03-08 13:30 1.27 250 7620 (1985) 101 (2006) 1890 122 156 280 459 1170 2820 3440 4850 6800
2026-03-08 12:30 1.29 256 7620 (1985) 101 (2006) 1890 122 156 280 459 1170 2820 3440 4850 6800
2026-03-08 11:30 1.30 259 7620 (1985) 101 (2006) 1890 122 156 280 459 1170 2820 3440 4850 6800
2026-03-08 10:30 1.32 265 7620 (1985) 101 (2006) 1890 122 156 280 459 1170 2820 3440 4850 6800
2026-03-08 09:30 1.33 268 7620 (1985) 101 (2006) 1890 122 156 280 459 1170 2820 3440 4850 6800
2026-03-08 08:30 1.35 275 7620 (1985) 101 (2006) 1890 122 156 280 459 1170 2820 3440 4850 6800
2026-03-08 07:30 1.37 281 7620 (1985) 101 (2006) 1890 122 156 280 459 1170 2820 3440 4850 6800
2026-03-08 06:30 1.39 287 7620 (1985) 101 (2006) 1890 122 156 280 459 1170 2820 3440 4850 6800
2026-03-08 05:30 1.40 290 7620 (1985) 101 (2006) 1890 122 156 280 459 1170 2820 3440 4850 6800
2026-03-08 04:30 1.42 297 7620 (1985) 101 (2006) 1890 122 156 280 459 1170 2820 3440 4850 6800
2026-03-08 03:30 1.43 300 7620 (1985) 101 (2006) 1890 122 156 280 459 1170 2820 3440 4850 6800
2026-03-08 01:30 1.45 307 7620 (1985) 101 (2006) 1890 122 156 280 459 1170 2820 3440 4850 6800
2026-03-08 00:30 1.46 310 7620 (1985) 101 (2006) 1890 122 156 280 459 1170 2820 3440 4850 6800
2026-03-07 23:30 1.47 313 7620 (1985) 101 (2006) 1890 122 156 280 459 1170 2820 3440 4850 6800
2026-03-07 22:30 1.47 313 8030 (1985) 105 (1999) 1870 110 148 315 378 1050 3230 3390 5020 6200
2026-03-07 21:30 1.46 310 8030 (1985) 105 (1999) 1870 110 148 315 378 1050 3230 3390 5020 6200
2026-03-07 20:30 1.46 310 8030 (1985) 105 (1999) 1870 110 148 315 378 1050 3230 3390 5020 6200
2026-03-07 19:30 1.43 300 8030 (1985) 105 (1999) 1870 110 148 315 378 1050 3230 3390 5020 6200
2026-03-07 18:30 1.40 290 8030 (1985) 105 (1999) 1870 110 148 315 378 1050 3230 3390 5020 6200
2026-03-07 17:30 1.35 275 8030 (1985) 105 (1999) 1870 110 148 315 378 1050 3230 3390 5020 6200
2026-03-07 16:30 1.30 259 8030 (1985) 105 (1999) 1870 110 148 315 378 1050 3230 3390 5020 6200
2026-03-07 15:30 1.23 238 8030 (1985) 105 (1999) 1870 110 148 315 378 1050 3230 3390 5020 6200
2026-03-07 14:30 1.19 226 8030 (1985) 105 (1999) 1870 110 148 315 378 1050 3230 3390 5020 6200
2026-03-07 13:30 1.15 215 8030 (1985) 105 (1999) 1870 110 148 315 378 1050 3230 3390 5020 6200
2026-03-07 12:30 1.12 207 8030 (1985) 105 (1999) 1870 110 148 315 378 1050 3230 3390 5020 6200
2026-03-07 11:30 1.08 197 8030 (1985) 105 (1999) 1870 110 148 315 378 1050 3230 3390 5020 6200
2026-03-07 10:30 1.01 180 8030 (1985) 105 (1999) 1870 110 148 315 378 1050 3230 3390 5020 6200
2026-03-07 09:30 0.97 168 8030 (1985) 105 (1999) 1870 110 148 315 378 1050 3230 3390 5020 6200
2026-03-07 08:30 0.93 158 8030 (1985) 105 (1999) 1870 110 148 315 378 1050 3230 3390 5020 6200
2026-03-07 07:30 0.85 137 8030 (1985) 105 (1999) 1870 110 148 315 378 1050 3230 3390 5020 6200
2026-03-07 06:30 0.81 125 8030 (1985) 105 (1999) 1870 110 148 315 378 1050 3230 3390 5020 6200
2026-03-07 05:30 0.83 132 8030 (1985) 105 (1999) 1870 110 148 315 378 1050 3230 3390 5020 6200
2026-03-07 04:30 0.81 125 8030 (1985) 105 (1999) 1870 110 148 315 378 1050 3230 3390 5020 6200
2026-03-07 03:30 0.81 125 8030 (1985) 105 (1999) 1870 110 148 315 378 1050 3230 3390 5020 6200
2026-03-07 02:30 0.83 132 8030 (1985) 105 (1999) 1870 110 148 315 378 1050 3230 3390 5020 6200
2026-03-07 01:30 0.80 122 8030 (1985) 105 (1999) 1870 110 148 315 378 1050 3230 3390 5020 6200
2026-03-07 00:30 0.82 128 8030 (1985) 105 (1999) 1870 110 148 315 378 1050 3230 3390 5020 6200
2026-03-06 23:30 0.81 125 8030 (1985) 105 (1999) 1870 110 148 315 378 1050 3230 3390 5020 6200
2026-03-06 22:30 0.83 132 8000 (1985) 96 (2006) 1760 113 159 249 293 1430 2700 3020 4200 5390
2026-03-06 21:30 0.86 140 8000 (1985) 96 (2006) 1760 113 159 249 293 1430 2700 3020 4200 5390
2026-03-06 20:30 0.87 143 8000 (1985) 96 (2006) 1760 113 159 249 293 1430 2700 3020 4200 5390
2026-03-06 19:30 0.88 145 8000 (1985) 96 (2006) 1760 113 159 249 293 1430 2700 3020 4200 5390
2026-03-06 18:30 0.89 148 8000 (1985) 96 (2006) 1760 113 159 249 293 1430 2700 3020 4200 5390
2026-03-06 17:30 0.90 151 8000 (1985) 96 (2006) 1760 113 159 249 293 1430 2700 3020 4200 5390
2026-03-06 16:30 0.88 145 8000 (1985) 96 (2006) 1760 113 159 249 293 1430 2700 3020 4200 5390
2026-03-06 15:30 0.87 143 8000 (1985) 96 (2006) 1760 113 159 249 293 1430 2700 3020 4200 5390
2026-03-06 14:30 0.91 153 8000 (1985) 96 (2006) 1760 113 159 249 293 1430 2700 3020 4200 5390
2026-03-06 13:30 0.89 148 8000 (1985) 96 (2006) 1760 113 159 249 293 1430 2700 3020 4200 5390
2026-03-06 12:30 0.91 153 8000 (1985) 96 (2006) 1760 113 159 249 293 1430 2700 3020 4200 5390
2026-03-06 11:30 0.92 156 8000 (1985) 96 (2006) 1760 113 159 249 293 1430 2700 3020 4200 5390
2026-03-06 10:30 0.95 163 8000 (1985) 96 (2006) 1760 113 159 249 293 1430 2700 3020 4200 5390
2026-03-06 09:30 1.00 177 8000 (1985) 96 (2006) 1760 113 159 249 293 1430 2700 3020 4200 5390
2026-03-06 08:30 1.02 182 8000 (1985) 96 (2006) 1760 113 159 249 293 1430 2700 3020 4200 5390
2026-03-06 07:30 1.03 185 8000 (1985) 96 (2006) 1760 113 159 249 293 1430 2700 3020 4200 5390
2026-03-06 06:30 1.05 191 8000 (1985) 96 (2006) 1760 113 159 249 293 1430 2700 3020 4200 5390
2026-03-06 05:30 1.07 195 8000 (1985) 96 (2006) 1760 113 159 249 293 1430 2700 3020 4200 5390
2026-03-06 04:30 1.09 200 8000 (1985) 96 (2006) 1760 113 159 249 293 1430 2700 3020 4200 5390
2026-03-06 03:30 1.11 205 8000 (1985) 96 (2006) 1760 113 159 249 293 1430 2700 3020 4200 5390
2026-03-06 02:30 1.14 213 8000 (1985) 96 (2006) 1760 113 159 249 293 1430 2700 3020 4200 5390
2026-03-06 01:30 1.18 224 8000 (1985) 96 (2006) 1760 113 159 249 293 1430 2700 3020 4200 5390
2026-03-06 00:30 1.20 229 8000 (1985) 96 (2006) 1760 113 159 249 293 1430 2700 3020 4200 5390
2026-03-05 23:30 1.24 241 8000 (1985) 96 (2006) 1760 113 159 249 293 1430 2700 3020 4200 5390
2026-03-05 22:30 1.27 250 7970 (1985) 94 (2006) 1660 121 129 230 452 932 2960 3610 3920 4230
2026-03-05 21:30 1.31 262 7970 (1985) 94 (2006) 1660 121 129 230 452 932 2960 3610 3920 4230
2026-03-05 20:30 1.35 275 7970 (1985) 94 (2006) 1660 121 129 230 452 932 2960 3610 3920 4230
2026-03-05 19:30 1.40 290 7970 (1985) 94 (2006) 1660 121 129 230 452 932 2960 3610 3920 4230
2026-03-05 18:30 1.45 307 7970 (1985) 94 (2006) 1660 121 129 230 452 932 2960 3610 3920 4230
2026-03-05 17:30 1.52 331 7970 (1985) 94 (2006) 1660 121 129 230 452 932 2960 3610 3920 4230
2026-03-05 16:30 1.58 352 7970 (1985) 94 (2006) 1660 121 129 230 452 932 2960 3610 3920 4230
2026-03-05 15:30 1.63 371 7970 (1985) 94 (2006) 1660 121 129 230 452 932 2960 3610 3920 4230
2026-03-05 14:30 1.68 390 7970 (1985) 94 (2006) 1660 121 129 230 452 932 2960 3610 3920 4230
2026-03-05 13:30 1.76 421 7970 (1985) 94 (2006) 1660 121 129 230 452 932 2960 3610 3920 4230
2026-03-05 12:30 1.85 459 7970 (1985) 94 (2006) 1660 121 129 230 452 932 2960 3610 3920 4230
2026-03-05 11:30 1.98 518 7970 (1985) 94 (2006) 1660 121 129 230 452 932 2960 3610 3920 4230
2026-03-05 10:30 2.09 578 7970 (1985) 94 (2006) 1660 121 129 230 452 932 2960 3610 3920 4230
2026-03-05 09:30 2.20 643 7970 (1985) 94 (2006) 1660 121 129 230 452 932 2960 3610 3920 4230
2026-03-05 08:30 2.33 730 7970 (1985) 94 (2006) 1660 121 129 230 452 932 2960 3610 3920 4230
2026-03-05 07:30 2.48 841 7970 (1985) 94 (2006) 1660 121 129 230 452 932 2960 3610 3920 4230
2026-03-05 06:30 2.63 963 7970 (1985) 94 (2006) 1660 121 129 230 452 932 2960 3610 3920 4230
2026-03-05 05:30 2.80 1110 7970 (1985) 94 (2006) 1660 121 129 230 452 932 2960 3610 3920 4230
2026-03-05 04:30 2.97 1270 7970 (1985) 94 (2006) 1660 121 129 230 452 932 2960 3610 3920 4230
2026-03-05 03:30 3.18 1480 7970 (1985) 94 (2006) 1660 121 129 230 452 932 2960 3610 3920 4230
2026-03-05 02:30 3.39 1700 7970 (1985) 94 (2006) 1660 121 129 230 452 932 2960 3610 3920 4230
2026-03-05 01:30 3.60 1950 7970 (1985) 94 (2006) 1660 121 129 230 452 932 2960 3610 3920 4230
2026-03-05 00:30 3.83 2200 7970 (1985) 94 (2006) 1660 121 129 230 452 932 2960 3610 3920 4230
2026-03-04 23:30 4.03 2440 7970 (1985) 94 (2006) 1660 121 129 230 452 932 2960 3610 3920 4230
2026-03-04 22:30 4.07 2480 5170 (1989) 96 (2006) 1650 126 152 212 260 1070 2830 3240 3730 5000
2026-03-04 21:30 3.57 1910 5170 (1989) 96 (2006) 1650 126 152 212 260 1070 2830 3240 3730 5000
2026-03-04 20:30 2.13 601 5170 (1989) 96 (2006) 1650 126 152 212 260 1070 2830 3240 3730 5000
2026-03-04 19:30 0.93 158 5170 (1989) 96 (2006) 1650 126 152 212 260 1070 2830 3240 3730 5000
2026-03-04 18:30 0.81 125 5170 (1989) 96 (2006) 1650 126 152 212 260 1070 2830 3240 3730 5000
2026-03-04 17:30 0.80 122 5170 (1989) 96 (2006) 1650 126 152 212 260 1070 2830 3240 3730 5000
2026-03-04 16:30 0.81 125 5170 (1989) 96 (2006) 1650 126 152 212 260 1070 2830 3240 3730 5000
2026-03-04 15:30 0.77 113 5170 (1989) 96 (2006) 1650 126 152 212 260 1070 2830 3240 3730 5000
2026-03-04 14:30 0.82 128 5170 (1989) 96 (2006) 1650 126 152 212 260 1070 2830 3240 3730 5000
2026-03-04 13:30 0.83 132 5170 (1989) 96 (2006) 1650 126 152 212 260 1070 2830 3240 3730 5000
2026-03-04 12:30 0.83 132 5170 (1989) 96 (2006) 1650 126 152 212 260 1070 2830 3240 3730 5000
2026-03-04 11:30 0.84 135 5170 (1989) 96 (2006) 1650 126 152 212 260 1070 2830 3240 3730 5000
2026-03-04 10:30 0.85 137 5170 (1989) 96 (2006) 1650 126 152 212 260 1070 2830 3240 3730 5000
2026-03-04 09:30 0.86 140 5170 (1989) 96 (2006) 1650 126 152 212 260 1070 2830 3240 3730 5000
2026-03-04 08:30 0.86 140 5170 (1989) 96 (2006) 1650 126 152 212 260 1070 2830 3240 3730 5000
2026-03-04 07:30 0.86 140 5170 (1989) 96 (2006) 1650 126 152 212 260 1070 2830 3240 3730 5000
2026-03-04 06:30 0.87 143 5170 (1989) 96 (2006) 1650 126 152 212 260 1070 2830 3240 3730 5000
2026-03-04 05:30 0.88 145 5170 (1989) 96 (2006) 1650 126 152 212 260 1070 2830 3240 3730 5000
2026-03-04 04:30 0.89 148 5170 (1989) 96 (2006) 1650 126 152 212 260 1070 2830 3240 3730 5000
2026-03-04 03:30 0.89 148 5170 (1989) 96 (2006) 1650 126 152 212 260 1070 2830 3240 3730 5000
2026-03-04 02:30 0.90 151 5170 (1989) 96 (2006) 1650 126 152 212 260 1070 2830 3240 3730 5000
2026-03-04 01:30 0.91 153 5170 (1989) 96 (2006) 1650 126 152 212 260 1070 2830 3240 3730 5000
2026-03-04 00:30 0.92 156 5170 (1989) 96 (2006) 1650 126 152 212 260 1070 2830 3240 3730 5000
2026-03-03 23:30 0.93 158 5170 (1989) 96 (2006) 1650 126 152 212 260 1070 2830 3240 3730 5000
2026-03-03 22:30 0.94 161 7670 (1989) 96 (2006) 1610 126 170 308 347 1160 2360 2460 3310 5290
2026-03-03 21:30 0.96 166 7670 (1989) 96 (2006) 1610 126 170 308 347 1160 2360 2460 3310 5290
2026-03-03 20:30 0.97 168 7670 (1989) 96 (2006) 1610 126 170 308 347 1160 2360 2460 3310 5290
2026-03-03 19:30 0.98 171 7670 (1989) 96 (2006) 1610 126 170 308 347 1160 2360 2460 3310 5290
2026-03-03 18:30 1.01 180 7670 (1989) 96 (2006) 1610 126 170 308 347 1160 2360 2460 3310 5290
2026-03-03 17:30 1.03 185 7670 (1989) 96 (2006) 1610 126 170 308 347 1160 2360 2460 3310 5290
2026-03-03 16:30 1.04 188 7670 (1989) 96 (2006) 1610 126 170 308 347 1160 2360 2460 3310 5290
2026-03-03 15:30 1.00 177 7670 (1989) 96 (2006) 1610 126 170 308 347 1160 2360 2460 3310 5290
2026-03-03 14:30 1.04 188 7670 (1989) 96 (2006) 1610 126 170 308 347 1160 2360 2460 3310 5290
2026-03-03 13:30 1.09 200 7670 (1989) 96 (2006) 1610 126 170 308 347 1160 2360 2460 3310 5290
2026-03-03 12:30 1.13 210 7670 (1989) 96 (2006) 1610 126 170 308 347 1160 2360 2460 3310 5290
2026-03-03 11:30 1.12 207 7670 (1989) 96 (2006) 1610 126 170 308 347 1160 2360 2460 3310 5290
2026-03-03 10:30 1.20 229 7670 (1989) 96 (2006) 1610 126 170 308 347 1160 2360 2460 3310 5290
2026-03-03 09:30 1.23 238 7670 (1989) 96 (2006) 1610 126 170 308 347 1160 2360 2460 3310 5290
2026-03-03 08:30 1.27 250 7670 (1989) 96 (2006) 1610 126 170 308 347 1160 2360 2460 3310 5290
2026-03-03 07:30 1.31 262 7670 (1989) 96 (2006) 1610 126 170 308 347 1160 2360 2460 3310 5290
2026-03-03 06:30 1.35 275 7670 (1989) 96 (2006) 1610 126 170 308 347 1160 2360 2460 3310 5290
2026-03-03 05:30 1.39 287 7670 (1989) 96 (2006) 1610 126 170 308 347 1160 2360 2460 3310 5290
2026-03-03 04:30 1.44 303 7670 (1989) 96 (2006) 1610 126 170 308 347 1160 2360 2460 3310 5290
2026-03-03 03:30 1.50 324 7670 (1989) 96 (2006) 1610 126 170 308 347 1160 2360 2460 3310 5290
2026-03-03 02:30 1.56 345 7670 (1989) 96 (2006) 1610 126 170 308 347 1160 2360 2460 3310 5290
2026-03-03 01:30 1.62 367 7670 (1989) 96 (2006) 1610 126 170 308 347 1160 2360 2460 3310 5290
2026-03-03 00:30 1.69 393 7670 (1989) 96 (2006) 1610 126 170 308 347 1160 2360 2460 3310 5290
2026-03-02 23:30 1.77 425 7670 (1989) 96 (2006) 1610 126 170 308 347 1160 2360 2460 3310 5290
2026-03-02 22:30 1.86 463 7460 (1989) 98 (2006) 1540 118 152 235 383 819 2130 2490 4060 5790
2026-03-02 21:30 1.95 503 7460 (1989) 98 (2006) 1540 118 152 235 383 819 2130 2490 4060 5790
2026-03-02 20:30 2.06 560 7460 (1989) 98 (2006) 1540 118 152 235 383 819 2130 2490 4060 5790
2026-03-02 19:30 2.17 625 7460 (1989) 98 (2006) 1540 118 152 235 383 819 2130 2490 4060 5790
2026-03-02 18:30 2.31 716 7460 (1989) 98 (2006) 1540 118 152 235 383 819 2130 2490 4060 5790
2026-03-02 17:30 2.44 810 7460 (1989) 98 (2006) 1540 118 152 235 383 819 2130 2490 4060 5790
2026-03-02 16:30 2.59 930 7460 (1989) 98 (2006) 1540 118 152 235 383 819 2130 2490 4060 5790
2026-03-02 15:30 2.73 1050 7460 (1989) 98 (2006) 1540 118 152 235 383 819 2130 2490 4060 5790
2026-03-02 14:30 2.88 1180 7460 (1989) 98 (2006) 1540 118 152 235 383 819 2130 2490 4060 5790
2026-03-02 13:30 2.94 1240 7460 (1989) 98 (2006) 1540 118 152 235 383 819 2130 2490 4060 5790
2026-03-02 12:30 2.77 1080 7460 (1989) 98 (2006) 1540 118 152 235 383 819 2130 2490 4060 5790
2026-03-02 11:30 2.06 560 7460 (1989) 98 (2006) 1540 118 152 235 383 819 2130 2490 4060 5790
2026-03-02 10:30 1.12 207 7460 (1989) 98 (2006) 1540 118 152 235 383 819 2130 2490 4060 5790
2026-03-02 09:30 0.77 113 7460 (1989) 98 (2006) 1540 118 152 235 383 819 2130 2490 4060 5790
2026-03-02 08:30 0.77 113 7460 (1989) 98 (2006) 1540 118 152 235 383 819 2130 2490 4060 5790
2026-03-02 07:30 0.76 110 7460 (1989) 98 (2006) 1540 118 152 235 383 819 2130 2490 4060 5790
2026-03-02 06:30 0.76 110 7460 (1989) 98 (2006) 1540 118 152 235 383 819 2130 2490 4060 5790
2026-03-02 05:30 0.77 113 7460 (1989) 98 (2006) 1540 118 152 235 383 819 2130 2490 4060 5790
2026-03-02 04:30 0.77 113 7460 (1989) 98 (2006) 1540 118 152 235 383 819 2130 2490 4060 5790
2026-03-02 03:30 0.77 113 7460 (1989) 98 (2006) 1540 118 152 235 383 819 2130 2490 4060 5790
2026-03-02 02:30 0.76 110 7460 (1989) 98 (2006) 1540 118 152 235 383 819 2130 2490 4060 5790
2026-03-02 01:30 0.76 110 7460 (1989) 98 (2006) 1540 118 152 235 383 819 2130 2490 4060 5790
2026-03-02 00:30 0.76 110 7460 (1989) 98 (2006) 1540 118 152 235 383 819 2130 2490 4060 5790
2026-03-01 23:30 0.77 113 7460 (1989) 98 (2006) 1540 118 152 235 383 819 2130 2490 4060 5790
2026-03-01 22:30 0.77 113 7310 (2023) 86 (2004) 1630 102 143 320 419 954 2200 2470 4440 6510
2026-03-01 21:30 0.77 113 7310 (2023) 86 (2004) 1630 102 143 320 419 954 2200 2470 4440 6510
2026-03-01 20:30 0.77 113 7310 (2023) 86 (2004) 1630 102 143 320 419 954 2200 2470 4440 6510
2026-03-01 19:30 0.77 113 7310 (2023) 86 (2004) 1630 102 143 320 419 954 2200 2470 4440 6510
2026-03-01 18:30 0.78 116 7310 (2023) 86 (2004) 1630 102 143 320 419 954 2200 2470 4440 6510
2026-03-01 17:30 0.73 101 7310 (2023) 86 (2004) 1630 102 143 320 419 954 2200 2470 4440 6510
2026-03-01 16:30 0.75 108 7310 (2023) 86 (2004) 1630 102 143 320 419 954 2200 2470 4440 6510
2026-03-01 15:30 0.74 104 7310 (2023) 86 (2004) 1630 102 143 320 419 954 2200 2470 4440 6510
2026-03-01 14:30 0.75 108 7310 (2023) 86 (2004) 1630 102 143 320 419 954 2200 2470 4440 6510
2026-03-01 13:30 0.74 104 7310 (2023) 86 (2004) 1630 102 143 320 419 954 2200 2470 4440 6510
2026-03-01 12:30 0.75 108 7310 (2023) 86 (2004) 1630 102 143 320 419 954 2200 2470 4440 6510
2026-03-01 11:30 0.80 122 7310 (2023) 86 (2004) 1630 102 143 320 419 954 2200 2470 4440 6510
2026-03-01 10:30 0.80 122 7310 (2023) 86 (2004) 1630 102 143 320 419 954 2200 2470 4440 6510
2026-03-01 09:30 0.79 119 7310 (2023) 86 (2004) 1630 102 143 320 419 954 2200 2470 4440 6510
2026-03-01 08:30 0.79 119 7310 (2023) 86 (2004) 1630 102 143 320 419 954 2200 2470 4440 6510
2026-03-01 07:30 0.80 122 7310 (2023) 86 (2004) 1630 102 143 320 419 954 2200 2470 4440 6510
2026-03-01 06:30 0.80 122 7310 (2023) 86 (2004) 1630 102 143 320 419 954 2200 2470 4440 6510
2026-03-01 05:30 0.80 122 7310 (2023) 86 (2004) 1630 102 143 320 419 954 2200 2470 4440 6510
2026-03-01 04:30 0.81 125 7310 (2023) 86 (2004) 1630 102 143 320 419 954 2200 2470 4440 6510
2026-03-01 03:30 0.80 122 7310 (2023) 86 (2004) 1630 102 143 320 419 954 2200 2470 4440 6510
2026-03-01 02:30 0.80 122 7310 (2023) 86 (2004) 1630 102 143 320 419 954 2200 2470 4440 6510
2026-03-01 01:30 0.81 125 7310 (2023) 86 (2004) 1630 102 143 320 419 954 2200 2470 4440 6510
2026-03-01 00:30 0.81 125 7310 (2023) 86 (2004) 1630 102 143 320 419 954 2200 2470 4440 6510
2026-02-28 23:30 0.81 125 7310 (2023) 86 (2004) 1630 102 143 320 419 954 2200 2470 4440 6510
2026-02-28 22:30 0.82 128 7260 (2023) 105 (2006) 1810 120 184 337 519 1300 2360 3080 4430 6490
2026-02-28 21:30 0.82 128 7260 (2023) 105 (2006) 1810 120 184 337 519 1300 2360 3080 4430 6490
2026-02-28 20:30 0.83 132 7260 (2023) 105 (2006) 1810 120 184 337 519 1300 2360 3080 4430 6490
2026-02-28 19:30 0.83 132 7260 (2023) 105 (2006) 1810 120 184 337 519 1300 2360 3080 4430 6490
2026-02-28 18:30 0.85 137 7260 (2023) 105 (2006) 1810 120 184 337 519 1300 2360 3080 4430 6490
2026-02-28 17:30 0.86 140 7260 (2023) 105 (2006) 1810 120 184 337 519 1300 2360 3080 4430 6490
2026-02-28 16:30 0.85 137 7260 (2023) 105 (2006) 1810 120 184 337 519 1300 2360 3080 4430 6490
2026-02-28 15:30 0.87 143 7260 (2023) 105 (2006) 1810 120 184 337 519 1300 2360 3080 4430 6490
2026-02-28 14:30 0.89 148 7260 (2023) 105 (2006) 1810 120 184 337 519 1300 2360 3080 4430 6490
2026-02-28 13:30 0.90 151 7260 (2023) 105 (2006) 1810 120 184 337 519 1300 2360 3080 4430 6490
2026-02-28 12:30 0.91 153 7260 (2023) 105 (2006) 1810 120 184 337 519 1300 2360 3080 4430 6490
2026-02-28 11:30 0.92 156 7260 (2023) 105 (2006) 1810 120 184 337 519 1300 2360 3080 4430 6490
2026-02-28 10:30 0.93 158 7260 (2023) 105 (2006) 1810 120 184 337 519 1300 2360 3080 4430 6490
2026-02-28 09:30 0.94 161 7260 (2023) 105 (2006) 1810 120 184 337 519 1300 2360 3080 4430 6490
2026-02-28 08:30 0.94 161 7260 (2023) 105 (2006) 1810 120 184 337 519 1300 2360 3080 4430 6490
2026-02-28 07:30 0.95 163 7260 (2023) 105 (2006) 1810 120 184 337 519 1300 2360 3080 4430 6490
2026-02-28 06:30 0.97 168 7260 (2023) 105 (2006) 1810 120 184 337 519 1300 2360 3080 4430 6490
2026-02-28 05:30 0.98 171 7260 (2023) 105 (2006) 1810 120 184 337 519 1300 2360 3080 4430 6490
2026-02-28 04:30 1.00 177 7260 (2023) 105 (2006) 1810 120 184 337 519 1300 2360 3080 4430 6490
2026-02-28 03:30 1.01 180 7260 (2023) 105 (2006) 1810 120 184 337 519 1300 2360 3080 4430 6490
2026-02-28 02:30 1.03 185 7260 (2023) 105 (2006) 1810 120 184 337 519 1300 2360 3080 4430 6490
2026-02-28 01:30 1.05 191 7260 (2023) 105 (2006) 1810 120 184 337 519 1300 2360 3080 4430 6490
2026-02-28 00:30 1.08 197 7260 (2023) 105 (2006) 1810 120 184 337 519 1300 2360 3080 4430 6490
2026-02-27 23:30 1.10 202 7260 (2023) 105 (2006) 1810 120 184 337 519 1300 2360 3080 4430 6490
2026-02-27 22:30 1.12 207 7400 (2001) 103 (2006) 1900 142 197 352 403 1200 2810 3040 4480 7040
2026-02-27 21:30 1.15 215 7400 (2001) 103 (2006) 1900 142 197 352 403 1200 2810 3040 4480 7040
2026-02-27 20:30 1.17 221 7400 (2001) 103 (2006) 1900 142 197 352 403 1200 2810 3040 4480 7040
2026-02-27 19:30 1.21 232 7400 (2001) 103 (2006) 1900 142 197 352 403 1200 2810 3040 4480 7040
2026-02-27 18:30 1.24 241 7400 (2001) 103 (2006) 1900 142 197 352 403 1200 2810 3040 4480 7040
2026-02-27 17:30 1.29 256 7400 (2001) 103 (2006) 1900 142 197 352 403 1200 2810 3040 4480 7040
2026-02-27 16:30 1.33 268 7400 (2001) 103 (2006) 1900 142 197 352 403 1200 2810 3040 4480 7040
2026-02-27 15:30 1.37 281 7400 (2001) 103 (2006) 1900 142 197 352 403 1200 2810 3040 4480 7040
2026-02-27 14:30 1.43 300 7400 (2001) 103 (2006) 1900 142 197 352 403 1200 2810 3040 4480 7040
2026-02-27 13:30 1.48 317 7400 (2001) 103 (2006) 1900 142 197 352 403 1200 2810 3040 4480 7040
2026-02-27 12:30 1.54 338 7400 (2001) 103 (2006) 1900 142 197 352 403 1200 2810 3040 4480 7040
2026-02-27 11:30 1.60 360 7400 (2001) 103 (2006) 1900 142 197 352 403 1200 2810 3040 4480 7040
2026-02-27 10:30 1.66 382 7400 (2001) 103 (2006) 1900 142 197 352 403 1200 2810 3040 4480 7040
2026-02-27 09:30 1.74 413 7400 (2001) 103 (2006) 1900 142 197 352 403 1200 2810 3040 4480 7040
2026-02-27 08:30 1.82 446 7400 (2001) 103 (2006) 1900 142 197 352 403 1200 2810 3040 4480 7040
2026-02-27 07:30 1.91 485 7400 (2001) 103 (2006) 1900 142 197 352 403 1200 2810 3040 4480 7040
2026-02-27 06:30 2.01 533 7400 (2001) 103 (2006) 1900 142 197 352 403 1200 2810 3040 4480 7040
2026-02-27 05:30 2.12 595 7400 (2001) 103 (2006) 1900 142 197 352 403 1200 2810 3040 4480 7040
2026-02-27 04:30 2.24 669 7400 (2001) 103 (2006) 1900 142 197 352 403 1200 2810 3040 4480 7040
2026-02-27 03:30 2.37 758 7400 (2001) 103 (2006) 1900 142 197 352 403 1200 2810 3040 4480 7040
2026-02-27 02:30 2.51 865 7400 (2001) 103 (2006) 1900 142 197 352 403 1200 2810 3040 4480 7040
2026-02-27 01:30 2.67 998 7400 (2001) 103 (2006) 1900 142 197 352 403 1200 2810 3040 4480 7040
2026-02-27 00:30 2.83 1140 7400 (2001) 103 (2006) 1900 142 197 352 403 1200 2810 3040 4480 7040
2026-02-26 23:30 2.99 1290 7400 (2001) 103 (2006) 1900 142 197 352 403 1200 2810 3040 4480 7040
2026-02-26 22:30 3.07 1370 7300 (2023) 76 (1996) 2080 117 169 390 618 1600 2540 3170 5300 7100
2026-02-26 21:30 3.00 1300 7300 (2023) 76 (1996) 2080 117 169 390 618 1600 2540 3170 5300 7100
2026-02-26 20:30 2.57 913 7300 (2023) 76 (1996) 2080 117 169 390 618 1600 2540 3170 5300 7100
2026-02-26 19:30 2.16 619 7300 (2023) 76 (1996) 2080 117 169 390 618 1600 2540 3170 5300 7100
2026-02-26 18:30 2.21 650 7300 (2023) 76 (1996) 2080 117 169 390 618 1600 2540 3170 5300 7100
2026-02-26 17:30 2.34 737 7300 (2023) 76 (1996) 2080 117 169 390 618 1600 2540 3170 5300 7100
2026-02-26 16:30 2.49 849 7300 (2023) 76 (1996) 2080 117 169 390 618 1600 2540 3170 5300 7100
2026-02-26 15:30 2.64 972 7300 (2023) 76 (1996) 2080 117 169 390 618 1600 2540 3170 5300 7100
2026-02-26 14:30 2.76 1080 7300 (2023) 76 (1996) 2080 117 169 390 618 1600 2540 3170 5300 7100
2026-02-26 13:30 2.98 1280 7300 (2023) 76 (1996) 2080 117 169 390 618 1600 2540 3170 5300 7100
2026-02-26 12:30 3.15 1450 7300 (2023) 76 (1996) 2080 117 169 390 618 1600 2540 3170 5300 7100
2026-02-26 11:30 3.28 1580 7300 (2023) 76 (1996) 2080 117 169 390 618 1600 2540 3170 5300 7100
2026-02-26 10:30 3.12 1420 7300 (2023) 76 (1996) 2080 117 169 390 618 1600 2540 3170 5300 7100
2026-02-26 09:30 2.46 825 7300 (2023) 76 (1996) 2080 117 169 390 618 1600 2540 3170 5300 7100
2026-02-26 08:30 1.90 481 7300 (2023) 76 (1996) 2080 117 169 390 618 1600 2540 3170 5300 7100
2026-02-26 07:30 1.92 490 7300 (2023) 76 (1996) 2080 117 169 390 618 1600 2540 3170 5300 7100
2026-02-26 06:30 2.03 544 7300 (2023) 76 (1996) 2080 117 169 390 618 1600 2540 3170 5300 7100
2026-02-26 05:30 2.15 613 7300 (2023) 76 (1996) 2080 117 169 390 618 1600 2540 3170 5300 7100
2026-02-26 04:30 2.27 688 7300 (2023) 76 (1996) 2080 117 169 390 618 1600 2540 3170 5300 7100
2026-02-26 03:30 2.42 795 7300 (2023) 76 (1996) 2080 117 169 390 618 1600 2540 3170 5300 7100
2026-02-26 02:30 2.58 921 7300 (2023) 76 (1996) 2080 117 169 390 618 1600 2540 3170 5300 7100
2026-02-26 01:30 2.75 1070 7300 (2023) 76 (1996) 2080 117 169 390 618 1600 2540 3170 5300 7100
2026-02-26 00:30 2.92 1220 7300 (2023) 76 (1996) 2080 117 169 390 618 1600 2540 3170 5300 7100
2026-02-25 23:30 3.09 1390 7300 (2023) 76 (1996) 2080 117 169 390 618 1600 2540 3170 5300 7100
2026-02-25 22:30 3.24 1540 7340 (2023) 68 (1996) 1900 119 179 380 592 1750 2760 2890 3490 7000
2026-02-25 21:30 3.20 1500 7340 (2023) 68 (1996) 1900 119 179 380 592 1750 2760 2890 3490 7000
2026-02-25 20:30 2.91 1210 7340 (2023) 68 (1996) 1900 119 179 380 592 1750 2760 2890 3490 7000
2026-02-25 19:30 2.85 1160 7340 (2023) 68 (1996) 1900 119 179 380 592 1750 2760 2890 3490 7000
2026-02-25 18:30 3.04 1340 7340 (2023) 68 (1996) 1900 119 179 380 592 1750 2760 2890 3490 7000
2026-02-25 17:30 3.24 1540 7340 (2023) 68 (1996) 1900 119 179 380 592 1750 2760 2890 3490 7000
2026-02-25 16:30 3.45 1770 7340 (2023) 68 (1996) 1900 119 179 380 592 1750 2760 2890 3490 7000
2026-02-25 15:30 3.68 2030 7340 (2023) 68 (1996) 1900 119 179 380 592 1750 2760 2890 3490 7000
2026-02-25 14:30 3.91 2290 7340 (2023) 68 (1996) 1900 119 179 380 592 1750 2760 2890 3490 7000
2026-02-25 13:30 4.16 2590 7340 (2023) 68 (1996) 1900 119 179 380 592 1750 2760 2890 3490 7000
2026-02-25 12:30 4.34 2800 7340 (2023) 68 (1996) 1900 119 179 380 592 1750 2760 2890 3490 7000
2026-02-25 11:30 4.50 3000 7340 (2023) 68 (1996) 1900 119 179 380 592 1750 2760 2890 3490 7000
2026-02-25 10:30 4.34 2800 7340 (2023) 68 (1996) 1900 119 179 380 592 1750 2760 2890 3490 7000
2026-02-25 09:30 3.56 1900 7340 (2023) 68 (1996) 1900 119 179 380 592 1750 2760 2890 3490 7000
2026-02-25 08:30 2.29 702 7340 (2023) 68 (1996) 1900 119 179 380 592 1750 2760 2890 3490 7000
2026-02-25 07:30 1.54 338 7340 (2023) 68 (1996) 1900 119 179 380 592 1750 2760 2890 3490 7000
2026-02-25 06:30 1.54 338 7340 (2023) 68 (1996) 1900 119 179 380 592 1750 2760 2890 3490 7000
2026-02-25 05:30 1.60 360 7340 (2023) 68 (1996) 1900 119 179 380 592 1750 2760 2890 3490 7000
2026-02-25 04:30 1.67 386 7340 (2023) 68 (1996) 1900 119 179 380 592 1750 2760 2890 3490 7000
2026-02-25 03:30 1.75 417 7340 (2023) 68 (1996) 1900 119 179 380 592 1750 2760 2890 3490 7000
2026-02-25 02:30 1.83 450 7340 (2023) 68 (1996) 1900 119 179 380 592 1750 2760 2890 3490 7000
2026-02-25 01:30 1.92 490 7340 (2023) 68 (1996) 1900 119 179 380 592 1750 2760 2890 3490 7000
2026-02-25 00:30 2.01 533 7340 (2023) 68 (1996) 1900 119 179 380 592 1750 2760 2890 3490 7000
2026-02-24 23:30 2.12 595 7340 (2023) 68 (1996) 1900 119 179 380 592 1750 2760 2890 3490 7000
2026-02-24 22:30 2.24 669 7470 (2023) 66 (1996) 1850 129 152 217 479 1300 2630 2910 4340 6470
2026-02-24 21:30 2.37 758 7470 (2023) 66 (1996) 1850 129 152 217 479 1300 2630 2910 4340 6470
2026-02-24 20:30 2.52 873 7470 (2023) 66 (1996) 1850 129 152 217 479 1300 2630 2910 4340 6470
2026-02-24 19:30 2.68 1010 7470 (2023) 66 (1996) 1850 129 152 217 479 1300 2630 2910 4340 6470
2026-02-24 18:30 2.85 1160 7470 (2023) 66 (1996) 1850 129 152 217 479 1300 2630 2910 4340 6470
2026-02-24 17:30 3.00 1300 7470 (2023) 66 (1996) 1850 129 152 217 479 1300 2630 2910 4340 6470
2026-02-24 16:30 3.20 1500 7470 (2023) 66 (1996) 1850 129 152 217 479 1300 2630 2910 4340 6470
2026-02-24 15:30 3.42 1740 7470 (2023) 66 (1996) 1850 129 152 217 479 1300 2630 2910 4340 6470
2026-02-24 14:30 3.65 2000 7470 (2023) 66 (1996) 1850 129 152 217 479 1300 2630 2910 4340 6470
2026-02-24 13:30 3.88 2260 7470 (2023) 66 (1996) 1850 129 152 217 479 1300 2630 2910 4340 6470
2026-02-24 12:30 4.14 2560 7470 (2023) 66 (1996) 1850 129 152 217 479 1300 2630 2910 4340 6470
2026-02-24 11:30 4.37 2840 7470 (2023) 66 (1996) 1850 129 152 217 479 1300 2630 2910 4340 6470
2026-02-24 10:30 4.56 3080 7470 (2023) 66 (1996) 1850 129 152 217 479 1300 2630 2910 4340 6470
2026-02-24 09:30 4.68 3230 7470 (2023) 66 (1996) 1850 129 152 217 479 1300 2630 2910 4340 6470
2026-02-24 08:30 4.63 3170 7470 (2023) 66 (1996) 1850 129 152 217 479 1300 2630 2910 4340 6470
2026-02-24 07:30 4.59 3120 7470 (2023) 66 (1996) 1850 129 152 217 479 1300 2630 2910 4340 6470
2026-02-24 06:30 4.48 2970 7470 (2023) 66 (1996) 1850 129 152 217 479 1300 2630 2910 4340 6470
2026-02-24 05:30 4.39 2860 7470 (2023) 66 (1996) 1850 129 152 217 479 1300 2630 2910 4340 6470
2026-02-24 04:30 4.27 2720 7470 (2023) 66 (1996) 1850 129 152 217 479 1300 2630 2910 4340 6470
2026-02-24 03:30 4.17 2600 7470 (2023) 66 (1996) 1850 129 152 217 479 1300 2630 2910 4340 6470
2026-02-24 02:30 4.10 2520 7470 (2023) 66 (1996) 1850 129 152 217 479 1300 2630 2910 4340 6470
2026-02-24 01:30 4.16 2590 7470 (2023) 66 (1996) 1850 129 152 217 479 1300 2630 2910 4340 6470
2026-02-24 00:30 4.38 2850 7470 (2023) 66 (1996) 1850 129 152 217 479 1300 2630 2910 4340 6470
2026-02-23 23:30 4.57 3090 7470 (2023) 66 (1996) 1850 129 152 217 479 1300 2630 2910 4340 6470
2026-02-23 22:30 4.64 3180 7370 (2020) 68 (1996) 1920 97 207 362 462 1320 2840 2940 4400 7060
2026-02-23 21:30 4.41 2890 7370 (2020) 68 (1996) 1920 97 207 362 462 1320 2840 2940 4400 7060
2026-02-23 20:30 4.09 2510 7370 (2020) 68 (1996) 1920 97 207 362 462 1320 2840 2940 4400 7060
2026-02-23 19:30 3.93 2320 7370 (2020) 68 (1996) 1920 97 207 362 462 1320 2840 2940 4400 7060
2026-02-23 18:30 3.97 2370 7370 (2020) 68 (1996) 1920 97 207 362 462 1320 2840 2940 4400 7060
2026-02-23 17:30 4.22 2660 7370 (2020) 68 (1996) 1920 97 207 362 462 1320 2840 2940 4400 7060
2026-02-23 16:30 4.49 2990 7370 (2020) 68 (1996) 1920 97 207 362 462 1320 2840 2940 4400 7060
2026-02-23 15:30 4.81 3410 7370 (2020) 68 (1996) 1920 97 207 362 462 1320 2840 2940 4400 7060
2026-02-23 14:30 5.21 3910 7370 (2020) 68 (1996) 1920 97 207 362 462 1320 2840 2940 4400 7060
2026-02-23 13:30 5.93 4840 7370 (2020) 68 (1996) 1920 97 207 362 462 1320 2840 2940 4400 7060
2026-02-23 12:30 7.08 6500 7370 (2020) 68 (1996) 1920 97 207 362 462 1320 2840 2940 4400 7060
2026-02-23 11:30 7.30 6840 7370 (2020) 68 (1996) 1920 97 207 362 462 1320 2840 2940 4400 7060
2026-02-23 10:30 6.42 5520 7370 (2020) 68 (1996) 1920 97 207 362 462 1320 2840 2940 4400 7060
2026-02-23 09:30 5.12 3810 7370 (2020) 68 (1996) 1920 97 207 362 462 1320 2840 2940 4400 7060
2026-02-23 08:30 4.65 3190 7370 (2020) 68 (1996) 1920 97 207 362 462 1320 2840 2940 4400 7060
2026-02-23 07:30 4.27 2720 7370 (2020) 68 (1996) 1920 97 207 362 462 1320 2840 2940 4400 7060
2026-02-23 06:30 4.15 2580 7370 (2020) 68 (1996) 1920 97 207 362 462 1320 2840 2940 4400 7060
2026-02-23 05:30 4.37 2840 7370 (2020) 68 (1996) 1920 97 207 362 462 1320 2840 2940 4400 7060
2026-02-23 04:30 4.58 3100 7370 (2020) 68 (1996) 1920 97 207 362 462 1320 2840 2940 4400 7060
2026-02-23 03:30 4.80 3400 7370 (2020) 68 (1996) 1920 97 207 362 462 1320 2840 2940 4400 7060
2026-02-23 02:30 5.06 3740 7370 (2020) 68 (1996) 1920 97 207 362 462 1320 2840 2940 4400 7060
2026-02-23 01:30 5.38 4120 7370 (2020) 68 (1996) 1920 97 207 362 462 1320 2840 2940 4400 7060
2026-02-23 00:30 5.45 4210 7370 (2020) 68 (1996) 1920 97 207 362 462 1320 2840 2940 4400 7060
2026-02-22 23:30 5.39 4140 7370 (2020) 68 (1996) 1920 97 207 362 462 1320 2840 2940 4400 7060
2026-02-22 22:30 5.09 3770 7360 (2020) 76 (1996) 1710 99 115 310 452 1330 2260 2710 4020 7060
2026-02-22 21:30 4.64 3180 7360 (2020) 76 (1996) 1710 99 115 310 452 1330 2260 2710 4020 7060
2026-02-22 20:30 4.18 2610 7360 (2020) 76 (1996) 1710 99 115 310 452 1330 2260 2710 4020 7060
2026-02-22 19:30 3.66 2010 7360 (2020) 76 (1996) 1710 99 115 310 452 1330 2260 2710 4020 7060
2026-02-22 18:30 3.54 1870 7360 (2020) 76 (1996) 1710 99 115 310 452 1330 2260 2710 4020 7060
2026-02-22 17:30 3.77 2130 7360 (2020) 76 (1996) 1710 99 115 310 452 1330 2260 2710 4020 7060
2026-02-22 16:30 3.97 2370 7360 (2020) 76 (1996) 1710 99 115 310 452 1330 2260 2710 4020 7060
2026-02-22 15:30 4.24 2680 7360 (2020) 76 (1996) 1710 99 115 310 452 1330 2260 2710 4020 7060
2026-02-22 14:30 4.45 2940 7360 (2020) 76 (1996) 1710 99 115 310 452 1330 2260 2710 4020 7060
2026-02-22 13:30 4.66 3210 7360 (2020) 76 (1996) 1710 99 115 310 452 1330 2260 2710 4020 7060
2026-02-22 12:30 4.83 3440 7360 (2020) 76 (1996) 1710 99 115 310 452 1330 2260 2710 4020 7060
2026-02-22 11:30 4.87 3490 7360 (2020) 76 (1996) 1710 99 115 310 452 1330 2260 2710 4020 7060
2026-02-22 10:30 4.48 2970 7360 (2020) 76 (1996) 1710 99 115 310 452 1330 2260 2710 4020 7060
2026-02-22 09:30 3.86 2240 7360 (2020) 76 (1996) 1710 99 115 310 452 1330 2260 2710 4020 7060
2026-02-22 08:30 3.20 1500 7360 (2020) 76 (1996) 1710 99 115 310 452 1330 2260 2710 4020 7060
2026-02-22 07:30 3.08 1380 7360 (2020) 76 (1996) 1710 99 115 310 452 1330 2260 2710 4020 7060
2026-02-22 06:30 3.29 1600 7360 (2020) 76 (1996) 1710 99 115 310 452 1330 2260 2710 4020 7060
2026-02-22 05:30 3.51 1840 7360 (2020) 76 (1996) 1710 99 115 310 452 1330 2260 2710 4020 7060
2026-02-22 04:30 3.75 2110 7360 (2020) 76 (1996) 1710 99 115 310 452 1330 2260 2710 4020 7060
2026-02-22 03:30 3.96 2350 7360 (2020) 76 (1996) 1710 99 115 310 452 1330 2260 2710 4020 7060
2026-02-22 02:30 4.20 2630 7360 (2020) 76 (1996) 1710 99 115 310 452 1330 2260 2710 4020 7060
2026-02-22 01:30 4.40 2870 7360 (2020) 76 (1996) 1710 99 115 310 452 1330 2260 2710 4020 7060
2026-02-22 00:30 4.65 3190 7360 (2020) 76 (1996) 1710 99 115 310 452 1330 2260 2710 4020 7060
2026-02-21 23:30 4.78 3370 7360 (2020) 76 (1996) 1710 99 115 310 452 1330 2260 2710 4020 7060
2026-02-21 22:30 4.78 3370 7370 (2020) 97 (2006) 1700 104 166 257 323 1300 2460 3030 3820 7050
2026-02-21 21:30 4.40 2870 7370 (2020) 97 (2006) 1700 104 166 257 323 1300 2460 3030 3820 7050
2026-02-21 20:30 3.73 2090 7370 (2020) 97 (2006) 1700 104 166 257 323 1300 2460 3030 3820 7050
2026-02-21 19:30 3.07 1370 7370 (2020) 97 (2006) 1700 104 166 257 323 1300 2460 3030 3820 7050
2026-02-21 18:30 2.95 1250 7370 (2020) 97 (2006) 1700 104 166 257 323 1300 2460 3030 3820 7050
2026-02-21 17:30 3.15 1450 7370 (2020) 97 (2006) 1700 104 166 257 323 1300 2460 3030 3820 7050
2026-02-21 16:30 3.35 1660 7370 (2020) 97 (2006) 1700 104 166 257 323 1300 2460 3030 3820 7050
2026-02-21 15:30 3.60 1950 7370 (2020) 97 (2006) 1700 104 166 257 323 1300 2460 3030 3820 7050
2026-02-21 14:30 3.76 2120 7370 (2020) 97 (2006) 1700 104 166 257 323 1300 2460 3030 3820 7050
2026-02-21 13:30 3.99 2390 7370 (2020) 97 (2006) 1700 104 166 257 323 1300 2460 3030 3820 7050
2026-02-21 12:30 4.06 2470 7370 (2020) 97 (2006) 1700 104 166 257 323 1300 2460 3030 3820 7050
2026-02-21 11:30 3.61 1960 7370 (2020) 97 (2006) 1700 104 166 257 323 1300 2460 3030 3820 7050
2026-02-21 10:30 2.43 803 7370 (2020) 97 (2006) 1700 104 166 257 323 1300 2460 3030 3820 7050
2026-02-21 09:30 1.67 386 7370 (2020) 97 (2006) 1700 104 166 257 323 1300 2460 3030 3820 7050
2026-02-21 08:30 1.66 382 7370 (2020) 97 (2006) 1700 104 166 257 323 1300 2460 3030 3820 7050
2026-02-21 07:30 1.73 409 7370 (2020) 97 (2006) 1700 104 166 257 323 1300 2460 3030 3820 7050
2026-02-21 06:30 1.81 442 7370 (2020) 97 (2006) 1700 104 166 257 323 1300 2460 3030 3820 7050
2026-02-21 05:30 1.89 476 7370 (2020) 97 (2006) 1700 104 166 257 323 1300 2460 3030 3820 7050
2026-02-21 04:30 1.99 522 7370 (2020) 97 (2006) 1700 104 166 257 323 1300 2460 3030 3820 7050
2026-02-21 03:30 2.09 578 7370 (2020) 97 (2006) 1700 104 166 257 323 1300 2460 3030 3820 7050
2026-02-21 02:30 2.20 643 7370 (2020) 97 (2006) 1700 104 166 257 323 1300 2460 3030 3820 7050
2026-02-21 01:30 2.34 737 7370 (2020) 97 (2006) 1700 104 166 257 323 1300 2460 3030 3820 7050
2026-02-21 00:30 2.47 833 7370 (2020) 97 (2006) 1700 104 166 257 323 1300 2460 3030 3820 7050
2026-02-20 23:30 2.62 955 7370 (2020) 97 (2006) 1700 104 166 257 323 1300 2460 3030 3820 7050
2026-02-20 22:30 2.79 1100 7360 (2020) 66 (1996) 1720 97 122 224 302 890 2820 3230 4300 7050
2026-02-20 21:30 2.96 1260 7360 (2020) 66 (1996) 1720 97 122 224 302 890 2820 3230 4300 7050
2026-02-20 20:30 3.16 1460 7360 (2020) 66 (1996) 1720 97 122 224 302 890 2820 3230 4300 7050
2026-02-20 19:30 3.36 1670 7360 (2020) 66 (1996) 1720 97 122 224 302 890 2820 3230 4300 7050
2026-02-20 18:30 3.60 1950 7360 (2020) 66 (1996) 1720 97 122 224 302 890 2820 3230 4300 7050
2026-02-20 17:30 3.83 2200 7360 (2020) 66 (1996) 1720 97 122 224 302 890 2820 3230 4300 7050
2026-02-20 16:30 4.06 2470 7360 (2020) 66 (1996) 1720 97 122 224 302 890 2820 3230 4300 7050
2026-02-20 15:30 4.29 2740 7360 (2020) 66 (1996) 1720 97 122 224 302 890 2820 3230 4300 7050
2026-02-20 14:30 4.53 3040 7360 (2020) 66 (1996) 1720 97 122 224 302 890 2820 3230 4300 7050
2026-02-20 13:30 4.71 3270 7360 (2020) 66 (1996) 1720 97 122 224 302 890 2820 3230 4300 7050
2026-02-20 12:30 4.76 3340 7360 (2020) 66 (1996) 1720 97 122 224 302 890 2820 3230 4300 7050
2026-02-20 11:30 4.54 3050 7360 (2020) 66 (1996) 1720 97 122 224 302 890 2820 3230 4300 7050
2026-02-20 10:30 3.92 2310 7360 (2020) 66 (1996) 1720 97 122 224 302 890 2820 3230 4300 7050
2026-02-20 09:30 2.91 1210 7360 (2020) 66 (1996) 1720 97 122 224 302 890 2820 3230 4300 7050
2026-02-20 08:30 2.13 601 7360 (2020) 66 (1996) 1720 97 122 224 302 890 2820 3230 4300 7050
2026-02-20 07:30 2.09 578 7360 (2020) 66 (1996) 1720 97 122 224 302 890 2820 3230 4300 7050
2026-02-20 06:30 2.21 650 7360 (2020) 66 (1996) 1720 97 122 224 302 890 2820 3230 4300 7050
2026-02-20 05:30 2.34 737 7360 (2020) 66 (1996) 1720 97 122 224 302 890 2820 3230 4300 7050
2026-02-20 04:30 2.47 833 7360 (2020) 66 (1996) 1720 97 122 224 302 890 2820 3230 4300 7050
2026-02-20 03:30 2.63 963 7360 (2020) 66 (1996) 1720 97 122 224 302 890 2820 3230 4300 7050
2026-02-20 02:30 2.79 1100 7360 (2020) 66 (1996) 1720 97 122 224 302 890 2820 3230 4300 7050
2026-02-20 01:30 2.96 1260 7360 (2020) 66 (1996) 1720 97 122 224 302 890 2820 3230 4300 7050
2026-02-20 00:30 3.10 1400 7360 (2020) 66 (1996) 1720 97 122 224 302 890 2820 3230 4300 7050
2026-02-19 23:30 3.12 1420 7360 (2020) 66 (1996) 1720 97 122 224 302 890 2820 3230 4300 7050
2026-02-19 22:30 2.77 1080 7350 (2020) 66 (1996) 1870 105 148 270 302 1040 3020 3270 5330 6460
2026-02-19 21:30 1.72 405 7350 (2020) 66 (1996) 1870 105 148 270 302 1040 3020 3270 5330 6460
2026-02-19 20:30 1.08 197 7350 (2020) 66 (1996) 1870 105 148 270 302 1040 3020 3270 5330 6460
2026-02-19 19:30 1.08 197 7350 (2020) 66 (1996) 1870 105 148 270 302 1040 3020 3270 5330 6460
2026-02-19 18:30 1.10 202 7350 (2020) 66 (1996) 1870 105 148 270 302 1040 3020 3270 5330 6460
2026-02-19 17:30 1.13 210 7350 (2020) 66 (1996) 1870 105 148 270 302 1040 3020 3270 5330 6460
2026-02-19 16:30 1.15 215 7350 (2020) 66 (1996) 1870 105 148 270 302 1040 3020 3270 5330 6460
2026-02-19 15:30 1.17 221 7350 (2020) 66 (1996) 1870 105 148 270 302 1040 3020 3270 5330 6460
2026-02-19 14:30 1.16 218 7350 (2020) 66 (1996) 1870 105 148 270 302 1040 3020 3270 5330 6460
2026-02-19 13:30 1.23 238 7350 (2020) 66 (1996) 1870 105 148 270 302 1040 3020 3270 5330 6460
2026-02-19 12:30 1.26 247 7350 (2020) 66 (1996) 1870 105 148 270 302 1040 3020 3270 5330 6460
2026-02-19 11:30 1.30 259 7350 (2020) 66 (1996) 1870 105 148 270 302 1040 3020 3270 5330 6460
2026-02-19 10:30 1.33 268 7350 (2020) 66 (1996) 1870 105 148 270 302 1040 3020 3270 5330 6460
2026-02-19 09:30 1.36 278 7350 (2020) 66 (1996) 1870 105 148 270 302 1040 3020 3270 5330 6460
2026-02-19 08:30 1.41 294 7350 (2020) 66 (1996) 1870 105 148 270 302 1040 3020 3270 5330 6460
2026-02-19 07:30 1.44 303 7350 (2020) 66 (1996) 1870 105 148 270 302 1040 3020 3270 5330 6460
2026-02-19 06:30 1.50 324 7350 (2020) 66 (1996) 1870 105 148 270 302 1040 3020 3270 5330 6460
2026-02-19 05:30 1.55 341 7350 (2020) 66 (1996) 1870 105 148 270 302 1040 3020 3270 5330 6460
2026-02-19 04:30 1.61 363 7350 (2020) 66 (1996) 1870 105 148 270 302 1040 3020 3270 5330 6460
2026-02-19 03:30 1.68 390 7350 (2020) 66 (1996) 1870 105 148 270 302 1040 3020 3270 5330 6460
2026-02-19 02:30 1.75 417 7350 (2020) 66 (1996) 1870 105 148 270 302 1040 3020 3270 5330 6460
2026-02-19 01:30 1.83 450 7350 (2020) 66 (1996) 1870 105 148 270 302 1040 3020 3270 5330 6460
2026-02-19 00:30 1.92 490 7350 (2020) 66 (1996) 1870 105 148 270 302 1040 3020 3270 5330 6460
2026-02-18 23:30 2.01 533 7350 (2020) 66 (1996) 1870 105 148 270 302 1040 3020 3270 5330 6460
2026-02-18 22:30 2.11 589 7320 (2020) 86 (1996) 1940 112 184 337 425 1310 2780 2930 5810 7070
2026-02-18 21:30 2.23 662 7320 (2020) 86 (1996) 1940 112 184 337 425 1310 2780 2930 5810 7070
2026-02-18 20:30 2.36 751 7320 (2020) 86 (1996) 1940 112 184 337 425 1310 2780 2930 5810 7070
2026-02-18 19:30 2.50 857 7320 (2020) 86 (1996) 1940 112 184 337 425 1310 2780 2930 5810 7070
2026-02-18 18:30 2.65 981 7320 (2020) 86 (1996) 1940 112 184 337 425 1310 2780 2930 5810 7070
2026-02-18 17:30 2.80 1110 7320 (2020) 86 (1996) 1940 112 184 337 425 1310 2780 2930 5810 7070
2026-02-18 16:30 2.95 1250 7320 (2020) 86 (1996) 1940 112 184 337 425 1310 2780 2930 5810 7070
2026-02-18 15:30 3.02 1320 7320 (2020) 86 (1996) 1940 112 184 337 425 1310 2780 2930 5810 7070
2026-02-18 14:30 2.88 1180 7320 (2020) 86 (1996) 1940 112 184 337 425 1310 2780 2930 5810 7070
2026-02-18 13:30 2.25 675 7320 (2020) 86 (1996) 1940 112 184 337 425 1310 2780 2930 5810 7070
2026-02-18 12:30 1.34 271 7320 (2020) 86 (1996) 1940 112 184 337 425 1310 2780 2930 5810 7070
2026-02-18 11:30 0.95 163 7320 (2020) 86 (1996) 1940 112 184 337 425 1310 2780 2930 5810 7070
2026-02-18 10:30 0.94 161 7320 (2020) 86 (1996) 1940 112 184 337 425 1310 2780 2930 5810 7070
2026-02-18 09:30 0.95 163 7320 (2020) 86 (1996) 1940 112 184 337 425 1310 2780 2930 5810 7070
2026-02-18 08:30 0.95 163 7320 (2020) 86 (1996) 1940 112 184 337 425 1310 2780 2930 5810 7070
2026-02-18 07:30 0.95 163 7320 (2020) 86 (1996) 1940 112 184 337 425 1310 2780 2930 5810 7070
2026-02-18 06:30 0.96 166 7320 (2020) 86 (1996) 1940 112 184 337 425 1310 2780 2930 5810 7070
2026-02-18 05:30 0.96 166 7320 (2020) 86 (1996) 1940 112 184 337 425 1310 2780 2930 5810 7070
2026-02-18 04:30 0.96 166 7320 (2020) 86 (1996) 1940 112 184 337 425 1310 2780 2930 5810 7070
2026-02-18 03:30 0.97 168 7320 (2020) 86 (1996) 1940 112 184 337 425 1310 2780 2930 5810 7070
2026-02-18 02:30 0.97 168 7320 (2020) 86 (1996) 1940 112 184 337 425 1310 2780 2930 5810 7070
2026-02-18 01:30 0.97 168 7320 (2020) 86 (1996) 1940 112 184 337 425 1310 2780 2930 5810 7070
2026-02-18 00:30 0.97 168 7320 (2020) 86 (1996) 1940 112 184 337 425 1310 2780 2930 5810 7070
2026-02-17 23:30 0.98 171 7320 (2020) 86 (1996) 1940 112 184 337 425 1310 2780 2930 5810 7070
2026-02-17 22:30 0.98 171 7140 (1986) 98 (2006) 1830 176 232 342 497 1120 2880 3130 4160 7030
2026-02-17 21:30 0.99 174 7140 (1986) 98 (2006) 1830 176 232 342 497 1120 2880 3130 4160 7030
2026-02-17 20:30 0.99 174 7140 (1986) 98 (2006) 1830 176 232 342 497 1120 2880 3130 4160 7030
2026-02-17 19:30 0.99 174 7140 (1986) 98 (2006) 1830 176 232 342 497 1120 2880 3130 4160 7030
2026-02-17 18:30 1.00 177 7140 (1986) 98 (2006) 1830 176 232 342 497 1120 2880 3130 4160 7030
2026-02-17 17:30 1.01 180 7140 (1986) 98 (2006) 1830 176 232 342 497 1120 2880 3130 4160 7030
2026-02-17 16:30 0.96 166 7140 (1986) 98 (2006) 1830 176 232 342 497 1120 2880 3130 4160 7030
2026-02-17 15:30 0.98 171 7140 (1986) 98 (2006) 1830 176 232 342 497 1120 2880 3130 4160 7030
2026-02-17 14:30 0.98 171 7140 (1986) 98 (2006) 1830 176 232 342 497 1120 2880 3130 4160 7030
2026-02-17 13:30 1.00 177 7140 (1986) 98 (2006) 1830 176 232 342 497 1120 2880 3130 4160 7030
2026-02-17 12:30 1.03 185 7140 (1986) 98 (2006) 1830 176 232 342 497 1120 2880 3130 4160 7030
2026-02-17 11:30 1.05 191 7140 (1986) 98 (2006) 1830 176 232 342 497 1120 2880 3130 4160 7030
2026-02-17 10:30 1.05 191 7140 (1986) 98 (2006) 1830 176 232 342 497 1120 2880 3130 4160 7030
2026-02-17 09:30 1.06 193 7140 (1986) 98 (2006) 1830 176 232 342 497 1120 2880 3130 4160 7030
2026-02-17 08:30 1.07 195 7140 (1986) 98 (2006) 1830 176 232 342 497 1120 2880 3130 4160 7030
2026-02-17 07:30 1.07 195 7140 (1986) 98 (2006) 1830 176 232 342 497 1120 2880 3130 4160 7030
2026-02-17 06:30 1.08 197 7140 (1986) 98 (2006) 1830 176 232 342 497 1120 2880 3130 4160 7030
2026-02-17 05:30 1.09 200 7140 (1986) 98 (2006) 1830 176 232 342 497 1120 2880 3130 4160 7030
2026-02-17 04:30 1.09 200 7140 (1986) 98 (2006) 1830 176 232 342 497 1120 2880 3130 4160 7030
2026-02-17 03:30 1.10 202 7140 (1986) 98 (2006) 1830 176 232 342 497 1120 2880 3130 4160 7030
2026-02-17 02:30 1.11 205 7140 (1986) 98 (2006) 1830 176 232 342 497 1120 2880 3130 4160 7030
2026-02-17 01:30 1.12 207 7140 (1986) 98 (2006) 1830 176 232 342 497 1120 2880 3130 4160 7030
2026-02-17 00:30 1.12 207 7140 (1986) 98 (2006) 1830 176 232 342 497 1120 2880 3130 4160 7030
2026-02-16 23:30 1.14 213 7140 (1986) 98 (2006) 1830 176 232 342 497 1120 2880 3130 4160 7030
2026-02-16 22:30 1.15 215 7110 (1986) 102 (2006) 1970 121 236 382 578 1310 2730 3810 4350 7050
2026-02-16 21:30 1.16 218 7110 (1986) 102 (2006) 1970 121 236 382 578 1310 2730 3810 4350 7050
2026-02-16 20:30 1.18 224 7110 (1986) 102 (2006) 1970 121 236 382 578 1310 2730 3810 4350 7050
2026-02-16 19:30 1.19 226 7110 (1986) 102 (2006) 1970 121 236 382 578 1310 2730 3810 4350 7050
2026-02-16 18:30 1.20 229 7110 (1986) 102 (2006) 1970 121 236 382 578 1310 2730 3810 4350 7050
2026-02-16 17:30 1.22 235 7110 (1986) 102 (2006) 1970 121 236 382 578 1310 2730 3810 4350 7050
2026-02-16 16:30 1.24 241 7110 (1986) 102 (2006) 1970 121 236 382 578 1310 2730 3810 4350 7050
2026-02-16 15:30 1.25 244 7110 (1986) 102 (2006) 1970 121 236 382 578 1310 2730 3810 4350 7050
2026-02-16 14:30 1.26 247 7110 (1986) 102 (2006) 1970 121 236 382 578 1310 2730 3810 4350 7050
2026-02-16 13:30 1.28 253 7110 (1986) 102 (2006) 1970 121 236 382 578 1310 2730 3810 4350 7050
2026-02-16 12:30 1.29 256 7110 (1986) 102 (2006) 1970 121 236 382 578 1310 2730 3810 4350 7050
2026-02-16 11:30 1.32 265 7110 (1986) 102 (2006) 1970 121 236 382 578 1310 2730 3810 4350 7050
2026-02-16 10:30 1.33 268 7110 (1986) 102 (2006) 1970 121 236 382 578 1310 2730 3810 4350 7050
2026-02-16 09:30 1.35 275 7110 (1986) 102 (2006) 1970 121 236 382 578 1310 2730 3810 4350 7050
2026-02-16 08:30 1.36 278 7110 (1986) 102 (2006) 1970 121 236 382 578 1310 2730 3810 4350 7050
2026-02-16 07:30 1.39 287 7110 (1986) 102 (2006) 1970 121 236 382 578 1310 2730 3810 4350 7050
2026-02-16 06:30 1.41 294 7110 (1986) 102 (2006) 1970 121 236 382 578 1310 2730 3810 4350 7050
2026-02-16 05:30 1.44 303 7110 (1986) 102 (2006) 1970 121 236 382 578 1310 2730 3810 4350 7050
2026-02-16 04:30 1.46 310 7110 (1986) 102 (2006) 1970 121 236 382 578 1310 2730 3810 4350 7050
2026-02-16 03:30 1.48 317 7110 (1986) 102 (2006) 1970 121 236 382 578 1310 2730 3810 4350 7050
2026-02-16 02:30 1.52 331 7110 (1986) 102 (2006) 1970 121 236 382 578 1310 2730 3810 4350 7050
2026-02-16 01:30 1.54 338 7110 (1986) 102 (2006) 1970 121 236 382 578 1310 2730 3810 4350 7050
2026-02-16 00:30 1.57 349 7110 (1986) 102 (2006) 1970 121 236 382 578 1310 2730 3810 4350 7050
2026-02-15 23:30 1.60 360 7110 (1986) 102 (2006) 1970 121 236 382 578 1310 2730 3810 4350 7050
2026-02-15 22:30 1.64 374 7090 (1986) 98 (2011) 1720 117 142 425 551 1250 2550 2820 4260 5630
2026-02-15 21:30 1.68 390 7090 (1986) 98 (2011) 1720 117 142 425 551 1250 2550 2820 4260 5630
2026-02-15 20:30 1.71 401 7090 (1986) 98 (2011) 1720 117 142 425 551 1250 2550 2820 4260 5630
2026-02-15 19:30 1.76 421 7090 (1986) 98 (2011) 1720 117 142 425 551 1250 2550 2820 4260 5630
2026-02-15 18:30 1.81 442 7090 (1986) 98 (2011) 1720 117 142 425 551 1250 2550 2820 4260 5630
2026-02-15 17:30 1.85 459 7090 (1986) 98 (2011) 1720 117 142 425 551 1250 2550 2820 4260 5630
2026-02-15 16:30 1.91 485 7090 (1986) 98 (2011) 1720 117 142 425 551 1250 2550 2820 4260 5630
2026-02-15 15:30 1.96 508 7090 (1986) 98 (2011) 1720 117 142 425 551 1250 2550 2820 4260 5630
2026-02-15 14:30 2.01 533 7090 (1986) 98 (2011) 1720 117 142 425 551 1250 2550 2820 4260 5630
2026-02-15 13:30 2.08 572 7090 (1986) 98 (2011) 1720 117 142 425 551 1250 2550 2820 4260 5630
2026-02-15 12:30 2.14 607 7090 (1986) 98 (2011) 1720 117 142 425 551 1250 2550 2820 4260 5630
2026-02-15 11:30 2.22 656 7090 (1986) 98 (2011) 1720 117 142 425 551 1250 2550 2820 4260 5630
2026-02-15 10:30 2.29 702 7090 (1986) 98 (2011) 1720 117 142 425 551 1250 2550 2820 4260 5630
2026-02-15 09:30 2.37 758 7090 (1986) 98 (2011) 1720 117 142 425 551 1250 2550 2820 4260 5630
2026-02-15 08:30 2.47 833 7090 (1986) 98 (2011) 1720 117 142 425 551 1250 2550 2820 4260 5630
2026-02-15 07:30 2.57 913 7090 (1986) 98 (2011) 1720 117 142 425 551 1250 2550 2820 4260 5630
2026-02-15 06:30 2.65 981 7090 (1986) 98 (2011) 1720 117 142 425 551 1250 2550 2820 4260 5630
2026-02-15 05:30 2.75 1070 7090 (1986) 98 (2011) 1720 117 142 425 551 1250 2550 2820 4260 5630
2026-02-15 04:30 2.85 1160 7090 (1986) 98 (2011) 1720 117 142 425 551 1250 2550 2820 4260 5630
2026-02-15 03:30 2.95 1250 7090 (1986) 98 (2011) 1720 117 142 425 551 1250 2550 2820 4260 5630
2026-02-15 02:30 3.06 1360 7090 (1986) 98 (2011) 1720 117 142 425 551 1250 2550 2820 4260 5630
2026-02-15 01:30 3.16 1460 7090 (1986) 98 (2011) 1720 117 142 425 551 1250 2550 2820 4260 5630
2026-02-15 00:30 3.26 1560 7090 (1986) 98 (2011) 1720 117 142 425 551 1250 2550 2820 4260 5630
2026-02-14 23:30 3.34 1650 7090 (1986) 98 (2011) 1720 117 142 425 551 1250 2550 2820 4260 5630
2026-02-14 22:30 3.38 1690 7070 (1986) 93 (2011) 1630 118 204 368 412 930 2590 2770 4020 5850
2026-02-14 21:30 3.30 1610 7070 (1986) 93 (2011) 1630 118 204 368 412 930 2590 2770 4020 5850
2026-02-14 20:30 3.10 1400 7070 (1986) 93 (2011) 1630 118 204 368 412 930 2590 2770 4020 5850
2026-02-14 19:30 2.72 1040 7070 (1986) 93 (2011) 1630 118 204 368 412 930 2590 2770 4020 5850
2026-02-14 18:30 2.25 675 7070 (1986) 93 (2011) 1630 118 204 368 412 930 2590 2770 4020 5850
2026-02-14 17:30 1.79 433 7070 (1986) 93 (2011) 1630 118 204 368 412 930 2590 2770 4020 5850
2026-02-14 16:30 1.39 287 7070 (1986) 93 (2011) 1630 118 204 368 412 930 2590 2770 4020 5850
2026-02-14 15:30 1.27 250 7070 (1986) 93 (2011) 1630 118 204 368 412 930 2590 2770 4020 5850
2026-02-14 14:30 1.21 232 7070 (1986) 93 (2011) 1630 118 204 368 412 930 2590 2770 4020 5850
2026-02-14 13:30 1.18 224 7070 (1986) 93 (2011) 1630 118 204 368 412 930 2590 2770 4020 5850
2026-02-14 12:30 1.20 229 7070 (1986) 93 (2011) 1630 118 204 368 412 930 2590 2770 4020 5850
2026-02-14 11:30 1.23 238 7070 (1986) 93 (2011) 1630 118 204 368 412 930 2590 2770 4020 5850
2026-02-14 10:30 1.27 250 7070 (1986) 93 (2011) 1630 118 204 368 412 930 2590 2770 4020 5850
2026-02-14 09:30 1.30 259 7070 (1986) 93 (2011) 1630 118 204 368 412 930 2590 2770 4020 5850
2026-02-14 08:30 1.34 271 7070 (1986) 93 (2011) 1630 118 204 368 412 930 2590 2770 4020 5850
2026-02-14 07:30 1.38 284 7070 (1986) 93 (2011) 1630 118 204 368 412 930 2590 2770 4020 5850
2026-02-14 06:30 1.44 303 7070 (1986) 93 (2011) 1630 118 204 368 412 930 2590 2770 4020 5850
2026-02-14 05:30 1.48 317 7070 (1986) 93 (2011) 1630 118 204 368 412 930 2590 2770 4020 5850
2026-02-14 04:30 1.54 338 7070 (1986) 93 (2011) 1630 118 204 368 412 930 2590 2770 4020 5850
2026-02-14 03:30 1.60 360 7070 (1986) 93 (2011) 1630 118 204 368 412 930 2590 2770 4020 5850
2026-02-14 02:30 1.68 390 7070 (1986) 93 (2011) 1630 118 204 368 412 930 2590 2770 4020 5850
2026-02-14 01:30 1.75 417 7070 (1986) 93 (2011) 1630 118 204 368 412 930 2590 2770 4020 5850
2026-02-14 00:30 1.83 450 7070 (1986) 93 (2011) 1630 118 204 368 412 930 2590 2770 4020 5850
2026-02-13 23:30 1.93 494 7070 (1986) 93 (2011) 1630 118 204 368 412 930 2590 2770 4020 5850
2026-02-13 22:30 2.03 544 7210 (2012) 102 (2006) 1920 113 189 309 512 1230 2700 3090 5120 7010
2026-02-13 21:30 2.14 607 7210 (2012) 102 (2006) 1920 113 189 309 512 1230 2700 3090 5120 7010
2026-02-13 20:30 2.27 688 7210 (2012) 102 (2006) 1920 113 189 309 512 1230 2700 3090 5120 7010
2026-02-13 19:30 2.40 780 7210 (2012) 102 (2006) 1920 113 189 309 512 1230 2700 3090 5120 7010
2026-02-13 18:30 2.55 897 7210 (2012) 102 (2006) 1920 113 189 309 512 1230 2700 3090 5120 7010
2026-02-13 17:30 2.70 1020 7210 (2012) 102 (2006) 1920 113 189 309 512 1230 2700 3090 5120 7010
2026-02-13 16:30 2.88 1180 7210 (2012) 102 (2006) 1920 113 189 309 512 1230 2700 3090 5120 7010
2026-02-13 15:30 3.07 1370 7210 (2012) 102 (2006) 1920 113 189 309 512 1230 2700 3090 5120 7010
2026-02-13 14:30 3.25 1550 7210 (2012) 102 (2006) 1920 113 189 309 512 1230 2700 3090 5120 7010
2026-02-13 13:30 3.46 1780 7210 (2012) 102 (2006) 1920 113 189 309 512 1230 2700 3090 5120 7010
2026-02-13 12:30 3.60 1950 7210 (2012) 102 (2006) 1920 113 189 309 512 1230 2700 3090 5120 7010
2026-02-13 11:30 3.49 1820 7210 (2012) 102 (2006) 1920 113 189 309 512 1230 2700 3090 5120 7010
2026-02-13 10:30 2.65 981 7210 (2012) 102 (2006) 1920 113 189 309 512 1230 2700 3090 5120 7010
2026-02-13 09:30 1.51 327 7210 (2012) 102 (2006) 1920 113 189 309 512 1230 2700 3090 5120 7010
2026-02-13 08:30 1.27 250 7210 (2012) 102 (2006) 1920 113 189 309 512 1230 2700 3090 5120 7010
2026-02-13 07:30 1.31 262 7210 (2012) 102 (2006) 1920 113 189 309 512 1230 2700 3090 5120 7010
2026-02-13 06:30 1.35 275 7210 (2012) 102 (2006) 1920 113 189 309 512 1230 2700 3090 5120 7010
2026-02-13 05:30 1.39 287 7210 (2012) 102 (2006) 1920 113 189 309 512 1230 2700 3090 5120 7010
2026-02-13 04:30 1.44 303 7210 (2012) 102 (2006) 1920 113 189 309 512 1230 2700 3090 5120 7010
2026-02-13 03:30 1.49 320 7210 (2012) 102 (2006) 1920 113 189 309 512 1230 2700 3090 5120 7010
2026-02-13 02:30 1.55 341 7210 (2012) 102 (2006) 1920 113 189 309 512 1230 2700 3090 5120 7010
2026-02-13 01:30 1.61 363 7210 (2012) 102 (2006) 1920 113 189 309 512 1230 2700 3090 5120 7010
2026-02-13 00:30 1.69 393 7210 (2012) 102 (2006) 1920 113 189 309 512 1230 2700 3090 5120 7010
2026-02-12 23:30 1.76 421 7210 (2012) 102 (2006) 1920 113 189 309 512 1230 2700 3090 5120 7010
2026-02-12 22:30 1.85 459 7160 (2012) 103 (2006) 1920 145 172 460 619 1490 2740 2900 5000 6980
2026-02-12 21:30 1.94 499 7160 (2012) 103 (2006) 1920 145 172 460 619 1490 2740 2900 5000 6980
2026-02-12 20:30 2.04 549 7160 (2012) 103 (2006) 1920 145 172 460 619 1490 2740 2900 5000 6980
2026-02-12 19:30 2.15 613 7160 (2012) 103 (2006) 1920 145 172 460 619 1490 2740 2900 5000 6980
2026-02-12 18:30 2.29 702 7160 (2012) 103 (2006) 1920 145 172 460 619 1490 2740 2900 5000 6980
2026-02-12 17:30 2.42 795 7160 (2012) 103 (2006) 1920 145 172 460 619 1490 2740 2900 5000 6980
2026-02-12 16:30 2.57 913 7160 (2012) 103 (2006) 1920 145 172 460 619 1490 2740 2900 5000 6980
2026-02-12 15:30 2.73 1050 7160 (2012) 103 (2006) 1920 145 172 460 619 1490 2740 2900 5000 6980
2026-02-12 14:30 2.88 1180 7160 (2012) 103 (2006) 1920 145 172 460 619 1490 2740 2900 5000 6980
2026-02-12 13:30 2.98 1280 7160 (2012) 103 (2006) 1920 145 172 460 619 1490 2740 2900 5000 6980
2026-02-12 12:30 2.96 1260 7160 (2012) 103 (2006) 1920 145 172 460 619 1490 2740 2900 5000 6980
2026-02-12 11:30 2.44 810 7160 (2012) 103 (2006) 1920 145 172 460 619 1490 2740 2900 5000 6980
2026-02-12 10:30 1.28 253 7160 (2012) 103 (2006) 1920 145 172 460 619 1490 2740 2900 5000 6980
2026-02-12 09:30 0.79 119 7160 (2012) 103 (2006) 1920 145 172 460 619 1490 2740 2900 5000 6980
2026-02-12 08:30 0.78 116 7160 (2012) 103 (2006) 1920 145 172 460 619 1490 2740 2900 5000 6980
2026-02-12 07:30 0.78 116 7160 (2012) 103 (2006) 1920 145 172 460 619 1490 2740 2900 5000 6980
2026-02-12 06:30 0.78 116 7160 (2012) 103 (2006) 1920 145 172 460 619 1490 2740 2900 5000 6980
2026-02-12 05:30 0.78 116 7160 (2012) 103 (2006) 1920 145 172 460 619 1490 2740 2900 5000 6980
2026-02-12 04:30 0.78 116 7160 (2012) 103 (2006) 1920 145 172 460 619 1490 2740 2900 5000 6980
2026-02-12 03:30 0.78 116 7160 (2012) 103 (2006) 1920 145 172 460 619 1490 2740 2900 5000 6980
2026-02-12 02:30 0.78 116 7160 (2012) 103 (2006) 1920 145 172 460 619 1490 2740 2900 5000 6980
2026-02-12 01:30 0.78 116 7160 (2012) 103 (2006) 1920 145 172 460 619 1490 2740 2900 5000 6980
2026-02-12 00:30 0.77 113 7160 (2012) 103 (2006) 1920 145 172 460 619 1490 2740 2900 5000 6980
2026-02-11 23:30 0.77 113 7160 (2012) 103 (2006) 1920 145 172 460 619 1490 2740 2900 5000 6980
2026-02-11 22:30 0.77 113 7110 (2012) 71 (1996) 1730 117 152 342 464 1280 2430 2770 4260 5750
2026-02-11 21:30 0.77 113 7110 (2012) 71 (1996) 1730 117 152 342 464 1280 2430 2770 4260 5750
2026-02-11 20:30 0.78 116 7110 (2012) 71 (1996) 1730 117 152 342 464 1280 2430 2770 4260 5750
2026-02-11 19:30 0.78 116 7110 (2012) 71 (1996) 1730 117 152 342 464 1280 2430 2770 4260 5750
2026-02-11 18:30 0.78 116 7110 (2012) 71 (1996) 1730 117 152 342 464 1280 2430 2770 4260 5750
2026-02-11 17:30 0.79 119 7110 (2012) 71 (1996) 1730 117 152 342 464 1280 2430 2770 4260 5750
2026-02-11 16:30 0.79 119 7110 (2012) 71 (1996) 1730 117 152 342 464 1280 2430 2770 4260 5750
2026-02-11 15:30 0.80 122 7110 (2012) 71 (1996) 1730 117 152 342 464 1280 2430 2770 4260 5750
2026-02-11 14:30 0.80 122 7110 (2012) 71 (1996) 1730 117 152 342 464 1280 2430 2770 4260 5750
2026-02-11 13:30 0.80 122 7110 (2012) 71 (1996) 1730 117 152 342 464 1280 2430 2770 4260 5750
2026-02-11 12:30 0.79 119 7110 (2012) 71 (1996) 1730 117 152 342 464 1280 2430 2770 4260 5750
2026-02-11 11:30 0.79 119 7110 (2012) 71 (1996) 1730 117 152 342 464 1280 2430 2770 4260 5750
2026-02-11 10:30 0.77 113 7110 (2012) 71 (1996) 1730 117 152 342 464 1280 2430 2770 4260 5750
2026-02-11 09:30 0.79 119 7110 (2012) 71 (1996) 1730 117 152 342 464 1280 2430 2770 4260 5750
2026-02-11 08:30 0.79 119 7110 (2012) 71 (1996) 1730 117 152 342 464 1280 2430 2770 4260 5750
2026-02-11 07:30 0.79 119 7110 (2012) 71 (1996) 1730 117 152 342 464 1280 2430 2770 4260 5750
2026-02-11 06:30 0.79 119 7110 (2012) 71 (1996) 1730 117 152 342 464 1280 2430 2770 4260 5750
2026-02-11 05:30 0.79 119 7110 (2012) 71 (1996) 1730 117 152 342 464 1280 2430 2770 4260 5750
2026-02-11 04:30 0.79 119 7110 (2012) 71 (1996) 1730 117 152 342 464 1280 2430 2770 4260 5750
2026-02-11 03:30 0.79 119 7110 (2012) 71 (1996) 1730 117 152 342 464 1280 2430 2770 4260 5750
2026-02-11 02:30 0.79 119 7110 (2012) 71 (1996) 1730 117 152 342 464 1280 2430 2770 4260 5750
2026-02-11 01:30 0.80 122 7110 (2012) 71 (1996) 1730 117 152 342 464 1280 2430 2770 4260 5750
2026-02-11 00:30 0.79 119 7110 (2012) 71 (1996) 1730 117 152 342 464 1280 2430 2770 4260 5750
2026-02-10 23:30 0.79 119 7110 (2012) 71 (1996) 1730 117 152 342 464 1280 2430 2770 4260 5750
2026-02-10 22:30 0.79 119 7100 (2012) 107 (2006) 1630 130 175 230 289 981 2420 2900 4270 4890
2026-02-10 21:30 0.78 116 7100 (2012) 107 (2006) 1630 130 175 230 289 981 2420 2900 4270 4890
2026-02-10 20:30 0.78 116 7100 (2012) 107 (2006) 1630 130 175 230 289 981 2420 2900 4270 4890
2026-02-10 19:30 0.78 116 7100 (2012) 107 (2006) 1630 130 175 230 289 981 2420 2900 4270 4890
2026-02-10 18:30 0.79 119 7100 (2012) 107 (2006) 1630 130 175 230 289 981 2420 2900 4270 4890
2026-02-10 17:30 0.78 116 7100 (2012) 107 (2006) 1630 130 175 230 289 981 2420 2900 4270 4890
2026-02-10 16:30 0.79 119 7100 (2012) 107 (2006) 1630 130 175 230 289 981 2420 2900 4270 4890
2026-02-10 15:30 0.79 119 7100 (2012) 107 (2006) 1630 130 175 230 289 981 2420 2900 4270 4890
2026-02-10 14:30 0.79 119 7100 (2012) 107 (2006) 1630 130 175 230 289 981 2420 2900 4270 4890
2026-02-10 13:30 0.79 119 7100 (2012) 107 (2006) 1630 130 175 230 289 981 2420 2900 4270 4890
2026-02-10 12:30 0.80 122 7100 (2012) 107 (2006) 1630 130 175 230 289 981 2420 2900 4270 4890
2026-02-10 11:30 0.75 108 7100 (2012) 107 (2006) 1630 130 175 230 289 981 2420 2900 4270 4890
2026-02-10 10:30 0.79 119 7100 (2012) 107 (2006) 1630 130 175 230 289 981 2420 2900 4270 4890
2026-02-10 09:30 0.80 122 7100 (2012) 107 (2006) 1630 130 175 230 289 981 2420 2900 4270 4890
2026-02-10 08:30 0.79 119 7100 (2012) 107 (2006) 1630 130 175 230 289 981 2420 2900 4270 4890
2026-02-10 07:30 0.79 119 7100 (2012) 107 (2006) 1630 130 175 230 289 981 2420 2900 4270 4890
2026-02-10 06:30 0.79 119 7100 (2012) 107 (2006) 1630 130 175 230 289 981 2420 2900 4270 4890
2026-02-10 05:30 0.80 122 7100 (2012) 107 (2006) 1630 130 175 230 289 981 2420 2900 4270 4890
2026-02-10 04:30 0.79 119 7100 (2012) 107 (2006) 1630 130 175 230 289 981 2420 2900 4270 4890
2026-02-10 03:30 0.80 122 7100 (2012) 107 (2006) 1630 130 175 230 289 981 2420 2900 4270 4890
2026-02-10 02:30 0.80 122 7100 (2012) 107 (2006) 1630 130 175 230 289 981 2420 2900 4270 4890
2026-02-10 01:30 0.80 122 7100 (2012) 107 (2006) 1630 130 175 230 289 981 2420 2900 4270 4890
2026-02-10 00:30 0.80 122 7100 (2012) 107 (2006) 1630 130 175 230 289 981 2420 2900 4270 4890
2026-02-09 23:30 0.80 122 7100 (2012) 107 (2006) 1630 130 175 230 289 981 2420 2900 4270 4890
2026-02-09 22:30 0.80 122 7070 (2012) 107 (2006) 1790 120 165 377 476 1390 2650 2950 4010 5750
2026-02-09 21:30 0.80 122 7070 (2012) 107 (2006) 1790 120 165 377 476 1390 2650 2950 4010 5750
2026-02-09 20:30 0.80 122 7070 (2012) 107 (2006) 1790 120 165 377 476 1390 2650 2950 4010 5750
2026-02-09 19:30 0.80 122 7070 (2012) 107 (2006) 1790 120 165 377 476 1390 2650 2950 4010 5750
2026-02-09 18:30 0.80 122 7070 (2012) 107 (2006) 1790 120 165 377 476 1390 2650 2950 4010 5750
2026-02-09 17:30 0.80 122 7070 (2012) 107 (2006) 1790 120 165 377 476 1390 2650 2950 4010 5750
2026-02-09 16:30 0.81 125 7070 (2012) 107 (2006) 1790 120 165 377 476 1390 2650 2950 4010 5750
2026-02-09 15:30 0.81 125 7070 (2012) 107 (2006) 1790 120 165 377 476 1390 2650 2950 4010 5750
2026-02-09 14:30 0.81 125 7070 (2012) 107 (2006) 1790 120 165 377 476 1390 2650 2950 4010 5750
2026-02-09 13:30 0.82 128 7070 (2012) 107 (2006) 1790 120 165 377 476 1390 2650 2950 4010 5750
2026-02-09 12:30 0.82 128 7070 (2012) 107 (2006) 1790 120 165 377 476 1390 2650 2950 4010 5750
2026-02-09 11:30 0.82 128 7070 (2012) 107 (2006) 1790 120 165 377 476 1390 2650 2950 4010 5750
2026-02-09 10:30 0.81 125 7070 (2012) 107 (2006) 1790 120 165 377 476 1390 2650 2950 4010 5750
2026-02-09 09:30 0.81 125 7070 (2012) 107 (2006) 1790 120 165 377 476 1390 2650 2950 4010 5750
2026-02-09 08:30 0.81 125 7070 (2012) 107 (2006) 1790 120 165 377 476 1390 2650 2950 4010 5750
2026-02-09 07:30 0.81 125 7070 (2012) 107 (2006) 1790 120 165 377 476 1390 2650 2950 4010 5750
2026-02-09 06:30 0.81 125 7070 (2012) 107 (2006) 1790 120 165 377 476 1390 2650 2950 4010 5750
2026-02-09 05:30 0.82 128 7070 (2012) 107 (2006) 1790 120 165 377 476 1390 2650 2950 4010 5750
2026-02-09 04:30 0.81 125 7070 (2012) 107 (2006) 1790 120 165 377 476 1390 2650 2950 4010 5750
2026-02-09 03:30 0.81 125 7070 (2012) 107 (2006) 1790 120 165 377 476 1390 2650 2950 4010 5750
2026-02-09 02:30 0.81 125 7070 (2012) 107 (2006) 1790 120 165 377 476 1390 2650 2950 4010 5750
2026-02-09 01:30 0.81 125 7070 (2012) 107 (2006) 1790 120 165 377 476 1390 2650 2950 4010 5750
2026-02-09 00:30 0.81 125 7070 (2012) 107 (2006) 1790 120 165 377 476 1390 2650 2950 4010 5750
2026-02-08 23:30 0.81 125 7070 (2012) 107 (2006) 1790 120 165 377 476 1390 2650 2950 4010 5750
2026-02-08 22:30 0.81 125 7560 (2002) 74 (1996) 2130 114 140 321 429 1510 2970 3980 5620 6720
2026-02-08 21:30 0.81 125 7560 (2002) 74 (1996) 2130 114 140 321 429 1510 2970 3980 5620 6720
2026-02-08 20:30 0.82 128 7560 (2002) 74 (1996) 2130 114 140 321 429 1510 2970 3980 5620 6720
2026-02-08 19:30 0.82 128 7560 (2002) 74 (1996) 2130 114 140 321 429 1510 2970 3980 5620 6720
2026-02-08 18:30 0.82 128 7560 (2002) 74 (1996) 2130 114 140 321 429 1510 2970 3980 5620 6720
2026-02-08 17:30 0.83 132 7560 (2002) 74 (1996) 2130 114 140 321 429 1510 2970 3980 5620 6720
2026-02-08 16:30 0.83 132 7560 (2002) 74 (1996) 2130 114 140 321 429 1510 2970 3980 5620 6720
2026-02-08 15:30 0.83 132 7560 (2002) 74 (1996) 2130 114 140 321 429 1510 2970 3980 5620 6720
2026-02-08 14:30 0.82 128 7560 (2002) 74 (1996) 2130 114 140 321 429 1510 2970 3980 5620 6720
2026-02-08 13:30 0.83 132 7560 (2002) 74 (1996) 2130 114 140 321 429 1510 2970 3980 5620 6720
2026-02-08 12:30 0.84 135 7560 (2002) 74 (1996) 2130 114 140 321 429 1510 2970 3980 5620 6720
2026-02-08 11:30 0.84 135 7560 (2002) 74 (1996) 2130 114 140 321 429 1510 2970 3980 5620 6720
2026-02-08 10:30 0.84 135 7560 (2002) 74 (1996) 2130 114 140 321 429 1510 2970 3980 5620 6720
2026-02-08 09:30 0.84 135 7560 (2002) 74 (1996) 2130 114 140 321 429 1510 2970 3980 5620 6720
2026-02-08 08:30 0.84 135 7560 (2002) 74 (1996) 2130 114 140 321 429 1510 2970 3980 5620 6720
2026-02-08 07:30 0.84 135 7560 (2002) 74 (1996) 2130 114 140 321 429 1510 2970 3980 5620 6720
2026-02-08 06:30 0.84 135 7560 (2002) 74 (1996) 2130 114 140 321 429 1510 2970 3980 5620 6720
2026-02-08 05:30 0.85 137 7560 (2002) 74 (1996) 2130 114 140 321 429 1510 2970 3980 5620 6720
2026-02-08 04:30 0.85 137 7560 (2002) 74 (1996) 2130 114 140 321 429 1510 2970 3980 5620 6720
2026-02-08 03:30 0.85 137 7560 (2002) 74 (1996) 2130 114 140 321 429 1510 2970 3980 5620 6720
2026-02-08 02:30 0.85 137 7560 (2002) 74 (1996) 2130 114 140 321 429 1510 2970 3980 5620 6720
2026-02-08 01:30 0.85 137 7560 (2002) 74 (1996) 2130 114 140 321 429 1510 2970 3980 5620 6720
2026-02-08 00:30 0.85 137 7560 (2002) 74 (1996) 2130 114 140 321 429 1510 2970 3980 5620 6720
2026-02-07 23:30 0.85 137 7560 (2002) 74 (1996) 2130 114 140 321 429 1510 2970 3980 5620 6720
2026-02-07 22:30 0.86 140 7460 (2002) 104 (1993) 1920 157 233 361 479 1180 2750 3060 5610 7010
2026-02-07 21:30 0.85 137 7460 (2002) 104 (1993) 1920 157 233 361 479 1180 2750 3060 5610 7010
2026-02-07 20:30 0.86 140 7460 (2002) 104 (1993) 1920 157 233 361 479 1180 2750 3060 5610 7010
2026-02-07 19:30 0.86 140 7460 (2002) 104 (1993) 1920 157 233 361 479 1180 2750 3060 5610 7010
2026-02-07 18:30 0.86 140 7460 (2002) 104 (1993) 1920 157 233 361 479 1180 2750 3060 5610 7010
2026-02-07 17:30 0.87 143 7460 (2002) 104 (1993) 1920 157 233 361 479 1180 2750 3060 5610 7010
2026-02-07 16:30 0.87 143 7460 (2002) 104 (1993) 1920 157 233 361 479 1180 2750 3060 5610 7010
2026-02-07 15:30 0.88 145 7460 (2002) 104 (1993) 1920 157 233 361 479 1180 2750 3060 5610 7010
2026-02-07 14:30 0.88 145 7460 (2002) 104 (1993) 1920 157 233 361 479 1180 2750 3060 5610 7010
2026-02-07 13:30 0.88 145 7460 (2002) 104 (1993) 1920 157 233 361 479 1180 2750 3060 5610 7010
2026-02-07 12:30 0.89 148 7460 (2002) 104 (1993) 1920 157 233 361 479 1180 2750 3060 5610 7010
2026-02-07 11:30 0.90 151 7460 (2002) 104 (1993) 1920 157 233 361 479 1180 2750 3060 5610 7010
2026-02-07 10:30 0.89 148 7460 (2002) 104 (1993) 1920 157 233 361 479 1180 2750 3060 5610 7010
2026-02-07 09:30 0.86 140 7460 (2002) 104 (1993) 1920 157 233 361 479 1180 2750 3060 5610 7010
2026-02-07 08:30 0.88 145 7460 (2002) 104 (1993) 1920 157 233 361 479 1180 2750 3060 5610 7010
2026-02-07 07:30 0.88 145 7460 (2002) 104 (1993) 1920 157 233 361 479 1180 2750 3060 5610 7010
2026-02-07 06:30 0.88 145 7460 (2002) 104 (1993) 1920 157 233 361 479 1180 2750 3060 5610 7010
2026-02-07 05:30 0.89 148 7460 (2002) 104 (1993) 1920 157 233 361 479 1180 2750 3060 5610 7010
2026-02-07 04:30 0.88 145 7460 (2002) 104 (1993) 1920 157 233 361 479 1180 2750 3060 5610 7010
2026-02-07 03:30 0.89 148 7460 (2002) 104 (1993) 1920 157 233 361 479 1180 2750 3060 5610 7010
2026-02-07 02:30 0.89 148 7460 (2002) 104 (1993) 1920 157 233 361 479 1180 2750 3060 5610 7010
2026-02-07 01:30 0.89 148 7460 (2002) 104 (1993) 1920 157 233 361 479 1180 2750 3060 5610 7010
2026-02-07 00:30 0.89 148 7460 (2002) 104 (1993) 1920 157 233 361 479 1180 2750 3060 5610 7010
2026-02-06 23:30 0.89 148 7460 (2002) 104 (1993) 1920 157 233 361 479 1180 2750 3060 5610 7010
2026-02-06 22:30 0.90 151 7400 (2002) 108 (2006) 1690 141 162 247 342 1130 2480 2860 4560 6270
2026-02-06 21:30 0.90 151 7400 (2002) 108 (2006) 1690 141 162 247 342 1130 2480 2860 4560 6270
2026-02-06 20:30 0.90 151 7400 (2002) 108 (2006) 1690 141 162 247 342 1130 2480 2860 4560 6270
2026-02-06 19:30 0.90 151 7400 (2002) 108 (2006) 1690 141 162 247 342 1130 2480 2860 4560 6270
2026-02-06 18:30 0.91 153 7400 (2002) 108 (2006) 1690 141 162 247 342 1130 2480 2860 4560 6270
2026-02-06 17:30 0.91 153 7400 (2002) 108 (2006) 1690 141 162 247 342 1130 2480 2860 4560 6270
2026-02-06 16:30 0.91 153 7400 (2002) 108 (2006) 1690 141 162 247 342 1130 2480 2860 4560 6270
2026-02-06 15:30 0.92 156 7400 (2002) 108 (2006) 1690 141 162 247 342 1130 2480 2860 4560 6270
2026-02-06 14:30 0.93 158 7400 (2002) 108 (2006) 1690 141 162 247 342 1130 2480 2860 4560 6270
2026-02-06 13:30 0.93 158 7400 (2002) 108 (2006) 1690 141 162 247 342 1130 2480 2860 4560 6270
2026-02-06 12:30 0.94 161 7400 (2002) 108 (2006) 1690 141 162 247 342 1130 2480 2860 4560 6270
2026-02-06 11:30 0.94 161 7400 (2002) 108 (2006) 1690 141 162 247 342 1130 2480 2860 4560 6270
2026-02-06 10:30 0.95 163 7400 (2002) 108 (2006) 1690 141 162 247 342 1130 2480 2860 4560 6270
2026-02-06 09:30 0.94 161 7400 (2002) 108 (2006) 1690 141 162 247 342 1130 2480 2860 4560 6270
2026-02-06 08:30 0.94 161 7400 (2002) 108 (2006) 1690 141 162 247 342 1130 2480 2860 4560 6270
2026-02-06 07:30 0.95 163 7400 (2002) 108 (2006) 1690 141 162 247 342 1130 2480 2860 4560 6270
2026-02-06 06:30 0.95 163 7400 (2002) 108 (2006) 1690 141 162 247 342 1130 2480 2860 4560 6270
2026-02-06 05:30 0.95 163 7400 (2002) 108 (2006) 1690 141 162 247 342 1130 2480 2860 4560 6270
2026-02-06 04:30 0.96 166 7400 (2002) 108 (2006) 1690 141 162 247 342 1130 2480 2860 4560 6270
2026-02-06 03:30 0.95 163 7400 (2002) 108 (2006) 1690 141 162 247 342 1130 2480 2860 4560 6270
2026-02-06 02:30 0.96 166 7400 (2002) 108 (2006) 1690 141 162 247 342 1130 2480 2860 4560 6270
2026-02-06 01:30 0.96 166 7400 (2002) 108 (2006) 1690 141 162 247 342 1130 2480 2860 4560 6270
2026-02-06 00:30 0.97 168 7400 (2002) 108 (2006) 1690 141 162 247 342 1130 2480 2860 4560 6270
2026-02-05 23:30 0.97 168 7400 (2002) 108 (2006) 1690 141 162 247 342 1130 2480 2860 4560 6270
2026-02-05 22:30 0.97 168 7400 (2002) 117 (1978) 1780 125 160 426 484 1100 2550 3090 4740 5350
2026-02-05 21:30 0.98 171 7400 (2002) 117 (1978) 1780 125 160 426 484 1100 2550 3090 4740 5350
2026-02-05 20:30 0.98 171 7400 (2002) 117 (1978) 1780 125 160 426 484 1100 2550 3090 4740 5350
2026-02-05 19:30 0.99 174 7400 (2002) 117 (1978) 1780 125 160 426 484 1100 2550 3090 4740 5350
2026-02-05 18:30 0.99 174 7400 (2002) 117 (1978) 1780 125 160 426 484 1100 2550 3090 4740 5350
2026-02-05 17:30 1.00 177 7400 (2002) 117 (1978) 1780 125 160 426 484 1100 2550 3090 4740 5350
2026-02-05 16:30 1.01 180 7400 (2002) 117 (1978) 1780 125 160 426 484 1100 2550 3090 4740 5350
2026-02-05 15:30 1.01 180 7400 (2002) 117 (1978) 1780 125 160 426 484 1100 2550 3090 4740 5350
2026-02-05 14:30 1.02 182 7400 (2002) 117 (1978) 1780 125 160 426 484 1100 2550 3090 4740 5350
2026-02-05 13:30 1.03 185 7400 (2002) 117 (1978) 1780 125 160 426 484 1100 2550 3090 4740 5350
2026-02-05 12:30 1.03 185 7400 (2002) 117 (1978) 1780 125 160 426 484 1100 2550 3090 4740 5350
2026-02-05 11:30 1.04 188 7400 (2002) 117 (1978) 1780 125 160 426 484 1100 2550 3090 4740 5350
2026-02-05 10:30 1.04 188 7400 (2002) 117 (1978) 1780 125 160 426 484 1100 2550 3090 4740 5350
2026-02-05 09:30 1.04 188 7400 (2002) 117 (1978) 1780 125 160 426 484 1100 2550 3090 4740 5350
2026-02-05 08:30 1.05 191 7400 (2002) 117 (1978) 1780 125 160 426 484 1100 2550 3090 4740 5350
2026-02-05 07:30 1.05 191 7400 (2002) 117 (1978) 1780 125 160 426 484 1100 2550 3090 4740 5350
2026-02-05 06:30 1.06 193 7400 (2002) 117 (1978) 1780 125 160 426 484 1100 2550 3090 4740 5350
2026-02-05 05:30 1.06 193 7400 (2002) 117 (1978) 1780 125 160 426 484 1100 2550 3090 4740 5350
2026-02-05 04:30 1.07 195 7400 (2002) 117 (1978) 1780 125 160 426 484 1100 2550 3090 4740 5350
2026-02-05 03:30 1.07 195 7400 (2002) 117 (1978) 1780 125 160 426 484 1100 2550 3090 4740 5350
2026-02-05 02:30 1.08 197 7400 (2002) 117 (1978) 1780 125 160 426 484 1100 2550 3090 4740 5350
2026-02-05 01:30 1.08 197 7400 (2002) 117 (1978) 1780 125 160 426 484 1100 2550 3090 4740 5350
2026-02-05 00:30 1.09 200 7400 (2002) 117 (1978) 1780 125 160 426 484 1100 2550 3090 4740 5350
2026-02-04 23:30 1.10 202 7400 (2002) 117 (1978) 1780 125 160 426 484 1100 2550 3090 4740 5350
2026-02-04 22:30 1.11 205 7040 (1994) 119 (1981) 1760 151 249 327 488 1430 2500 2720 3780 6330
2026-02-04 21:30 1.11 205 7040 (1994) 119 (1981) 1760 151 249 327 488 1430 2500 2720 3780 6330
2026-02-04 20:30 1.12 207 7040 (1994) 119 (1981) 1760 151 249 327 488 1430 2500 2720 3780 6330
2026-02-04 19:30 1.13 210 7040 (1994) 119 (1981) 1760 151 249 327 488 1430 2500 2720 3780 6330
2026-02-04 18:30 1.14 213 7040 (1994) 119 (1981) 1760 151 249 327 488 1430 2500 2720 3780 6330
2026-02-04 17:30 1.15 215 7040 (1994) 119 (1981) 1760 151 249 327 488 1430 2500 2720 3780 6330
2026-02-04 16:30 1.10 202 7040 (1994) 119 (1981) 1760 151 249 327 488 1430 2500 2720 3780 6330
2026-02-04 15:30 1.13 210 7040 (1994) 119 (1981) 1760 151 249 327 488 1430 2500 2720 3780 6330
2026-02-04 14:30 1.18 224 7040 (1994) 119 (1981) 1760 151 249 327 488 1430 2500 2720 3780 6330
2026-02-04 13:30 1.18 224 7040 (1994) 119 (1981) 1760 151 249 327 488 1430 2500 2720 3780 6330
2026-02-04 12:30 1.16 218 7040 (1994) 119 (1981) 1760 151 249 327 488 1430 2500 2720 3780 6330
2026-02-04 11:30 1.22 235 7040 (1994) 119 (1981) 1760 151 249 327 488 1430 2500 2720 3780 6330
2026-02-04 10:30 1.23 238 7040 (1994) 119 (1981) 1760 151 249 327 488 1430 2500 2720 3780 6330
2026-02-04 09:30 1.23 238 7040 (1994) 119 (1981) 1760 151 249 327 488 1430 2500 2720 3780 6330
2026-02-04 08:30 1.25 244 7040 (1994) 119 (1981) 1760 151 249 327 488 1430 2500 2720 3780 6330
2026-02-04 07:30 1.25 244 7040 (1994) 119 (1981) 1760 151 249 327 488 1430 2500 2720 3780 6330
2026-02-04 06:30 1.26 247 7040 (1994) 119 (1981) 1760 151 249 327 488 1430 2500 2720 3780 6330
2026-02-04 05:30 1.26 247 7040 (1994) 119 (1981) 1760 151 249 327 488 1430 2500 2720 3780 6330
2026-02-04 04:30 1.27 250 7040 (1994) 119 (1981) 1760 151 249 327 488 1430 2500 2720 3780 6330
2026-02-04 03:30 1.27 250 7040 (1994) 119 (1981) 1760 151 249 327 488 1430 2500 2720 3780 6330
2026-02-04 02:30 1.27 250 7040 (1994) 119 (1981) 1760 151 249 327 488 1430 2500 2720 3780 6330
2026-02-04 01:30 1.26 247 7040 (1994) 119 (1981) 1760 151 249 327 488 1430 2500 2720 3780 6330
2026-02-04 00:30 1.25 244 7040 (1994) 119 (1981) 1760 151 249 327 488 1430 2500 2720 3780 6330
2026-02-03 23:30 1.25 244 7040 (1994) 119 (1981) 1760 151 249 327 488 1430 2500 2720 3780 6330
2026-02-03 22:30 1.23 238 7020 (1994) 109 (2006) 1560 164 192 331 374 1130 2390 2660 3200 5450
2026-02-03 21:30 1.22 235 7020 (1994) 109 (2006) 1560 164 192 331 374 1130 2390 2660 3200 5450
2026-02-03 20:30 1.21 232 7020 (1994) 109 (2006) 1560 164 192 331 374 1130 2390 2660 3200 5450
2026-02-03 19:30 1.21 232 7020 (1994) 109 (2006) 1560 164 192 331 374 1130 2390 2660 3200 5450
2026-02-03 18:30 1.20 229 7020 (1994) 109 (2006) 1560 164 192 331 374 1130 2390 2660 3200 5450
2026-02-03 17:30 1.20 229 7020 (1994) 109 (2006) 1560 164 192 331 374 1130 2390 2660 3200 5450
2026-02-03 16:30 1.20 229 7020 (1994) 109 (2006) 1560 164 192 331 374 1130 2390 2660 3200 5450
2026-02-03 15:30 1.19 226 7020 (1994) 109 (2006) 1560 164 192 331 374 1130 2390 2660 3200 5450
2026-02-03 14:30 1.21 232 7020 (1994) 109 (2006) 1560 164 192 331 374 1130 2390 2660 3200 5450
2026-02-03 13:30 1.22 235 7020 (1994) 109 (2006) 1560 164 192 331 374 1130 2390 2660 3200 5450
2026-02-03 12:30 1.24 241 7020 (1994) 109 (2006) 1560 164 192 331 374 1130 2390 2660 3200 5450
2026-02-03 11:30 1.25 244 7020 (1994) 109 (2006) 1560 164 192 331 374 1130 2390 2660 3200 5450
2026-02-03 10:30 1.27 250 7020 (1994) 109 (2006) 1560 164 192 331 374 1130 2390 2660 3200 5450
2026-02-03 09:30 1.29 256 7020 (1994) 109 (2006) 1560 164 192 331 374 1130 2390 2660 3200 5450
2026-02-03 08:30 1.32 265 7020 (1994) 109 (2006) 1560 164 192 331 374 1130 2390 2660 3200 5450
2026-02-03 07:30 1.35 275 7020 (1994) 109 (2006) 1560 164 192 331 374 1130 2390 2660 3200 5450
2026-02-03 06:30 1.37 281 7020 (1994) 109 (2006) 1560 164 192 331 374 1130 2390 2660 3200 5450
2026-02-03 05:30 1.40 290 7020 (1994) 109 (2006) 1560 164 192 331 374 1130 2390 2660 3200 5450
2026-02-03 04:30 1.44 303 7020 (1994) 109 (2006) 1560 164 192 331 374 1130 2390 2660 3200 5450
2026-02-03 03:30 1.47 313 7020 (1994) 109 (2006) 1560 164 192 331 374 1130 2390 2660 3200 5450
2026-02-03 02:30 1.52 331 7020 (1994) 109 (2006) 1560 164 192 331 374 1130 2390 2660 3200 5450
2026-02-03 01:30 1.57 349 7020 (1994) 109 (2006) 1560 164 192 331 374 1130 2390 2660 3200 5450
2026-02-03 00:30 1.62 367 7020 (1994) 109 (2006) 1560 164 192 331 374 1130 2390 2660 3200 5450
2026-02-02 23:30 1.68 390 7020 (1994) 109 (2006) 1560 164 192 331 374 1130 2390 2660 3200 5450

A total of 2196 rows are displayed for years 1970 through 2025.